Wetterdaten: Montag, 28.11.2016
Datum Zeit Temp. A. Feuchte A. Luftdruck Regen Wind Richtung Richtung Sonnenschein ET UV Solar Taupunkt Windchill Windben Empfang
28.11.2016 00:00 2,7 C 94 % 1018,3 hPa 0,0 l/m 2,9 km/h (1 Bft) NW 317 0 min 0,000 mm 0,0 UV-I 0 W/m 1,8 C 2,7 C 6,4 km/h (2 Bft) 100,00 %
28.11.2016 00:02 2,6 C 94 % 1018,3 hPa 0,0 l/m 2,3 km/h (1 Bft) NW 314 0 min 0,000 mm 0,0 UV-I 0 W/m 1,7 C 2,6 C 4,8 km/h (1 Bft) 100,00 %
28.11.2016 00:04 2,6 C 94 % 1018,3 hPa 0,0 l/m 1,4 km/h (1 Bft) NW 312 0 min 0,000 mm 0,0 UV-I 0 W/m 1,7 C 2,6 C 4,8 km/h (1 Bft) 98,00 %
28.11.2016 00:06 2,6 C 93 % 1018,3 hPa 0,0 l/m 1,6 km/h (1 Bft) W-NW 302 0 min 0,000 mm 0,0 UV-I 0 W/m 1,6 C 2,6 C 6,4 km/h (2 Bft) 94,29 %
28.11.2016 00:08 2,5 C 93 % 1018,4 hPa 0,0 l/m 3,5 km/h (1 Bft) W-NW 287 0 min 0,000 mm 0,0 UV-I 0 W/m 1,5 C 2,5 C 9,7 km/h (2 Bft) 100,00 %
28.11.2016 00:10 2,4 C 93 % 1018,4 hPa 0,0 l/m 2,6 km/h (1 Bft) NW 313 0 min 0,000 mm 0,0 UV-I 0 W/m 1,4 C 2,4 C 4,8 km/h (1 Bft) 98,00 %
28.11.2016 00:12 2,4 C 93 % 1018,4 hPa 0,0 l/m 0,6 km/h (0 Bft) NW 313 0 min 0,000 mm 0,0 UV-I 0 W/m 1,4 C 2,4 C 1,6 km/h (1 Bft) 100,00 %
28.11.2016 00:14 2,3 C 93 % 1018,4 hPa 0,0 l/m 0,8 km/h (0 Bft) NW 313 0 min 0,000 mm 0,0 UV-I 0 W/m 1,3 C 2,3 C 1,6 km/h (1 Bft) 97,37 %
28.11.2016 00:16 2,3 C 93 % 1018,4 hPa 0,0 l/m 1,2 km/h (1 Bft) NW 313 0 min 0,000 mm 0,0 UV-I 0 W/m 1,3 C 2,3 C 3,2 km/h (1 Bft) 98,11 %
28.11.2016 00:18 2,3 C 93 % 1018,4 hPa 0,0 l/m 1,3 km/h (1 Bft) NW 313 0 min 0,000 mm 0,0 UV-I 0 W/m 1,3 C 2,3 C 3,2 km/h (1 Bft) 100,00 %
28.11.2016 00:20 2,2 C 93 % 1018,5 hPa 0,0 l/m 1,1 km/h (1 Bft) NW 313 0 min 0,000 mm 0,0 UV-I 0 W/m 1,2 C 2,2 C 3,2 km/h (1 Bft) 100,00 %
28.11.2016 00:22 2,2 C 93 % 1018,4 hPa 0,0 l/m 0,9 km/h (0 Bft) NW 313 0 min 0,000 mm 0,0 UV-I 0 W/m 1,2 C 2,2 C 3,2 km/h (1 Bft) 98,11 %
28.11.2016 00:24 2,2 C 93 % 1018,4 hPa 0,0 l/m 0,5 km/h (0 Bft) NW 313 0 min 0,000 mm 0,0 UV-I 0 W/m 1,2 C 2,2 C 1,6 km/h (1 Bft) 97,22 %
28.11.2016 00:26 2,1 C 93 % 1018,5 hPa 0,0 l/m 0,0 km/h (0 Bft) NW 313 0 min 0,000 mm 0,0 UV-I 0 W/m 1,1 C 2,1 C 0,0 km/h (0 Bft) 100,00 %
28.11.2016 00:28 2,1 C 93 % 1018,5 hPa 0,0 l/m 0,0 km/h (0 Bft) NW 313 0 min 0,000 mm 0,0 UV-I 0 W/m 1,1 C 2,1 C 1,6 km/h (1 Bft) 100,00 %
28.11.2016 00:30 2,0 C 93 % 1018,5 hPa 0,0 l/m 0,2 km/h (0 Bft) NW 313 0 min 0,000 mm 0,0 UV-I 0 W/m 1,0 C 2,0 C 1,6 km/h (1 Bft) 98,00 %
28.11.2016 00:32 2,0 C 94 % 1018,5 hPa 0,0 l/m 0,2 km/h (0 Bft) NW 313 0 min 0,000 mm 0,0 UV-I 0 W/m 1,1 C 2,0 C 1,6 km/h (1 Bft) 100,00 %
28.11.2016 00:34 1,9 C 94 % 1018,5 hPa 0,0 l/m 0,4 km/h (0 Bft) NW 313 0 min 0,000 mm 0,0 UV-I 0 W/m 1,0 C 1,9 C 1,6 km/h (1 Bft) 100,00 %
28.11.2016 00:36 1,9 C 94 % 1018,5 hPa 0,0 l/m 0,0 km/h (0 Bft) NW 313 0 min 0,000 mm 0,0 UV-I 0 W/m 1,0 C 1,9 C 0,0 km/h (0 Bft) 96,23 %
28.11.2016 00:38 1,9 C 94 % 1018,5 hPa 0,0 l/m 0,0 km/h (0 Bft) NW 313 0 min 0,000 mm 0,0 UV-I 0 W/m 1,0 C 1,9 C 0,0 km/h (0 Bft) 98,00 %
28.11.2016 00:40 1,9 C 94 % 1018,5 hPa 0,0 l/m 0,2 km/h (0 Bft) NW 313 0 min 0,000 mm 0,0 UV-I 0 W/m 1,0 C 1,9 C 3,2 km/h (1 Bft) 100,00 %
28.11.2016 00:42 1,8 C 94 % 1018,5 hPa 0,0 l/m 1,5 km/h (1 Bft) NW 313 0 min 0,000 mm 0,0 UV-I 0 W/m 0,9 C 1,8 C 3,2 km/h (1 Bft) 100,00 %
28.11.2016 00:44 1,8 C 94 % 1018,5 hPa 0,0 l/m 1,8 km/h (1 Bft) NW 313 0 min 0,000 mm 0,0 UV-I 0 W/m 0,9 C 1,8 C 3,2 km/h (1 Bft) 97,37 %
28.11.2016 00:46 1,8 C 94 % 1018,6 hPa 0,0 l/m 1,4 km/h (1 Bft) NW 313 0 min 0,000 mm 0,0 UV-I 0 W/m 0,9 C 1,8 C 3,2 km/h (1 Bft) 97,87 %
28.11.2016 00:48 1,8 C 94 % 1018,5 hPa 0,0 l/m 1,0 km/h (0 Bft) NW 313 0 min 0,000 mm 0,0 UV-I 0 W/m 0,9 C 1,8 C 1,6 km/h (1 Bft) 100,00 %
28.11.2016 00:50 1,7 C 94 % 1018,5 hPa 0,0 l/m 0,8 km/h (0 Bft) NW 313 0 min 0,000 mm 0,0 UV-I 0 W/m 0,8 C 1,7 C 1,6 km/h (1 Bft) 100,00 %
28.11.2016 00:52 1,7 C 94 % 1018,5 hPa 0,0 l/m 1,7 km/h (1 Bft) NW 313 0 min 0,000 mm 0,0 UV-I 0 W/m 0,8 C 1,7 C 3,2 km/h (1 Bft) 94,00 %
28.11.2016 00:54 1,6 C 94 % 1018,5 hPa 0,0 l/m 1,5 km/h (1 Bft) NW 313 0 min 0,000 mm 0,0 UV-I 0 W/m 0,7 C 1,6 C 3,2 km/h (1 Bft) 100,00 %
28.11.2016 00:56 1,6 C 94 % 1018,5 hPa 0,0 l/m 2,1 km/h (1 Bft) NW 313 0 min 0,000 mm 0,0 UV-I 0 W/m 0,7 C 1,6 C 3,2 km/h (1 Bft) 100,00 %
28.11.2016 00:58 1,5 C 94 % 1018,5 hPa 0,0 l/m 1,9 km/h (1 Bft) NW 313 0 min 0,000 mm 0,0 UV-I 0 W/m 0,6 C 1,5 C 3,2 km/h (1 Bft) 100,00 %
28.11.2016 01:00 1,5 C 94 % 1018,5 hPa 0,0 l/m 1,7 km/h (1 Bft) NW 313 0 min 0,000 mm 0,0 UV-I 0 W/m 0,6 C 1,5 C 3,2 km/h (1 Bft) 100,00 %
28.11.2016 01:02 1,4 C 94 % 1018,5 hPa 0,0 l/m 2,2 km/h (1 Bft) NW 313 0 min 0,000 mm 0,0 UV-I 0 W/m 0,5 C 1,4 C 3,2 km/h (1 Bft) 98,08 %
28.11.2016 01:04 1,4 C 94 % 1018,6 hPa 0,0 l/m 2,0 km/h (1 Bft) NW 313 0 min 0,000 mm 0,0 UV-I 0 W/m 0,5 C 1,4 C 3,2 km/h (1 Bft) 100,00 %
28.11.2016 01:06 1,3 C 94 % 1018,5 hPa 0,0 l/m 1,8 km/h (1 Bft) NW 313 0 min 0,000 mm 0,0 UV-I 0 W/m 0,4 C 1,3 C 3,2 km/h (1 Bft) 100,00 %
28.11.2016 01:08 1,3 C 94 % 1018,6 hPa 0,0 l/m 2,5 km/h (1 Bft) NW 313 0 min 0,000 mm 0,0 UV-I 0 W/m 0,4 C 1,3 C 3,2 km/h (1 Bft) 100,00 %
28.11.2016 01:10 1,2 C 94 % 1018,6 hPa 0,0 l/m 2,4 km/h (1 Bft) NW 313 0 min 0,000 mm 0,0 UV-I 0 W/m 0,3 C 1,2 C 3,2 km/h (1 Bft) 97,87 %
28.11.2016 01:12 1,2 C 94 % 1018,6 hPa 0,0 l/m 2,6 km/h (1 Bft) NW 313 0 min 0,000 mm 0,0 UV-I 0 W/m 0,3 C 1,2 C 3,2 km/h (1 Bft) 100,00 %
28.11.2016 01:14 1,1 C 94 % 1018,6 hPa 0,0 l/m 2,2 km/h (1 Bft) NW 313 0 min 0,000 mm 0,0 UV-I 0 W/m 0,2 C 1,1 C 3,2 km/h (1 Bft) 98,00 %
28.11.2016 01:16 1,1 C 94 % 1018,5 hPa 0,0 l/m 1,7 km/h (1 Bft) NW 313 0 min 0,000 mm 0,0 UV-I 0 W/m 0,2 C 1,1 C 3,2 km/h (1 Bft) 97,56 %
28.11.2016 01:18 1,1 C 94 % 1018,5 hPa 0,0 l/m 1,6 km/h (1 Bft) NW 313 0 min 0,000 mm 0,0 UV-I 0 W/m 0,2 C 1,1 C 3,2 km/h (1 Bft) 100,00 %
28.11.2016 01:20 1,1 C 94 % 1018,6 hPa 0,0 l/m 1,1 km/h (1 Bft) NW 313 0 min 0,000 mm 0,0 UV-I 0 W/m 0,2 C 1,1 C 3,2 km/h (1 Bft) 100,00 %
28.11.2016 01:22 1,0 C 94 % 1018,6 hPa 0,0 l/m 1,3 km/h (1 Bft) NW 313 0 min 0,000 mm 0,0 UV-I 0 W/m 0,1 C 1,0 C 3,2 km/h (1 Bft) 100,00 %
28.11.2016 01:24 1,0 C 94 % 1018,6 hPa 0,0 l/m 1,8 km/h (1 Bft) NW 313 0 min 0,000 mm 0,0 UV-I 0 W/m 0,1 C 1,0 C 3,2 km/h (1 Bft) 97,87 %
28.11.2016 01:26 1,0 C 94 % 1018,6 hPa 0,0 l/m 2,0 km/h (1 Bft) W-NW 300 0 min 0,000 mm 0,0 UV-I 0 W/m 0,1 C 1,0 C 4,8 km/h (1 Bft) 95,12 %
28.11.2016 01:28 1,0 C 94 % 1018,7 hPa 0,0 l/m 0,9 km/h (0 Bft) W-NW 300 0 min 0,000 mm 0,0 UV-I 0 W/m 0,1 C 1,0 C 3,2 km/h (1 Bft) 95,74 %
28.11.2016 01:30 0,9 C 94 % 1018,7 hPa 0,0 l/m 0,1 km/h (0 Bft) W-NW 300 0 min 0,000 mm 0,0 UV-I 0 W/m 0,0 C 0,9 C 1,6 km/h (1 Bft) 97,87 %
28.11.2016 01:32 0,8 C 94 % 1018,7 hPa 0,0 l/m 0,3 km/h (0 Bft) W-NW 300 0 min 0,000 mm 0,0 UV-I 0 W/m -0,1 C 0,8 C 1,6 km/h (1 Bft) 98,00 %
28.11.2016 01:34 0,8 C 94 % 1018,7 hPa 0,0 l/m 0,0 km/h (0 Bft) W-NW 300 0 min 0,000 mm 0,0 UV-I 0 W/m -0,1 C 0,8 C 0,0 km/h (0 Bft) 98,11 %
28.11.2016 01:36 0,8 C 94 % 1018,8 hPa 0,0 l/m 0,6 km/h (0 Bft) W-NW 300 0 min 0,000 mm 0,0 UV-I 0 W/m -0,1 C 0,8 C 1,6 km/h (1 Bft) 95,74 %
28.11.2016 01:38 0,8 C 94 % 1018,8 hPa 0,0 l/m 0,1 km/h (0 Bft) W-NW 300 0 min 0,000 mm 0,0 UV-I 0 W/m -0,1 C 0,8 C 1,6 km/h (1 Bft) 97,37 %
28.11.2016 01:40 0,8 C 94 % 1018,8 hPa 0,0 l/m 0,8 km/h (0 Bft) W-NW 300 0 min 0,000 mm 0,0 UV-I 0 W/m -0,1 C 0,8 C 3,2 km/h (1 Bft) 97,87 %
28.11.2016 01:42 0,8 C 94 % 1018,8 hPa 0,0 l/m 0,8 km/h (0 Bft) W-NW 300 0 min 0,000 mm 0,0 UV-I 0 W/m -0,1 C 0,8 C 1,6 km/h (1 Bft) 95,74 %
28.11.2016 01:44 0,7 C 94 % 1018,8 hPa 0,0 l/m 0,3 km/h (0 Bft) W-NW 300 0 min 0,000 mm 0,0 UV-I 0 W/m -0,2 C 0,7 C 1,6 km/h (1 Bft) 94,00 %
28.11.2016 01:46 0,7 C 94 % 1018,9 hPa 0,0 l/m 0,4 km/h (0 Bft) W-NW 300 0 min 0,000 mm 0,0 UV-I 0 W/m -0,2 C 0,7 C 1,6 km/h (1 Bft) 97,44 %
28.11.2016 01:48 0,6 C 94 % 1018,9 hPa 0,0 l/m 0,7 km/h (0 Bft) W-NW 300 0 min 0,000 mm 0,0 UV-I 0 W/m -0,3 C 0,6 C 3,2 km/h (1 Bft) 96,23 %
28.11.2016 01:50 0,6 C 94 % 1018,9 hPa 0,0 l/m 1,3 km/h (1 Bft) W-NW 300 0 min 0,000 mm 0,0 UV-I 0 W/m -0,3 C 0,6 C 3,2 km/h (1 Bft) 96,23 %
28.11.2016 01:52 0,5 C 94 % 1019,0 hPa 0,0 l/m 1,2 km/h (1 Bft) W-NW 296 0 min 0,000 mm 0,0 UV-I 0 W/m -0,4 C 0,5 C 3,2 km/h (1 Bft) 97,37 %
28.11.2016 01:54 0,5 C 94 % 1019,0 hPa 0,0 l/m 2,2 km/h (1 Bft) S-SW 192 0 min 0,000 mm 0,0 UV-I 0 W/m -0,4 C 0,5 C 4,8 km/h (1 Bft) 95,83 %
28.11.2016 01:56 0,5 C 94 % 1019,0 hPa 0,0 l/m 1,3 km/h (1 Bft) S-SW 192 0 min 0,000 mm 0,0 UV-I 0 W/m -0,4 C 0,5 C 3,2 km/h (1 Bft) 97,87 %
28.11.2016 01:58 0,4 C 94 % 1019,0 hPa 0,0 l/m 1,5 km/h (1 Bft) S-SW 192 0 min 0,000 mm 0,0 UV-I 0 W/m -0,5 C 0,4 C 3,2 km/h (1 Bft) 98,00 %
28.11.2016 02:00 0,3 C 94 % 1019,1 hPa 0,0 l/m 1,9 km/h (1 Bft) S-SW 192 0 min 0,000 mm 0,0 UV-I 0 W/m -0,5 C 0,3 C 3,2 km/h (1 Bft) 92,00 %
28.11.2016 02:02 0,3 C 95 % 1019,1 hPa 0,0 l/m 2,0 km/h (1 Bft) S-SW 192 0 min 0,000 mm 0,0 UV-I 0 W/m -0,4 C 0,3 C 3,2 km/h (1 Bft) 97,37 %
28.11.2016 02:04 0,3 C 95 % 1019,1 hPa 0,0 l/m 1,4 km/h (1 Bft) S-SW 192 0 min 0,000 mm 0,0 UV-I 0 W/m -0,4 C 0,3 C 3,2 km/h (1 Bft) 98,11 %
28.11.2016 02:06 0,3 C 95 % 1019,1 hPa 0,0 l/m 1,3 km/h (1 Bft) S-SW 192 0 min 0,000 mm 0,0 UV-I 0 W/m -0,4 C 0,3 C 4,8 km/h (1 Bft) 97,87 %
28.11.2016 02:08 0,3 C 95 % 1019,1 hPa 0,0 l/m 2,9 km/h (1 Bft) S-SW 192 0 min 0,000 mm 0,0 UV-I 0 W/m -0,4 C 0,3 C 4,8 km/h (1 Bft) 97,87 %
28.11.2016 02:10 0,3 C 95 % 1019,1 hPa 0,0 l/m 2,6 km/h (1 Bft) S-SW 192 0 min 0,000 mm 0,0 UV-I 0 W/m -0,4 C 0,3 C 3,2 km/h (1 Bft) 94,00 %
28.11.2016 02:12 0,3 C 95 % 1019,2 hPa 0,0 l/m 4,3 km/h (1 Bft) SW 224 0 min 0,000 mm 0,0 UV-I 0 W/m -0,4 C 0,3 C 6,4 km/h (2 Bft) 97,87 %
28.11.2016 02:14 0,3 C 95 % 1019,2 hPa 0,0 l/m 4,4 km/h (1 Bft) SW 223 0 min 0,000 mm 0,0 UV-I 0 W/m -0,4 C 0,3 C 6,4 km/h (2 Bft) 100,00 %
28.11.2016 02:16 0,3 C 95 % 1019,2 hPa 0,0 l/m 4,6 km/h (1 Bft) SW 227 0 min 0,000 mm 0,0 UV-I 0 W/m -0,4 C 0,3 C 6,4 km/h (2 Bft) 98,11 %
28.11.2016 02:18 0,3 C 95 % 1019,2 hPa 0,0 l/m 5,1 km/h (1 Bft) W-SW 243 0 min 0,000 mm 0,0 UV-I 0 W/m -0,4 C 0,3 C 6,4 km/h (2 Bft) 97,37 %
28.11.2016 02:20 0,3 C 95 % 1019,2 hPa 0,0 l/m 4,7 km/h (1 Bft) W-SW 238 0 min 0,000 mm 0,0 UV-I 0 W/m -0,4 C 0,3 C 6,4 km/h (2 Bft) 100,00 %
28.11.2016 02:22 0,3 C 95 % 1019,2 hPa 0,0 l/m 4,8 km/h (1 Bft) W-SW 242 0 min 0,000 mm 0,0 UV-I 0 W/m -0,4 C 0,3 C 6,4 km/h (2 Bft) 100,00 %
28.11.2016 02:24 0,3 C 95 % 1019,2 hPa 0,0 l/m 4,0 km/h (1 Bft) W-SW 242 0 min 0,000 mm 0,0 UV-I 0 W/m -0,4 C 0,3 C 6,4 km/h (2 Bft) 97,62 %
28.11.2016 02:26 0,3 C 95 % 1019,3 hPa 0,0 l/m 3,8 km/h (1 Bft) W-SW 242 0 min 0,000 mm 0,0 UV-I 0 W/m -0,4 C 0,3 C 4,8 km/h (1 Bft) 98,00 %
28.11.2016 02:28 0,3 C 95 % 1019,3 hPa 0,0 l/m 3,5 km/h (1 Bft) W-SW 242 0 min 0,000 mm 0,0 UV-I 0 W/m -0,4 C 0,3 C 4,8 km/h (1 Bft) 97,87 %
28.11.2016 02:30 0,3 C 95 % 1019,4 hPa 0,0 l/m 2,7 km/h (1 Bft) W-SW 242 0 min 0,000 mm 0,0 UV-I 0 W/m -0,4 C 0,3 C 3,2 km/h (1 Bft) 100,00 %
28.11.2016 02:32 0,3 C 95 % 1019,4 hPa 0,0 l/m 2,8 km/h (1 Bft) W-SW 242 0 min 0,000 mm 0,0 UV-I 0 W/m -0,4 C 0,3 C 3,2 km/h (1 Bft) 100,00 %
28.11.2016 02:34 0,2 C 95 % 1019,4 hPa 0,0 l/m 3,1 km/h (1 Bft) W-SW 242 0 min 0,000 mm 0,0 UV-I 0 W/m -0,5 C 0,2 C 4,8 km/h (1 Bft) 100,00 %
28.11.2016 02:36 0,2 C 95 % 1019,3 hPa 0,0 l/m 1,7 km/h (1 Bft) W-SW 242 0 min 0,000 mm 0,0 UV-I 0 W/m -0,5 C 0,2 C 3,2 km/h (1 Bft) 98,11 %
28.11.2016 02:38 0,2 C 95 % 1019,4 hPa 0,0 l/m 1,7 km/h (1 Bft) W-SW 242 0 min 0,000 mm 0,0 UV-I 0 W/m -0,5 C 0,2 C 3,2 km/h (1 Bft) 96,00 %
28.11.2016 02:40 0,1 C 95 % 1019,4 hPa 0,0 l/m 1,8 km/h (1 Bft) W-SW 242 0 min 0,000 mm 0,0 UV-I 0 W/m -0,6 C 0,1 C 3,2 km/h (1 Bft) 100,00 %
28.11.2016 02:42 0,1 C 95 % 1019,5 hPa 0,0 l/m 2,4 km/h (1 Bft) W-SW 242 0 min 0,000 mm 0,0 UV-I 0 W/m -0,6 C 0,1 C 3,2 km/h (1 Bft) 100,00 %
28.11.2016 02:44 0,1 C 95 % 1019,5 hPa 0,0 l/m 2,0 km/h (1 Bft) W-SW 242 0 min 0,000 mm 0,0 UV-I 0 W/m -0,6 C 0,1 C 3,2 km/h (1 Bft) 100,00 %
28.11.2016 02:46 0,0 C 95 % 1019,5 hPa 0,0 l/m 2,0 km/h (1 Bft) W-SW 242 0 min 0,000 mm 0,0 UV-I 0 W/m -0,7 C 0,0 C 3,2 km/h (1 Bft) 100,00 %
28.11.2016 02:48 0,0 C 95 % 1019,5 hPa 0,0 l/m 2,3 km/h (1 Bft) W-SW 242 0 min 0,000 mm 0,0 UV-I 0 W/m -0,7 C 0,0 C 3,2 km/h (1 Bft) 100,00 %
28.11.2016 02:50 0,0 C 96 % 1019,5 hPa 0,0 l/m 2,5 km/h (1 Bft) W-SW 242 0 min 0,000 mm 0,0 UV-I 0 W/m -0,6 C 0,0 C 4,8 km/h (1 Bft) 100,00 %
28.11.2016 02:52 -0,1 C 95 % 1019,5 hPa 0,0 l/m 2,9 km/h (1 Bft) W-SW 242 0 min 0,000 mm 0,0 UV-I 0 W/m -0,8 C -0,1 C 3,2 km/h (1 Bft) 100,00 %
28.11.2016 02:54 -0,1 C 95 % 1019,5 hPa 0,0 l/m 3,5 km/h (1 Bft) W 267 0 min 0,000 mm 0,0 UV-I 0 W/m -0,8 C -0,1 C 6,4 km/h (2 Bft) 100,00 %
28.11.2016 02:56 -0,1 C 95 % 1019,5 hPa 0,0 l/m 3,0 km/h (1 Bft) W 265 0 min 0,000 mm 0,0 UV-I 0 W/m -0,8 C -0,1 C 9,7 km/h (2 Bft) 100,00 %
28.11.2016 02:58 -0,1 C 95 % 1019,6 hPa 0,0 l/m 3,3 km/h (1 Bft) W 265 0 min 0,000 mm 0,0 UV-I 0 W/m -0,8 C -0,1 C 4,8 km/h (1 Bft) 100,00 %
28.11.2016 03:00 -0,1 C 95 % 1019,6 hPa 0,0 l/m 3,1 km/h (1 Bft) W 265 0 min 0,000 mm 0,0 UV-I 0 W/m -0,8 C -0,1 C 4,8 km/h (1 Bft) 100,00 %
28.11.2016 03:02 -0,1 C 95 % 1019,6 hPa 0,0 l/m 2,6 km/h (1 Bft) W 265 0 min 0,000 mm 0,0 UV-I 0 W/m -0,8 C -0,1 C 4,8 km/h (1 Bft) 100,00 %
28.11.2016 03:04 -0,2 C 95 % 1019,6 hPa 0,0 l/m 2,7 km/h (1 Bft) W 265 0 min 0,000 mm 0,0 UV-I 0 W/m -0,9 C -0,2 C 4,8 km/h (1 Bft) 100,00 %
28.11.2016 03:06 -0,2 C 95 % 1019,6 hPa 0,0 l/m 1,9 km/h (1 Bft) W 265 0 min 0,000 mm 0,0 UV-I 0 W/m -0,9 C -0,2 C 3,2 km/h (1 Bft) 97,87 %
28.11.2016 03:08 -0,2 C 95 % 1019,6 hPa 0,0 l/m 3,4 km/h (1 Bft) W 259 0 min 0,000 mm 0,0 UV-I 0 W/m -0,9 C -0,2 C 9,7 km/h (2 Bft) 100,00 %
28.11.2016 03:10 -0,2 C 95 % 1019,6 hPa 0,0 l/m 3,6 km/h (1 Bft) W 267 0 min 0,000 mm 0,0 UV-I 0 W/m -0,9 C -0,2 C 6,4 km/h (2 Bft) 94,74 %
28.11.2016 03:12 -0,2 C 95 % 1019,6 hPa 0,0 l/m 1,6 km/h (1 Bft) W 267 0 min 0,000 mm 0,0 UV-I 0 W/m -0,9 C -0,2 C 3,2 km/h (1 Bft) 100,00 %
28.11.2016 03:14 -0,2 C 95 % 1019,6 hPa 0,0 l/m 0,7 km/h (0 Bft) W 267 0 min 0,000 mm 0,0 UV-I 0 W/m -0,9 C -0,2 C 3,2 km/h (1 Bft) 98,21 %
28.11.2016 03:16 -0,2 C 95 % 1019,6 hPa 0,0 l/m 1,3 km/h (1 Bft) W 267 0 min 0,000 mm 0,0 UV-I 0 W/m -0,9 C -0,2 C 3,2 km/h (1 Bft) 100,00 %
28.11.2016 03:18 -0,2 C 94 % 1019,7 hPa 0,0 l/m 0,7 km/h (0 Bft) W 267 0 min 0,000 mm 0,0 UV-I 0 W/m -1,0 C -0,2 C 1,6 km/h (1 Bft) 100,00 %
28.11.2016 03:20 -0,2 C 94 % 1019,6 hPa 0,0 l/m 1,1 km/h (1 Bft) W 267 0 min 0,000 mm 0,0 UV-I 0 W/m -1,0 C -0,2 C 4,8 km/h (1 Bft) 100,00 %
28.11.2016 03:22 -0,2 C 94 % 1019,7 hPa 0,0 l/m 0,8 km/h (0 Bft) W 268 0 min 0,000 mm 0,0 UV-I 0 W/m -1,0 C -0,2 C 3,2 km/h (1 Bft) 100,00 %
28.11.2016 03:24 -0,2 C 94 % 1019,7 hPa 0,0 l/m 0,3 km/h (0 Bft) W 268 0 min 0,000 mm 0,0 UV-I 0 W/m -1,0 C -0,2 C 1,6 km/h (1 Bft) 100,00 %
28.11.2016 03:26 -0,3 C 94 % 1019,7 hPa 0,0 l/m 0,6 km/h (0 Bft) W 268 0 min 0,000 mm 0,0 UV-I 0 W/m -1,1 C -0,3 C 3,2 km/h (1 Bft) 100,00 %
28.11.2016 03:28 -0,3 C 94 % 1019,7 hPa 0,0 l/m 1,2 km/h (1 Bft) W 268 0 min 0,000 mm 0,0 UV-I 0 W/m -1,1 C -0,3 C 3,2 km/h (1 Bft) 97,56 %
28.11.2016 03:30 -0,3 C 94 % 1019,7 hPa 0,0 l/m 1,3 km/h (1 Bft) W 269 0 min 0,000 mm 0,0 UV-I 0 W/m -1,1 C -0,3 C 3,2 km/h (1 Bft) 97,87 %
28.11.2016 03:32 -0,3 C 94 % 1019,7 hPa 0,0 l/m 0,6 km/h (0 Bft) W 269 0 min 0,000 mm 0,0 UV-I 0 W/m -1,1 C -0,3 C 3,2 km/h (1 Bft) 100,00 %
28.11.2016 03:34 -0,3 C 94 % 1019,7 hPa 0,0 l/m 1,0 km/h (0 Bft) W 269 0 min 0,000 mm 0,0 UV-I 0 W/m -1,1 C -0,3 C 3,2 km/h (1 Bft) 100,00 %
28.11.2016 03:36 -0,3 C 94 % 1019,8 hPa 0,0 l/m 0,6 km/h (0 Bft) W 269 0 min 0,000 mm 0,0 UV-I 0 W/m -1,1 C -0,3 C 1,6 km/h (1 Bft) 100,00 %
28.11.2016 03:38 -0,4 C 94 % 1019,8 hPa 0,0 l/m 0,0 km/h (0 Bft) W 269 0 min 0,000 mm 0,0 UV-I 0 W/m -1,2 C -0,4 C 0,0 km/h (0 Bft) 97,37 %
28.11.2016 03:40 -0,4 C 94 % 1019,8 hPa 0,0 l/m 0,0 km/h (0 Bft) W 269 0 min 0,000 mm 0,0 UV-I 0 W/m -1,2 C -0,4 C 0,0 km/h (0 Bft) 95,74 %
28.11.2016 03:42 -0,4 C 94 % 1019,8 hPa 0,0 l/m 1,4 km/h (1 Bft) W 269 0 min 0,000 mm 0,0 UV-I 0 W/m -1,2 C -0,4 C 3,2 km/h (1 Bft) 98,00 %
28.11.2016 03:44 -0,4 C 94 % 1019,9 hPa 0,0 l/m 1,8 km/h (1 Bft) W 267 0 min 0,000 mm 0,0 UV-I 0 W/m -1,2 C -0,4 C 4,8 km/h (1 Bft) 93,62 %
28.11.2016 03:46 -0,4 C 94 % 1019,9 hPa 0,0 l/m 0,3 km/h (0 Bft) W 267 0 min 0,000 mm 0,0 UV-I 0 W/m -1,2 C -0,4 C 1,6 km/h (1 Bft) 96,23 %
28.11.2016 03:48 -0,4 C 94 % 1019,9 hPa 0,0 l/m 0,0 km/h (0 Bft) W 267 0 min 0,000 mm 0,0 UV-I 0 W/m -1,2 C -0,4 C 0,0 km/h (0 Bft) 94,87 %
28.11.2016 03:50 -0,4 C 94 % 1019,9 hPa 0,0 l/m 1,8 km/h (1 Bft) W 267 0 min 0,000 mm 0,0 UV-I 0 W/m -1,2 C -0,4 C 3,2 km/h (1 Bft) 97,87 %
28.11.2016 03:52 -0,4 C 94 % 1019,9 hPa 0,0 l/m 2,0 km/h (1 Bft) W 267 0 min 0,000 mm 0,0 UV-I 0 W/m -1,2 C -0,4 C 3,2 km/h (1 Bft) 98,00 %
28.11.2016 03:54 -0,4 C 94 % 1019,9 hPa 0,0 l/m 1,8 km/h (1 Bft) W 267 0 min 0,000 mm 0,0 UV-I 0 W/m -1,2 C -0,4 C 3,2 km/h (1 Bft) 96,00 %
28.11.2016 03:56 -0,4 C 94 % 1019,9 hPa 0,0 l/m 0,7 km/h (0 Bft) W 267 0 min 0,000 mm 0,0 UV-I 0 W/m -1,2 C -0,4 C 1,6 km/h (1 Bft) 97,37 %
28.11.2016 03:58 -0,5 C 94 % 1019,9 hPa 0,0 l/m 0,2 km/h (0 Bft) W 267 0 min 0,000 mm 0,0 UV-I 0 W/m -1,3 C -0,5 C 1,6 km/h (1 Bft) 95,74 %
28.11.2016 04:00 -0,6 C 94 % 1019,9 hPa 0,0 l/m 1,2 km/h (1 Bft) W 267 0 min 0,000 mm 0,0 UV-I 0 W/m -1,4 C -0,6 C 3,2 km/h (1 Bft) 94,64 %
28.11.2016 04:02 -0,6 C 94 % 1020,0 hPa 0,0 l/m 2,0 km/h (1 Bft) W 269 0 min 0,000 mm 0,0 UV-I 0 W/m -1,4 C -0,6 C 4,8 km/h (1 Bft) 84,62 %
28.11.2016 04:04 -0,6 C 94 % 1020,0 hPa 0,0 l/m 2,8 km/h (1 Bft) W 269 0 min 0,000 mm 0,0 UV-I 0 W/m -1,4 C -0,6 C 3,2 km/h (1 Bft) 96,00 %
28.11.2016 04:06 -0,6 C 94 % 1020,0 hPa 0,0 l/m 3,0 km/h (1 Bft) W 269 0 min 0,000 mm 0,0 UV-I 0 W/m -1,4 C -0,6 C 4,8 km/h (1 Bft) 97,87 %
28.11.2016 04:08 -0,6 C 94 % 1020,0 hPa 0,0 l/m 3,1 km/h (1 Bft) W 269 0 min 0,000 mm 0,0 UV-I 0 W/m -1,4 C -0,6 C 4,8 km/h (1 Bft) 97,87 %
28.11.2016 04:10 -0,6 C 94 % 1020,0 hPa 0,0 l/m 3,4 km/h (1 Bft) W 269 0 min 0,000 mm 0,0 UV-I 0 W/m -1,4 C -0,6 C 4,8 km/h (1 Bft) 100,00 %
28.11.2016 04:12 -0,6 C 94 % 1020,0 hPa 0,0 l/m 2,9 km/h (1 Bft) W 269 0 min 0,000 mm 0,0 UV-I 0 W/m -1,4 C -0,6 C 4,8 km/h (1 Bft) 100,00 %
28.11.2016 04:14 -0,7 C 94 % 1020,0 hPa 0,0 l/m 3,0 km/h (1 Bft) W 269 0 min 0,000 mm 0,0 UV-I 0 W/m -1,5 C -0,7 C 4,8 km/h (1 Bft) 100,00 %
28.11.2016 04:16 -0,7 C 94 % 1020,0 hPa 0,0 l/m 1,6 km/h (1 Bft) W 269 0 min 0,000 mm 0,0 UV-I 0 W/m -1,5 C -0,7 C 3,2 km/h (1 Bft) 98,11 %
28.11.2016 04:18 -0,8 C 94 % 1020,0 hPa 0,0 l/m 0,3 km/h (0 Bft) W 269 0 min 0,000 mm 0,0 UV-I 0 W/m -1,6 C -0,8 C 1,6 km/h (1 Bft) 98,00 %
28.11.2016 04:20 -0,8 C 94 % 1020,0 hPa 0,0 l/m 0,0 km/h (0 Bft) W 269 0 min 0,000 mm 0,0 UV-I 0 W/m -1,6 C -0,8 C 0,0 km/h (0 Bft) 100,00 %
28.11.2016 04:22 -0,8 C 94 % 1020,0 hPa 0,0 l/m 0,0 km/h (0 Bft) W 269 0 min 0,000 mm 0,0 UV-I 0 W/m -1,6 C -0,8 C 0,0 km/h (0 Bft) 100,00 %
28.11.2016 04:24 -0,9 C 94 % 1020,0 hPa 0,0 l/m 0,3 km/h (0 Bft) W 269 0 min 0,000 mm 0,0 UV-I 0 W/m -1,7 C -0,9 C 1,6 km/h (1 Bft) 100,00 %
28.11.2016 04:26 -0,9 C 94 % 1020,0 hPa 0,0 l/m 0,9 km/h (0 Bft) W 269 0 min 0,000 mm 0,0 UV-I 0 W/m -1,7 C -0,9 C 3,2 km/h (1 Bft) 100,00 %
28.11.2016 04:28 -0,9 C 94 % 1020,0 hPa 0,0 l/m 2,1 km/h (1 Bft) W 269 0 min 0,000 mm 0,0 UV-I 0 W/m -1,7 C -0,9 C 3,2 km/h (1 Bft) 100,00 %
28.11.2016 04:30 -0,9 C 94 % 1020,1 hPa 0,0 l/m 2,2 km/h (1 Bft) W 269 0 min 0,000 mm 0,0 UV-I 0 W/m -1,7 C -0,9 C 3,2 km/h (1 Bft) 100,00 %
28.11.2016 04:32 -0,9 C 94 % 1020,1 hPa 0,0 l/m 0,7 km/h (0 Bft) W 269 0 min 0,000 mm 0,0 UV-I 0 W/m -1,7 C -0,9 C 3,2 km/h (1 Bft) 100,00 %
28.11.2016 04:34 -0,9 C 94 % 1020,1 hPa 0,0 l/m 0,6 km/h (0 Bft) W 269 0 min 0,000 mm 0,0 UV-I 0 W/m -1,7 C -0,9 C 3,2 km/h (1 Bft) 98,00 %
28.11.2016 04:36 -1,0 C 95 % 1020,2 hPa 0,0 l/m 0,3 km/h (0 Bft) W 269 0 min 0,000 mm 0,0 UV-I 0 W/m -1,7 C -1,0 C 1,6 km/h (1 Bft) 98,00 %
28.11.2016 04:38 -1,1 C 95 % 1020,2 hPa 0,0 l/m 1,1 km/h (1 Bft) W 269 0 min 0,000 mm 0,0 UV-I 0 W/m -1,8 C -1,1 C 3,2 km/h (1 Bft) 100,00 %
28.11.2016 04:40 -1,1 C 95 % 1020,2 hPa 0,0 l/m 1,0 km/h (0 Bft) W 269 0 min 0,000 mm 0,0 UV-I 0 W/m -1,8 C -1,1 C 1,6 km/h (1 Bft) 97,37 %
28.11.2016 04:42 -1,1 C 95 % 1020,2 hPa 0,0 l/m 1,4 km/h (1 Bft) W 269 0 min 0,000 mm 0,0 UV-I 0 W/m -1,8 C -1,1 C 3,2 km/h (1 Bft) 100,00 %
28.11.2016 04:44 -1,1 C 95 % 1020,1 hPa 0,0 l/m 1,1 km/h (1 Bft) W 269 0 min 0,000 mm 0,0 UV-I 0 W/m -1,8 C -1,1 C 3,2 km/h (1 Bft) 100,00 %
28.11.2016 04:46 -1,1 C 95 % 1020,2 hPa 0,0 l/m 0,9 km/h (0 Bft) W 269 0 min 0,000 mm 0,0 UV-I 0 W/m -1,8 C -1,1 C 1,6 km/h (1 Bft) 100,00 %
28.11.2016 04:48 -1,1 C 95 % 1020,3 hPa 0,0 l/m 0,6 km/h (0 Bft) W 269 0 min 0,000 mm 0,0 UV-I 0 W/m -1,8 C -1,1 C 1,6 km/h (1 Bft) 98,11 %
28.11.2016 04:50 -1,1 C 95 % 1020,2 hPa 0,0 l/m 1,9 km/h (1 Bft) W 269 0 min 0,000 mm 0,0 UV-I 0 W/m -1,8 C -1,1 C 4,8 km/h (1 Bft) 98,00 %
28.11.2016 04:52 -1,1 C 95 % 1020,3 hPa 0,0 l/m 2,5 km/h (1 Bft) W 269 0 min 0,000 mm 0,0 UV-I 0 W/m -1,8 C -1,1 C 6,4 km/h (2 Bft) 100,00 %
28.11.2016 04:54 -1,1 C 95 % 1020,2 hPa 0,0 l/m 2,0 km/h (1 Bft) W 269 0 min 0,000 mm 0,0 UV-I 0 W/m -1,8 C -1,1 C 3,2 km/h (1 Bft) 100,00 %
28.11.2016 04:56 -1,1 C 95 % 1020,3 hPa 0,0 l/m 2,5 km/h (1 Bft) W 269 0 min 0,000 mm 0,0 UV-I 0 W/m -1,8 C -1,1 C 3,2 km/h (1 Bft) 100,00 %
28.11.2016 04:58 -1,1 C 95 % 1020,3 hPa 0,0 l/m 2,9 km/h (1 Bft) W 269 0 min 0,000 mm 0,0 UV-I 0 W/m -1,8 C -1,1 C 4,8 km/h (1 Bft) 100,00 %
28.11.2016 05:00 -1,2 C 95 % 1020,3 hPa 0,0 l/m 2,8 km/h (1 Bft) W 269 0 min 0,000 mm 0,0 UV-I 0 W/m -1,9 C -1,2 C 4,8 km/h (1 Bft) 100,00 %
28.11.2016 05:02 -1,2 C 95 % 1020,3 hPa 0,0 l/m 2,0 km/h (1 Bft) W 269 0 min 0,000 mm 0,0 UV-I 0 W/m -1,9 C -1,2 C 4,8 km/h (1 Bft) 100,00 %
28.11.2016 05:04 -1,2 C 95 % 1020,2 hPa 0,0 l/m 1,8 km/h (1 Bft) W 269 0 min 0,000 mm 0,0 UV-I 0 W/m -1,9 C -1,2 C 3,2 km/h (1 Bft) 93,62 %
28.11.2016 05:06 -1,2 C 95 % 1020,3 hPa 0,0 l/m 3,0 km/h (1 Bft) W 269 0 min 0,000 mm 0,0 UV-I 0 W/m -1,9 C -1,2 C 4,8 km/h (1 Bft) 100,00 %
28.11.2016 05:08 -1,2 C 95 % 1020,3 hPa 0,0 l/m 1,3 km/h (1 Bft) W 269 0 min 0,000 mm 0,0 UV-I 0 W/m -1,9 C -1,2 C 3,2 km/h (1 Bft) 100,00 %
28.11.2016 05:10 -1,2 C 95 % 1020,3 hPa 0,0 l/m 1,5 km/h (1 Bft) W 269 0 min 0,000 mm 0,0 UV-I 0 W/m -1,9 C -1,2 C 3,2 km/h (1 Bft) 97,14 %
28.11.2016 05:12 -1,2 C 95 % 1020,4 hPa 0,0 l/m 1,4 km/h (1 Bft) W 269 0 min 0,000 mm 0,0 UV-I 0 W/m -1,9 C -1,2 C 3,2 km/h (1 Bft) 100,00 %
28.11.2016 05:14 -1,2 C 95 % 1020,4 hPa 0,0 l/m 1,1 km/h (1 Bft) W 269 0 min 0,000 mm 0,0 UV-I 0 W/m -1,9 C -1,2 C 3,2 km/h (1 Bft) 100,00 %
28.11.2016 05:16 -1,2 C 95 % 1020,4 hPa 0,0 l/m 2,5 km/h (1 Bft) W 269 0 min 0,000 mm 0,0 UV-I 0 W/m -1,9 C -1,2 C 4,8 km/h (1 Bft) 97,37 %
28.11.2016 05:18 -1,2 C 95 % 1020,4 hPa 0,0 l/m 3,0 km/h (1 Bft) W 269 0 min 0,000 mm 0,0 UV-I 0 W/m -1,9 C -1,2 C 4,8 km/h (1 Bft) 100,00 %
28.11.2016 05:20 -1,2 C 95 % 1020,4 hPa 0,0 l/m 2,8 km/h (1 Bft) W-SW 253 0 min 0,000 mm 0,0 UV-I 0 W/m -1,9 C -1,2 C 4,8 km/h (1 Bft) 100,00 %
28.11.2016 05:22 -1,2 C 95 % 1020,5 hPa 0,0 l/m 2,8 km/h (1 Bft) W-SW 252 0 min 0,000 mm 0,0 UV-I 0 W/m -1,9 C -1,2 C 4,8 km/h (1 Bft) 100,00 %
28.11.2016 05:24 -1,1 C 95 % 1020,5 hPa 0,0 l/m 2,1 km/h (1 Bft) W-SW 252 0 min 0,000 mm 0,0 UV-I 0 W/m -1,8 C -1,1 C 3,2 km/h (1 Bft) 100,00 %
28.11.2016 05:26 -1,1 C 95 % 1020,4 hPa 0,0 l/m 1,8 km/h (1 Bft) W-SW 252 0 min 0,000 mm 0,0 UV-I 0 W/m -1,8 C -1,1 C 3,2 km/h (1 Bft) 100,00 %
28.11.2016 05:28 -1,1 C 95 % 1020,4 hPa 0,0 l/m 2,0 km/h (1 Bft) W-SW 252 0 min 0,000 mm 0,0 UV-I 0 W/m -1,8 C -1,1 C 4,8 km/h (1 Bft) 100,00 %
28.11.2016 05:30 -1,1 C 95 % 1020,4 hPa 0,0 l/m 2,9 km/h (1 Bft) W-SW 252 0 min 0,000 mm 0,0 UV-I 0 W/m -1,8 C -1,1 C 4,8 km/h (1 Bft) 98,00 %
28.11.2016 05:32 -1,1 C 95 % 1020,5 hPa 0,0 l/m 3,4 km/h (1 Bft) W-SW 252 0 min 0,000 mm 0,0 UV-I 0 W/m -1,8 C -1,1 C 6,4 km/h (2 Bft) 100,00 %
28.11.2016 05:34 -1,1 C 95 % 1020,5 hPa 0,0 l/m 3,2 km/h (1 Bft) W-SW 250 0 min 0,000 mm 0,0 UV-I 0 W/m -1,8 C -1,1 C 4,8 km/h (1 Bft) 97,87 %
28.11.2016 05:36 -1,1 C 95 % 1020,5 hPa 0,0 l/m 4,0 km/h (1 Bft) W-SW 244 0 min 0,000 mm 0,0 UV-I 0 W/m -1,8 C -1,1 C 6,4 km/h (2 Bft) 97,87 %
28.11.2016 05:38 -1,1 C 95 % 1020,6 hPa 0,0 l/m 4,1 km/h (1 Bft) W-SW 240 0 min 0,000 mm 0,0 UV-I 0 W/m -1,8 C -1,1 C 6,4 km/h (2 Bft) 100,00 %
28.11.2016 05:40 -1,1 C 95 % 1020,6 hPa 0,0 l/m 3,7 km/h (1 Bft) W-SW 240 0 min 0,000 mm 0,0 UV-I 0 W/m -1,8 C -1,1 C 4,8 km/h (1 Bft) 100,00 %
28.11.2016 05:42 -1,2 C 95 % 1020,6 hPa 0,0 l/m 2,6 km/h (1 Bft) W-SW 240 0 min 0,000 mm 0,0 UV-I 0 W/m -1,9 C -1,2 C 3,2 km/h (1 Bft) 100,00 %
28.11.2016 05:44 -1,2 C 95 % 1020,6 hPa 0,0 l/m 1,7 km/h (1 Bft) W-SW 240 0 min 0,000 mm 0,0 UV-I 0 W/m -1,9 C -1,2 C 3,2 km/h (1 Bft) 96,00 %
28.11.2016 05:46 -1,2 C 95 % 1020,7 hPa 0,0 l/m 1,4 km/h (1 Bft) W-SW 240 0 min 0,000 mm 0,0 UV-I 0 W/m -1,9 C -1,2 C 1,6 km/h (1 Bft) 100,00 %
28.11.2016 05:48 -1,2 C 95 % 1020,7 hPa 0,0 l/m 1,7 km/h (1 Bft) W-SW 240 0 min 0,000 mm 0,0 UV-I 0 W/m -1,9 C -1,2 C 3,2 km/h (1 Bft) 96,00 %
28.11.2016 05:50 -1,2 C 95 % 1020,7 hPa 0,0 l/m 1,1 km/h (1 Bft) W-SW 240 0 min 0,000 mm 0,0 UV-I 0 W/m -1,9 C -1,2 C 3,2 km/h (1 Bft) 95,74 %
28.11.2016 05:52 -1,2 C 95 % 1020,7 hPa 0,0 l/m 0,7 km/h (0 Bft) W-SW 240 0 min 0,000 mm 0,0 UV-I 0 W/m -1,9 C -1,2 C 1,6 km/h (1 Bft) 97,87 %
28.11.2016 05:54 -1,2 C 95 % 1020,7 hPa 0,0 l/m 1,0 km/h (0 Bft) W-SW 240 0 min 0,000 mm 0,0 UV-I 0 W/m -1,9 C -1,2 C 3,2 km/h (1 Bft) 98,00 %
28.11.2016 05:56 -1,2 C 95 % 1020,7 hPa 0,0 l/m 1,1 km/h (1 Bft) W-SW 240 0 min 0,000 mm 0,0 UV-I 0 W/m -1,9 C -1,2 C 4,8 km/h (1 Bft) 98,00 %
28.11.2016 05:58 -1,3 C 95 % 1020,8 hPa 0,0 l/m 0,8 km/h (0 Bft) W-SW 240 0 min 0,000 mm 0,0 UV-I 0 W/m -2,0 C -1,3 C 1,6 km/h (1 Bft) 98,00 %
28.11.2016 06:00 -1,3 C 96 % 1020,8 hPa 0,0 l/m 0,7 km/h (0 Bft) W-SW 240 0 min 0,000 mm 0,0 UV-I 0 W/m -1,9 C -1,3 C 1,6 km/h (1 Bft) 93,75 %
28.11.2016 06:02 -1,3 C 96 % 1020,8 hPa 0,0 l/m 0,3 km/h (0 Bft) W-SW 240 0 min 0,000 mm 0,0 UV-I 0 W/m -1,9 C -1,3 C 1,6 km/h (1 Bft) 96,77 %
28.11.2016 06:04 -1,3 C 95 % 1020,8 hPa 0,0 l/m 0,1 km/h (0 Bft) W-SW 240 0 min 0,000 mm 0,0 UV-I 0 W/m -2,0 C -1,3 C 1,6 km/h (1 Bft) 97,37 %
28.11.2016 06:06 -1,4 C 95 % 1020,8 hPa 0,0 l/m 2,6 km/h (1 Bft) S-SW 210 0 min 0,000 mm 0,0 UV-I 0 W/m -2,1 C -1,4 C 4,8 km/h (1 Bft) 97,87 %
28.11.2016 06:08 -1,3 C 96 % 1020,8 hPa 0,0 l/m 3,3 km/h (1 Bft) S 191 0 min 0,000 mm 0,0 UV-I 0 W/m -1,9 C -1,3 C 6,4 km/h (2 Bft) 98,00 %
28.11.2016 06:10 -1,3 C 96 % 1020,8 hPa 0,0 l/m 1,8 km/h (1 Bft) S 191 0 min 0,000 mm 0,0 UV-I 0 W/m -1,9 C -1,3 C 3,2 km/h (1 Bft) 94,00 %
28.11.2016 06:12 -1,3 C 96 % 1020,8 hPa 0,0 l/m 3,4 km/h (1 Bft) S-SW 202 0 min 0,000 mm 0,0 UV-I 0 W/m -1,9 C -1,3 C 6,4 km/h (2 Bft) 97,87 %
28.11.2016 06:14 -1,4 C 96 % 1020,9 hPa 0,0 l/m 3,1 km/h (1 Bft) S-SW 202 0 min 0,000 mm 0,0 UV-I 0 W/m -2,0 C -1,4 C 4,8 km/h (1 Bft) 97,37 %
28.11.2016 06:16 -1,4 C 96 % 1020,9 hPa 0,0 l/m 2,5 km/h (1 Bft) S-SW 202 0 min 0,000 mm 0,0 UV-I 0 W/m -2,0 C -1,4 C 4,8 km/h (1 Bft) 96,23 %
28.11.2016 06:18 -1,4 C 96 % 1020,9 hPa 0,0 l/m 2,2 km/h (1 Bft) S-SW 202 0 min 0,000 mm 0,0 UV-I 0 W/m -2,0 C -1,4 C 4,8 km/h (1 Bft) 92,68 %
28.11.2016 06:20 -1,6 C 96 % 1020,9 hPa 0,0 l/m 0,0 km/h (0 Bft) S-SW 202 0 min 0,000 mm 0,0 UV-I 0 W/m -2,2 C -1,6 C 0,0 km/h (0 Bft) 97,87 %
28.11.2016 06:22 -1,6 C 96 % 1021,0 hPa 0,0 l/m 0,4 km/h (0 Bft) S-SW 202 0 min 0,000 mm 0,0 UV-I 0 W/m -2,2 C -1,6 C 3,2 km/h (1 Bft) 96,00 %
28.11.2016 06:24 -1,6 C 96 % 1021,0 hPa 0,0 l/m 2,6 km/h (1 Bft) S-SW 202 0 min 0,000 mm 0,0 UV-I 0 W/m -2,2 C -1,6 C 4,8 km/h (1 Bft) 100,00 %
28.11.2016 06:26 -1,6 C 96 % 1021,1 hPa 0,0 l/m 0,8 km/h (0 Bft) S-SW 202 0 min 0,000 mm 0,0 UV-I 0 W/m -2,2 C -1,6 C 3,2 km/h (1 Bft) 97,87 %
28.11.2016 06:28 -1,6 C 96 % 1021,0 hPa 0,0 l/m 0,8 km/h (0 Bft) S-SW 202 0 min 0,000 mm 0,0 UV-I 0 W/m -2,2 C -1,6 C 1,6 km/h (1 Bft) 97,44 %
28.11.2016 06:30 -1,6 C 96 % 1021,1 hPa 0,0 l/m 0,9 km/h (0 Bft) S-SW 202 0 min 0,000 mm 0,0 UV-I 0 W/m -2,2 C -1,6 C 3,2 km/h (1 Bft) 94,34 %
28.11.2016 06:32 -1,6 C 96 % 1021,1 hPa 0,0 l/m 0,7 km/h (0 Bft) S-SW 202 0 min 0,000 mm 0,0 UV-I 0 W/m -2,2 C -1,6 C 1,6 km/h (1 Bft) 100,00 %
28.11.2016 06:34 -1,6 C 96 % 1021,1 hPa 0,0 l/m 1,9 km/h (1 Bft) S-SW 202 0 min 0,000 mm 0,0 UV-I 0 W/m -2,2 C -1,6 C 3,2 km/h (1 Bft) 100,00 %
28.11.2016 06:36 -1,6 C 96 % 1021,1 hPa 0,0 l/m 0,9 km/h (0 Bft) S-SW 202 0 min 0,000 mm 0,0 UV-I 0 W/m -2,2 C -1,6 C 3,2 km/h (1 Bft) 100,00 %
28.11.2016 06:38 -1,6 C 96 % 1021,1 hPa 0,0 l/m 2,4 km/h (1 Bft) S-SW 202 0 min 0,000 mm 0,0 UV-I 0 W/m -2,2 C -1,6 C 4,8 km/h (1 Bft) 100,00 %
28.11.2016 06:40 -1,6 C 96 % 1021,1 hPa 0,0 l/m 3,9 km/h (1 Bft) S-SW 202 0 min 0,000 mm 0,0 UV-I 0 W/m -2,2 C -1,6 C 6,4 km/h (2 Bft) 100,00 %
28.11.2016 06:42 -1,6 C 96 % 1021,2 hPa 0,0 l/m 3,3 km/h (1 Bft) S-SW 202 0 min 0,000 mm 0,0 UV-I 0 W/m -2,2 C -1,6 C 4,8 km/h (1 Bft) 98,11 %
28.11.2016 06:44 -1,7 C 96 % 1021,1 hPa 0,0 l/m 4,0 km/h (1 Bft) S-SW 202 0 min 0,000 mm 0,0 UV-I 0 W/m -2,3 C -1,7 C 6,4 km/h (2 Bft) 94,29 %
28.11.2016 06:46 -1,7 C 96 % 1021,1 hPa 0,0 l/m 2,8 km/h (1 Bft) S-SW 203 0 min 0,000 mm 0,0 UV-I 0 W/m -2,3 C -1,7 C 4,8 km/h (1 Bft) 98,00 %
28.11.2016 06:48 -1,7 C 96 % 1021,2 hPa 0,0 l/m 1,2 km/h (1 Bft) S-SW 203 0 min 0,000 mm 0,0 UV-I 0 W/m -2,3 C -1,7 C 3,2 km/h (1 Bft) 100,00 %
28.11.2016 06:50 -1,7 C 96 % 1021,1 hPa 0,0 l/m 2,3 km/h (1 Bft) S-SW 203 0 min 0,000 mm 0,0 UV-I 0 W/m -2,3 C -1,7 C 4,8 km/h (1 Bft) 100,00 %
28.11.2016 06:52 -1,7 C 96 % 1021,2 hPa 0,0 l/m 3,1 km/h (1 Bft) S-SW 204 0 min 0,000 mm 0,0 UV-I 0 W/m -2,3 C -1,7 C 4,8 km/h (1 Bft) 100,00 %
28.11.2016 06:54 -1,7 C 96 % 1021,2 hPa 0,0 l/m 4,5 km/h (1 Bft) SW 236 0 min 0,000 mm 0,0 UV-I 0 W/m -2,3 C -1,7 C 6,4 km/h (2 Bft) 100,00 %
28.11.2016 06:56 -1,7 C 96 % 1021,3 hPa 0,0 l/m 4,5 km/h (1 Bft) SW 233 0 min 0,000 mm 0,0 UV-I 0 W/m -2,3 C -1,7 C 6,4 km/h (2 Bft) 98,00 %
28.11.2016 06:58 -1,7 C 96 % 1021,4 hPa 0,0 l/m 3,9 km/h (1 Bft) W-SW 243 0 min 0,000 mm 0,0 UV-I 0 W/m -2,3 C -1,7 C 6,4 km/h (2 Bft) 98,11 %
28.11.2016 07:00 -1,7 C 96 % 1021,3 hPa 0,0 l/m 4,6 km/h (1 Bft) W 259 0 min 0,000 mm 0,0 UV-I 0 W/m -2,3 C -1,7 C 9,7 km/h (2 Bft) 100,00 %
28.11.2016 07:02 -1,6 C 96 % 1021,4 hPa 0,0 l/m 5,3 km/h (1 Bft) W 261 0 min 0,000 mm 0,0 UV-I 0 W/m -2,2 C -1,6 C 9,7 km/h (2 Bft) 100,00 %
28.11.2016 07:04 -1,5 C 96 % 1021,4 hPa 0,0 l/m 3,8 km/h (1 Bft) W 261 0 min 0,000 mm 0,0 UV-I 0 W/m -2,1 C -1,5 C 6,4 km/h (2 Bft) 94,87 %
28.11.2016 07:06 -1,5 C 96 % 1021,4 hPa 0,0 l/m 4,2 km/h (1 Bft) W 271 0 min 0,000 mm 0,0 UV-I 0 W/m -2,1 C -1,5 C 6,4 km/h (2 Bft) 100,00 %
28.11.2016 07:08 -1,4 C 96 % 1021,5 hPa 0,0 l/m 3,1 km/h (1 Bft) W 273 0 min 0,000 mm 0,0 UV-I 0 W/m -2,0 C -1,4 C 4,8 km/h (1 Bft) 100,00 %
28.11.2016 07:10 -1,4 C 96 % 1021,6 hPa 0,0 l/m 1,8 km/h (1 Bft) W 273 0 min 0,000 mm 0,0 UV-I 0 W/m -2,0 C -1,4 C 3,2 km/h (1 Bft) 100,00 %
28.11.2016 07:12 -1,5 C 96 % 1021,7 hPa 0,0 l/m 1,5 km/h (1 Bft) W 273 0 min 0,000 mm 0,0 UV-I 0 W/m -2,1 C -1,5 C 1,6 km/h (1 Bft) 97,37 %
28.11.2016 07:14 -1,6 C 96 % 1021,7 hPa 0,0 l/m 1,0 km/h (0 Bft) W 273 0 min 0,000 mm 0,0 UV-I 2 W/m -2,2 C -1,6 C 1,6 km/h (1 Bft) 100,00 %
28.11.2016 07:16 -1,7 C 96 % 1021,7 hPa 0,0 l/m 0,8 km/h (0 Bft) W 273 0 min 0,000 mm 0,0 UV-I 5 W/m -2,3 C -1,7 C 3,2 km/h (1 Bft) 100,00 %
28.11.2016 07:18 -1,7 C 96 % 1021,8 hPa 0,0 l/m 0,2 km/h (0 Bft) W 273 0 min 0,000 mm 0,0 UV-I 5 W/m -2,3 C -1,7 C 1,6 km/h (1 Bft) 100,00 %
28.11.2016 07:20 -1,8 C 96 % 1021,8 hPa 0,0 l/m 0,8 km/h (0 Bft) W 273 0 min 0,000 mm 0,0 UV-I 5 W/m -2,4 C -1,8 C 1,6 km/h (1 Bft) 97,37 %
28.11.2016 07:22 -1,8 C 96 % 1021,8 hPa 0,0 l/m 2,1 km/h (1 Bft) W 273 0 min 0,000 mm 0,0 UV-I 5 W/m -2,4 C -1,8 C 3,2 km/h (1 Bft) 100,00 %
28.11.2016 07:24 -1,8 C 96 % 1021,8 hPa 0,0 l/m 2,2 km/h (1 Bft) W 273 0 min 0,000 mm 0,0 UV-I 6 W/m -2,4 C -1,8 C 3,2 km/h (1 Bft) 100,00 %
28.11.2016 07:26 -1,8 C 96 % 1021,8 hPa 0,0 l/m 3,1 km/h (1 Bft) W 273 0 min 0,000 mm 0,0 UV-I 7 W/m -2,4 C -1,8 C 3,2 km/h (1 Bft) 97,56 %
28.11.2016 07:28 -1,8 C 96 % 1021,9 hPa 0,0 l/m 3,1 km/h (1 Bft) W 273 0 min 0,000 mm 0,0 UV-I 7 W/m -2,4 C -1,8 C 4,8 km/h (1 Bft) 100,00 %
28.11.2016 07:30 -1,8 C 96 % 1021,9 hPa 0,0 l/m 2,9 km/h (1 Bft) W 273 0 min 0,000 mm 0,0 UV-I 8 W/m -2,4 C -1,8 C 4,8 km/h (1 Bft) 100,00 %
28.11.2016 07:32 -1,8 C 96 % 1022,0 hPa 0,0 l/m 2,7 km/h (1 Bft) W 273 0 min 0,000 mm 0,0 UV-I 9 W/m -2,4 C -1,8 C 4,8 km/h (1 Bft) 100,00 %
28.11.2016 07:34 -1,8 C 96 % 1022,0 hPa 0,0 l/m 1,7 km/h (1 Bft) W 273 0 min 0,000 mm 0,0 UV-I 9 W/m -2,4 C -1,8 C 4,8 km/h (1 Bft) 100,00 %
28.11.2016 07:36 -1,8 C 96 % 1022,0 hPa 0,0 l/m 1,4 km/h (1 Bft) W 273 0 min 0,000 mm 0,0 UV-I 10 W/m -2,4 C -1,8 C 3,2 km/h (1 Bft) 97,37 %
28.11.2016 07:38 -1,8 C 96 % 1022,1 hPa 0,0 l/m 2,9 km/h (1 Bft) W 273 0 min 0,000 mm 0,0 UV-I 11 W/m -2,4 C -1,8 C 3,2 km/h (1 Bft) 96,00 %
28.11.2016 07:40 -1,8 C 96 % 1022,1 hPa 0,0 l/m 2,9 km/h (1 Bft) W 273 0 min 0,000 mm 0,0 UV-I 11 W/m -2,4 C -1,8 C 4,8 km/h (1 Bft) 93,62 %
28.11.2016 07:42 -1,7 C 96 % 1022,1 hPa 0,0 l/m 2,9 km/h (1 Bft) W 273 2 min 0,000 mm 0,0 UV-I 11 W/m -2,3 C -1,7 C 4,8 km/h (1 Bft) 100,00 %
28.11.2016 07:44 -1,7 C 96 % 1022,2 hPa 0,0 l/m 3,8 km/h (1 Bft) W 272 2 min 0,000 mm 0,0 UV-I 12 W/m -2,3 C -1,7 C 6,4 km/h (2 Bft) 100,00 %
28.11.2016 07:46 -1,7 C 96 % 1022,1 hPa 0,0 l/m 2,6 km/h (1 Bft) W 272 0 min 0,000 mm 0,0 UV-I 12 W/m -2,3 C -1,7 C 4,8 km/h (1 Bft) 98,11 %
28.11.2016 07:48 -1,6 C 96 % 1022,1 hPa 0,0 l/m 3,7 km/h (1 Bft) W 271 0 min 0,000 mm 0,0 UV-I 15 W/m -2,2 C -1,6 C 4,8 km/h (1 Bft) 97,87 %
28.11.2016 07:50 -1,6 C 97 % 1022,2 hPa 0,0 l/m 2,2 km/h (1 Bft) W 271 0 min 0,000 mm 0,0 UV-I 17 W/m -2,0 C -1,6 C 3,2 km/h (1 Bft) 95,74 %
28.11.2016 07:52 -1,5 C 96 % 1022,2 hPa 0,0 l/m 2,3 km/h (1 Bft) W 280 0 min 0,000 mm 0,0 UV-I 19 W/m -2,1 C -1,5 C 4,8 km/h (1 Bft) 100,00 %
28.11.2016 07:54 -1,5 C 96 % 1022,3 hPa 0,0 l/m 3,7 km/h (1 Bft) W-NW 292 0 min 0,000 mm 0,0 UV-I 19 W/m -2,1 C -1,5 C 9,7 km/h (2 Bft) 100,00 %
28.11.2016 07:56 -1,4 C 96 % 1022,3 hPa 0,0 l/m 2,1 km/h (1 Bft) W-NW 292 0 min 0,000 mm 0,0 UV-I 20 W/m -2,0 C -1,4 C 4,8 km/h (1 Bft) 95,12 %
28.11.2016 07:58 -1,4 C 96 % 1022,4 hPa 0,0 l/m 1,4 km/h (1 Bft) W-NW 293 0 min 0,000 mm 0,0 UV-I 25 W/m -2,0 C -1,4 C 3,2 km/h (1 Bft) 100,00 %
28.11.2016 08:00 -1,4 C 96 % 1022,4 hPa 0,0 l/m 1,8 km/h (1 Bft) W-NW 291 0 min 0,000 mm 0,0 UV-I 20 W/m -2,0 C -1,4 C 3,2 km/h (1 Bft) 98,00 %
28.11.2016 08:02 -1,3 C 96 % 1022,4 hPa 0,0 l/m 2,8 km/h (1 Bft) W-NW 291 0 min 0,000 mm 0,0 UV-I 16 W/m -1,9 C -1,3 C 4,8 km/h (1 Bft) 97,37 %
28.11.2016 08:04 -1,3 C 96 % 1022,4 hPa 0,0 l/m 2,7 km/h (1 Bft) W-NW 291 0 min 0,000 mm 0,0 UV-I 16 W/m -1,9 C -1,3 C 3,2 km/h (1 Bft) 96,00 %
28.11.2016 08:06 -1,3 C 96 % 1022,5 hPa 0,0 l/m 2,2 km/h (1 Bft) W-NW 291 0 min 0,000 mm 0,0 UV-I 16 W/m -1,9 C -1,3 C 3,2 km/h (1 Bft) 98,00 %
28.11.2016 08:08 -1,3 C 96 % 1022,5 hPa 0,0 l/m 1,5 km/h (1 Bft) W-NW 291 0 min 0,000 mm 0,0 UV-I 18 W/m -1,9 C -1,3 C 3,2 km/h (1 Bft) 93,62 %
28.11.2016 08:10 -1,2 C 96 % 1022,6 hPa 0,0 l/m 2,3 km/h (1 Bft) W-NW 291 0 min 0,000 mm 0,0 UV-I 18 W/m -1,8 C -1,2 C 3,2 km/h (1 Bft) 97,87 %
28.11.2016 08:12 -1,2 C 96 % 1022,6 hPa 0,0 l/m 2,1 km/h (1 Bft) W-NW 291 0 min 0,000 mm 0,0 UV-I 18 W/m -1,8 C -1,2 C 3,2 km/h (1 Bft) 97,73 %
28.11.2016 08:14 -1,2 C 96 % 1022,6 hPa 0,0 l/m 2,8 km/h (1 Bft) W-NW 291 0 min 0,000 mm 0,0 UV-I 18 W/m -1,8 C -1,2 C 4,8 km/h (1 Bft) 97,14 %
28.11.2016 08:16 -1,2 C 96 % 1022,6 hPa 0,0 l/m 3,1 km/h (1 Bft) W-NW 288 0 min 0,000 mm 0,0 UV-I 18 W/m -1,8 C -1,2 C 4,8 km/h (1 Bft) 98,11 %
28.11.2016 08:18 -1,2 C 96 % 1022,7 hPa 0,0 l/m 2,5 km/h (1 Bft) W-NW 288 0 min 0,000 mm 0,0 UV-I 19 W/m -1,8 C -1,2 C 3,2 km/h (1 Bft) 97,62 %
28.11.2016 08:20 -1,2 C 96 % 1022,6 hPa 0,0 l/m 2,5 km/h (1 Bft) W-NW 288 0 min 0,000 mm 0,0 UV-I 19 W/m -1,8 C -1,2 C 4,8 km/h (1 Bft) 98,08 %
28.11.2016 08:22 -1,2 C 96 % 1022,6 hPa 0,0 l/m 2,5 km/h (1 Bft) W-NW 288 0 min 0,000 mm 0,0 UV-I 22 W/m -1,8 C -1,2 C 4,8 km/h (1 Bft) 96,00 %
28.11.2016 08:24 -1,2 C 96 % 1022,7 hPa 0,0 l/m 1,6 km/h (1 Bft) W-NW 288 0 min 0,000 mm 0,0 UV-I 25 W/m -1,8 C -1,2 C 4,8 km/h (1 Bft) 94,34 %
28.11.2016 08:26 -1,2 C 96 % 1022,7 hPa 0,0 l/m 2,0 km/h (1 Bft) W-NW 288 0 min 0,000 mm 0,0 UV-I 27 W/m -1,8 C -1,2 C 3,2 km/h (1 Bft) 97,44 %
28.11.2016 08:28 -1,2 C 96 % 1022,7 hPa 0,0 l/m 3,1 km/h (1 Bft) W-NW 287 0 min 0,000 mm 0,0 UV-I 28 W/m -1,8 C -1,2 C 4,8 km/h (1 Bft) 92,00 %
28.11.2016 08:30 -1,2 C 96 % 1022,8 hPa 0,0 l/m 2,5 km/h (1 Bft) W 269 0 min 0,000 mm 0,0 UV-I 27 W/m -1,8 C -1,2 C 4,8 km/h (1 Bft) 98,11 %
28.11.2016 08:32 -1,2 C 96 % 1022,8 hPa 0,0 l/m 3,5 km/h (1 Bft) W 269 0 min 0,000 mm 0,0 UV-I 26 W/m -1,8 C -1,2 C 6,4 km/h (2 Bft) 97,87 %
28.11.2016 08:34 -1,2 C 96 % 1022,8 hPa 0,0 l/m 3,0 km/h (1 Bft) W 269 0 min 0,000 mm 0,0 UV-I 26 W/m -1,8 C -1,2 C 4,8 km/h (1 Bft) 93,62 %
28.11.2016 08:36 -1,2 C 96 % 1022,9 hPa 0,0 l/m 1,4 km/h (1 Bft) W 269 0 min 0,000 mm 0,0 UV-I 26 W/m -1,8 C -1,2 C 3,2 km/h (1 Bft) 93,62 %
28.11.2016 08:38 -1,2 C 96 % 1022,9 hPa 0,0 l/m 1,3 km/h (1 Bft) W 269 0 min 0,000 mm 0,0 UV-I 27 W/m -1,8 C -1,2 C 3,2 km/h (1 Bft) 100,00 %
28.11.2016 08:40 -1,2 C 96 % 1023,0 hPa 0,0 l/m 1,3 km/h (1 Bft) W 269 0 min 0,000 mm 0,0 UV-I 32 W/m -1,8 C -1,2 C 3,2 km/h (1 Bft) 100,00 %
28.11.2016 08:42 -1,2 C 96 % 1023,0 hPa 0,0 l/m 2,5 km/h (1 Bft) W 269 0 min 0,000 mm 0,0 UV-I 28 W/m -1,8 C -1,2 C 4,8 km/h (1 Bft) 98,00 %
28.11.2016 08:44 -1,2 C 96 % 1023,0 hPa 0,0 l/m 2,1 km/h (1 Bft) W 269 0 min 0,000 mm 0,0 UV-I 28 W/m -1,8 C -1,2 C 3,2 km/h (1 Bft) 97,37 %
28.11.2016 08:46 -1,2 C 96 % 1023,0 hPa 0,0 l/m 1,2 km/h (1 Bft) W 259 0 min 0,000 mm 0,0 UV-I 28 W/m -1,8 C -1,2 C 4,8 km/h (1 Bft) 100,00 %
28.11.2016 08:48 -1,3 C 96 % 1023,0 hPa 0,0 l/m 2,2 km/h (1 Bft) W 259 0 min 0,000 mm 0,0 UV-I 28 W/m -1,9 C -1,3 C 3,2 km/h (1 Bft) 100,00 %
28.11.2016 08:50 -1,3 C 96 % 1023,0 hPa 0,0 l/m 1,4 km/h (1 Bft) W 259 0 min 0,000 mm 0,0 UV-I 28 W/m -1,9 C -1,3 C 3,2 km/h (1 Bft) 97,37 %
28.11.2016 08:52 -1,2 C 96 % 1023,1 hPa 0,0 l/m 2,1 km/h (1 Bft) W 259 0 min 0,000 mm 0,0 UV-I 28 W/m -1,8 C -1,2 C 4,8 km/h (1 Bft) 100,00 %
28.11.2016 08:54 -1,3 C 96 % 1023,1 hPa 0,0 l/m 1,3 km/h (1 Bft) W 259 0 min 0,000 mm 0,0 UV-I 28 W/m -1,9 C -1,3 C 3,2 km/h (1 Bft) 94,34 %
28.11.2016 08:56 -1,3 C 96 % 1023,1 hPa 0,0 l/m 1,0 km/h (0 Bft) W 259 0 min 0,000 mm 0,0 UV-I 30 W/m -1,9 C -1,3 C 1,6 km/h (1 Bft) 100,00 %
28.11.2016 08:58 -1,3 C 96 % 1023,1 hPa 0,0 l/m 0,4 km/h (0 Bft) W 259 0 min 0,000 mm 0,0 UV-I 30 W/m -1,9 C -1,3 C 1,6 km/h (1 Bft) 100,00 %
28.11.2016 09:00 -1,3 C 96 % 1023,1 hPa 0,0 l/m 1,9 km/h (1 Bft) W 259 0 min 0,000 mm 0,0 UV-I 32 W/m -1,9 C -1,3 C 4,8 km/h (1 Bft) 100,00 %
28.11.2016 09:02 -1,3 C 96 % 1023,1 hPa 0,0 l/m 1,7 km/h (1 Bft) W 259 0 min 0,000 mm 0,0 UV-I 33 W/m -1,9 C -1,3 C 3,2 km/h (1 Bft) 100,00 %
28.11.2016 09:04 -1,3 C 96 % 1023,1 hPa 0,0 l/m 2,0 km/h (1 Bft) W 259 0 min 0,000 mm 0,0 UV-I 33 W/m -1,9 C -1,3 C 3,2 km/h (1 Bft) 97,87 %
28.11.2016 09:06 -1,3 C 96 % 1023,1 hPa 0,0 l/m 2,0 km/h (1 Bft) W 259 0 min 0,000 mm 0,0 UV-I 36 W/m -1,9 C -1,3 C 3,2 km/h (1 Bft) 100,00 %
28.11.2016 09:08 -1,3 C 96 % 1023,2 hPa 0,0 l/m 2,2 km/h (1 Bft) W 259 0 min 0,000 mm 0,0 UV-I 103 W/m -1,9 C -1,3 C 3,2 km/h (1 Bft) 100,00 %
28.11.2016 09:10 -1,2 C 96 % 1023,2 hPa 0,0 l/m 2,9 km/h (1 Bft) W 259 2 min 0,000 mm 0,0 UV-I 186 W/m -1,8 C -1,2 C 4,8 km/h (1 Bft) 100,00 %
28.11.2016 09:12 -1,2 C 96 % 1023,2 hPa 0,0 l/m 2,4 km/h (1 Bft) W 259 2 min 0,000 mm 0,0 UV-I 192 W/m -1,8 C -1,2 C 3,2 km/h (1 Bft) 100,00 %
28.11.2016 09:16 -1,1 C 96 % 1023,3 hPa 0,0 l/m 2,9 km/h (1 Bft) W 259 4 min 0,000 mm 0,0 UV-I 200 W/m -1,7 C -1,1 C 3,2 km/h (1 Bft) 100,00 %
28.11.2016 09:18 -0,9 C 96 % 1023,3 hPa 0,0 l/m 2,8 km/h (1 Bft) W 259 2 min 0,000 mm 0,0 UV-I 202 W/m -1,5 C -0,9 C 4,8 km/h (1 Bft) 97,37 %
28.11.2016 09:20 -0,8 C 96 % 1023,3 hPa 0,0 l/m 3,0 km/h (1 Bft) W 259 2 min 0,000 mm 0,0 UV-I 209 W/m -1,4 C -0,8 C 4,8 km/h (1 Bft) 100,00 %
28.11.2016 09:22 -0,8 C 96 % 1023,3 hPa 0,0 l/m 3,5 km/h (1 Bft) W 259 2 min 0,000 mm 0,0 UV-I 211 W/m -1,4 C -0,8 C 4,8 km/h (1 Bft) 100,00 %
28.11.2016 09:24 -0,7 C 96 % 1023,3 hPa 0,0 l/m 2,8 km/h (1 Bft) W 259 2 min 0,000 mm 0,0 UV-I 213 W/m -1,3 C -0,7 C 4,8 km/h (1 Bft) 100,00 %
28.11.2016 09:26 -0,7 C 95 % 1023,3 hPa 0,0 l/m 2,6 km/h (1 Bft) W 259 2 min 0,000 mm 0,0 UV-I 216 W/m -1,4 C -0,7 C 4,8 km/h (1 Bft) 100,00 %
28.11.2016 09:28 -0,6 C 95 % 1023,3 hPa 0,0 l/m 2,4 km/h (1 Bft) W 259 2 min 0,000 mm 0,0 UV-I 219 W/m -1,3 C -0,6 C 3,2 km/h (1 Bft) 100,00 %
28.11.2016 09:30 -0,6 C 94 % 1023,4 hPa 0,0 l/m 0,7 km/h (0 Bft) W 259 2 min 0,000 mm 0,0 UV-I 221 W/m -1,4 C -0,6 C 3,2 km/h (1 Bft) 100,00 %
28.11.2016 09:32 -0,4 C 94 % 1023,4 hPa 0,0 l/m 0,7 km/h (0 Bft) W 259 2 min 0,000 mm 0,0 UV-I 223 W/m -1,2 C -0,4 C 1,6 km/h (1 Bft) 100,00 %
28.11.2016 09:34 -0,4 C 94 % 1023,4 hPa 0,0 l/m 0,4 km/h (0 Bft) W 259 2 min 0,000 mm 0,0 UV-I 227 W/m -1,2 C -0,4 C 1,6 km/h (1 Bft) 100,00 %
28.11.2016 09:36 -0,3 C 94 % 1023,5 hPa 0,0 l/m 0,0 km/h (0 Bft) W 259 2 min 0,000 mm 0,0 UV-I 229 W/m -1,1 C -0,3 C 1,6 km/h (1 Bft) 100,00 %
28.11.2016 09:38 -0,3 C 93 % 1023,5 hPa 0,0 l/m 1,7 km/h (1 Bft) W 259 2 min 0,000 mm 0,0 UV-I 232 W/m -1,3 C -0,3 C 3,2 km/h (1 Bft) 100,00 %
28.11.2016 09:40 -0,2 C 93 % 1023,6 hPa 0,0 l/m 1,7 km/h (1 Bft) W 259 2 min 0,000 mm 0,0 UV-I 236 W/m -1,2 C -0,2 C 3,2 km/h (1 Bft) 98,00 %
28.11.2016 09:42 -0,1 C 93 % 1023,6 hPa 0,0 l/m 0,6 km/h (0 Bft) W 259 2 min 0,000 mm 0,0 UV-I 238 W/m -1,1 C -0,1 C 1,6 km/h (1 Bft) 100,00 %
28.11.2016 09:44 -0,1 C 93 % 1023,7 hPa 0,0 l/m 0,9 km/h (0 Bft) W 259 2 min 0,000 mm 0,0 UV-I 242 W/m -1,1 C -0,1 C 1,6 km/h (1 Bft) 98,00 %
28.11.2016 09:46 0,0 C 92 % 1023,6 hPa 0,0 l/m 1,5 km/h (1 Bft) W 259 2 min 0,000 mm 0,0 UV-I 245 W/m -1,1 C 0,0 C 3,2 km/h (1 Bft) 100,00 %
28.11.2016 09:48 0,1 C 92 % 1023,7 hPa 0,0 l/m 3,5 km/h (1 Bft) W 259 2 min 0,000 mm 0,0 UV-I 247 W/m -1,0 C 0,1 C 4,8 km/h (1 Bft) 100,00 %
28.11.2016 09:50 0,1 C 91 % 1023,8 hPa 0,0 l/m 3,8 km/h (1 Bft) W 259 2 min 0,000 mm 0,0 UV-I 251 W/m -1,2 C 0,1 C 4,8 km/h (1 Bft) 97,87 %
28.11.2016 09:52 0,2 C 91 % 1023,8 hPa 0,0 l/m 2,1 km/h (1 Bft) W 259 2 min 0,000 mm 0,0 UV-I 256 W/m -1,1 C 0,2 C 4,8 km/h (1 Bft) 97,87 %
28.11.2016 09:54 0,2 C 92 % 1023,8 hPa 0,0 l/m 0,8 km/h (0 Bft) W 259 2 min 0,000 mm 0,0 UV-I 258 W/m -0,9 C 0,2 C 3,2 km/h (1 Bft) 98,00 %
28.11.2016 09:56 0,3 C 91 % 1023,9 hPa 0,0 l/m 1,6 km/h (1 Bft) W 259 2 min 0,000 mm 0,0 UV-I 259 W/m -1,0 C 0,3 C 3,2 km/h (1 Bft) 98,00 %
28.11.2016 09:58 0,3 C 89 % 1023,9 hPa 0,0 l/m 1,4 km/h (1 Bft) W 259 2 min 0,000 mm 0,0 UV-I 264 W/m -1,3 C 0,3 C 3,2 km/h (1 Bft) 97,14 %
28.11.2016 10:00 0,3 C 89 % 1023,9 hPa 0,0 l/m 1,1 km/h (1 Bft) W 259 2 min 0,076 mm 0,0 UV-I 266 W/m -1,3 C 0,3 C 3,2 km/h (1 Bft) 96,43 %
28.11.2016 10:02 0,3 C 89 % 1023,9 hPa 0,0 l/m 0,9 km/h (0 Bft) W 259 2 min 0,000 mm 0,1 UV-I 268 W/m -1,3 C 0,3 C 3,2 km/h (1 Bft) 95,12 %
28.11.2016 10:04 0,4 C 88 % 1023,9 hPa 0,0 l/m 0,7 km/h (0 Bft) W 259 2 min 0,000 mm 0,5 UV-I 272 W/m -1,3 C 0,4 C 1,6 km/h (1 Bft) 95,74 %
28.11.2016 10:06 0,4 C 87 % 1023,9 hPa 0,0 l/m 1,5 km/h (1 Bft) W 259 2 min 0,000 mm 0,5 UV-I 274 W/m -1,5 C 0,4 C 3,2 km/h (1 Bft) 93,62 %
28.11.2016 10:08 0,5 C 86 % 1024,0 hPa 0,0 l/m 1,0 km/h (0 Bft) W 259 2 min 0,000 mm 0,5 UV-I 276 W/m -1,6 C 0,5 C 3,2 km/h (1 Bft) 98,11 %
28.11.2016 10:10 0,6 C 87 % 1023,9 hPa 0,0 l/m 2,7 km/h (1 Bft) W 259 2 min 0,000 mm 0,5 UV-I 278 W/m -1,3 C 0,6 C 4,8 km/h (1 Bft) 92,86 %
28.11.2016 10:12 0,7 C 87 % 1024,0 hPa 0,0 l/m 0,8 km/h (0 Bft) W 259 2 min 0,000 mm 0,5 UV-I 280 W/m -1,2 C 0,7 C 3,2 km/h (1 Bft) 100,00 %
28.11.2016 10:14 0,7 C 86 % 1024,0 hPa 0,0 l/m 0,3 km/h (0 Bft) W 259 2 min 0,000 mm 0,5 UV-I 284 W/m -1,4 C 0,7 C 1,6 km/h (1 Bft) 97,83 %
28.11.2016 10:16 0,8 C 86 % 1024,0 hPa 0,0 l/m 0,2 km/h (0 Bft) W 259 2 min 0,000 mm 0,5 UV-I 287 W/m -1,3 C 0,8 C 1,6 km/h (1 Bft) 100,00 %
28.11.2016 10:18 0,7 C 84 % 1024,0 hPa 0,0 l/m 0,3 km/h (0 Bft) W 259 2 min 0,000 mm 0,5 UV-I 290 W/m -1,7 C 0,7 C 1,6 km/h (1 Bft) 98,00 %
28.11.2016 10:20 0,7 C 84 % 1024,1 hPa 0,0 l/m 0,8 km/h (0 Bft) W 259 2 min 0,000 mm 0,5 UV-I 291 W/m -1,7 C 0,7 C 3,2 km/h (1 Bft) 97,87 %
28.11.2016 10:22 0,8 C 85 % 1024,0 hPa 0,0 l/m 1,3 km/h (1 Bft) W 259 2 min 0,000 mm 0,5 UV-I 291 W/m -1,4 C 0,8 C 3,2 km/h (1 Bft) 100,00 %
28.11.2016 10:24 0,8 C 84 % 1024,1 hPa 0,0 l/m 0,2 km/h (0 Bft) W 260 2 min 0,000 mm 0,5 UV-I 294 W/m -1,6 C 0,8 C 1,6 km/h (1 Bft) 100,00 %
28.11.2016 10:26 0,8 C 83 % 1024,1 hPa 0,0 l/m 0,2 km/h (0 Bft) W 260 2 min 0,000 mm 0,5 UV-I 299 W/m -1,8 C 0,8 C 1,6 km/h (1 Bft) 98,00 %
28.11.2016 10:28 0,8 C 83 % 1024,1 hPa 0,0 l/m 1,1 km/h (1 Bft) W 260 2 min 0,000 mm 0,5 UV-I 309 W/m -1,8 C 0,8 C 1,6 km/h (1 Bft) 100,00 %
28.11.2016 10:30 0,9 C 82 % 1024,1 hPa 0,0 l/m 1,6 km/h (1 Bft) W 260 2 min 0,000 mm 0,5 UV-I 311 W/m -1,8 C 0,9 C 3,2 km/h (1 Bft) 100,00 %
28.11.2016 10:32 1,0 C 83 % 1024,2 hPa 0,0 l/m 0,5 km/h (0 Bft) W 260 2 min 0,000 mm 0,5 UV-I 303 W/m -1,6 C 1,0 C 1,6 km/h (1 Bft) 97,87 %
28.11.2016 10:34 0,9 C 79 % 1024,2 hPa 0,0 l/m 1,0 km/h (0 Bft) W 260 2 min 0,000 mm 0,5 UV-I 307 W/m -2,3 C 0,9 C 3,2 km/h (1 Bft) 100,00 %
28.11.2016 10:36 0,9 C 81 % 1024,3 hPa 0,0 l/m 2,5 km/h (1 Bft) N-NW 328 2 min 0,000 mm 0,6 UV-I 316 W/m -2,0 C 0,9 C 3,2 km/h (1 Bft) 100,00 %
28.11.2016 10:38 1,1 C 80 % 1024,3 hPa 0,0 l/m 1,0 km/h (0 Bft) N-NW 328 2 min 0,000 mm 0,6 UV-I 318 W/m -2,0 C 1,1 C 3,2 km/h (1 Bft) 100,00 %
28.11.2016 10:40 1,1 C 80 % 1024,3 hPa 0,0 l/m 1,1 km/h (1 Bft) N-NW 328 2 min 0,000 mm 0,6 UV-I 319 W/m -2,0 C 1,1 C 3,2 km/h (1 Bft) 100,00 %
28.11.2016 10:42 1,1 C 78 % 1024,3 hPa 0,0 l/m 0,9 km/h (0 Bft) N-NW 328 2 min 0,000 mm 0,6 UV-I 321 W/m -2,3 C 1,1 C 3,2 km/h (1 Bft) 100,00 %
28.11.2016 10:44 1,1 C 78 % 1024,3 hPa 0,0 l/m 1,4 km/h (1 Bft) NW 325 2 min 0,000 mm 0,6 UV-I 327 W/m -2,3 C 1,1 C 3,2 km/h (1 Bft) 97,87 %
28.11.2016 10:46 1,1 C 79 % 1024,3 hPa 0,0 l/m 0,5 km/h (0 Bft) NW 325 2 min 0,000 mm 0,6 UV-I 334 W/m -2,1 C 1,1 C 1,6 km/h (1 Bft) 97,87 %
28.11.2016 10:48 1,1 C 80 % 1024,3 hPa 0,0 l/m 1,6 km/h (1 Bft) N 355 2 min 0,000 mm 0,6 UV-I 337 W/m -2,0 C 1,1 C 6,4 km/h (2 Bft) 100,00 %
28.11.2016 10:50 1,1 C 78 % 1024,3 hPa 0,0 l/m 2,9 km/h (1 Bft) N-NO 23 2 min 0,000 mm 0,6 UV-I 339 W/m -2,3 C 1,1 C 6,4 km/h (2 Bft) 100,00 %
28.11.2016 10:52 1,1 C 77 % 1024,3 hPa 0,0 l/m 3,0 km/h (1 Bft) N 351 2 min 0,000 mm 0,6 UV-I 346 W/m -2,5 C 1,1 C 6,4 km/h (2 Bft) 100,00 %
28.11.2016 10:54 1,1 C 77 % 1024,3 hPa 0,0 l/m 2,6 km/h (1 Bft) W 270 2 min 0,000 mm 0,6 UV-I 345 W/m -2,5 C 1,1 C 4,8 km/h (1 Bft) 100,00 %
28.11.2016 10:56 1,2 C 78 % 1024,3 hPa 0,0 l/m 3,3 km/h (1 Bft) NW 325 2 min 0,000 mm 0,6 UV-I 262 W/m -2,2 C 1,2 C 6,4 km/h (2 Bft) 100,00 %
28.11.2016 10:58 1,1 C 76 % 1024,3 hPa 0,0 l/m 3,8 km/h (1 Bft) N-NO 32 0 min 0,000 mm 0,5 UV-I 110 W/m -2,6 C 1,1 C 8,0 km/h (2 Bft) 100,00 %
28.11.2016 11:00 0,9 C 78 % 1024,3 hPa 0,0 l/m 9,4 km/h (2 Bft) N 5 0 min 0,000 mm 0,5 UV-I 81 W/m -2,5 C -2,0 C 17,7 km/h (3 Bft) 96,23 %
28.11.2016 11:02 0,9 C 79 % 1024,3 hPa 0,0 l/m 13,3 km/h (3 Bft) N-NO 22 2 min 0,102 mm 0,6 UV-I 337 W/m -2,3 C -4,8 C 16,1 km/h (3 Bft) 94,64 %
28.11.2016 11:04 1,1 C 79 % 1024,3 hPa 0,0 l/m 11,1 km/h (2 Bft) N-NO 23 2 min 0,000 mm 0,6 UV-I 412 W/m -2,1 C -3,1 C 14,5 km/h (3 Bft) 97,37 %
28.11.2016 11:06 1,2 C 79 % 1024,3 hPa 0,0 l/m 3,5 km/h (1 Bft) N-NW 345 2 min 0,000 mm 0,6 UV-I 410 W/m -2,0 C 1,2 C 8,0 km/h (2 Bft) 95,74 %
28.11.2016 11:08 1,3 C 78 % 1024,3 hPa 0,0 l/m 0,9 km/h (0 Bft) N-NW 345 2 min 0,000 mm 0,6 UV-I 399 W/m -2,1 C 1,3 C 1,6 km/h (1 Bft) 97,87 %
28.11.2016 11:10 1,4 C 76 % 1024,3 hPa 0,0 l/m 2,4 km/h (1 Bft) N 11 2 min 0,000 mm 0,6 UV-I 343 W/m -2,4 C 1,4 C 11,3 km/h (2 Bft) 98,21 %
28.11.2016 11:12 1,3 C 74 % 1024,3 hPa 0,0 l/m 2,8 km/h (1 Bft) NW 306 0 min 0,000 mm 0,6 UV-I 97 W/m -2,8 C 1,3 C 11,3 km/h (2 Bft) 97,56 %
28.11.2016 11:14 1,2 C 72 % 1024,3 hPa 0,0 l/m 2,3 km/h (1 Bft) N-NW 332 2 min 0,000 mm 0,6 UV-I 229 W/m -3,3 C 1,2 C 4,8 km/h (1 Bft) 96,23 %
28.11.2016 11:16 1,3 C 71 % 1024,4 hPa 0,0 l/m 1,3 km/h (1 Bft) N-NW 336 2 min 0,000 mm 0,6 UV-I 379 W/m -3,4 C 1,3 C 4,8 km/h (1 Bft) 97,37 %
28.11.2016 11:18 1,3 C 72 % 1024,3 hPa 0,0 l/m 2,5 km/h (1 Bft) N-NW 348 2 min 0,000 mm 0,6 UV-I 358 W/m -3,2 C 1,3 C 4,8 km/h (1 Bft) 98,00 %
28.11.2016 11:20 1,3 C 71 % 1024,4 hPa 0,0 l/m 4,0 km/h (1 Bft) N-NO 12 0 min 0,000 mm 0,6 UV-I 129 W/m -3,4 C 1,3 C 8,0 km/h (2 Bft) 98,00 %
28.11.2016 11:22 1,1 C 70 % 1024,4 hPa 0,0 l/m 3,3 km/h (1 Bft) N-NO 21 0 min 0,000 mm 0,6 UV-I 108 W/m -3,7 C 1,1 C 8,0 km/h (2 Bft) 100,00 %
28.11.2016 11:24 1,1 C 71 % 1024,4 hPa 0,0 l/m 5,4 km/h (1 Bft) NO 36 2 min 0,000 mm 0,6 UV-I 353 W/m -3,6 C 1,1 C 9,7 km/h (2 Bft) 100,00 %
28.11.2016 11:26 1,2 C 73 % 1024,3 hPa 0,0 l/m 6,4 km/h (2 Bft) NO 37 2 min 0,000 mm 0,7 UV-I 370 W/m -3,1 C 1,2 C 14,5 km/h (3 Bft) 98,11 %
28.11.2016 11:28 1,2 C 72 % 1024,3 hPa 0,0 l/m 7,3 km/h (2 Bft) N 11 2 min 0,000 mm 0,6 UV-I 220 W/m -3,3 C 0,3 C 14,5 km/h (3 Bft) 100,00 %
28.11.2016 11:30 1,2 C 72 % 1024,3 hPa 0,0 l/m 2,2 km/h (1 Bft) N 11 2 min 0,000 mm 0,6 UV-I 267 W/m -3,3 C 1,2 C 6,4 km/h (2 Bft) 100,00 %
28.11.2016 11:32 1,2 C 70 % 1024,3 hPa 0,0 l/m 1,5 km/h (1 Bft) N 5 2 min 0,000 mm 0,6 UV-I 227 W/m -3,7 C 1,2 C 4,8 km/h (1 Bft) 98,00 %
28.11.2016 11:34 1,2 C 69 % 1024,3 hPa 0,0 l/m 3,4 km/h (1 Bft) NW 306 0 min 0,000 mm 0,6 UV-I 105 W/m -3,8 C 1,2 C 4,8 km/h (1 Bft) 100,00 %
28.11.2016 11:36 1,1 C 68 % 1024,3 hPa 0,0 l/m 6,5 km/h (2 Bft) N-NO 32 0 min 0,000 mm 0,6 UV-I 72 W/m -4,1 C 1,0 C 14,5 km/h (3 Bft) 100,00 %
28.11.2016 11:38 0,9 C 68 % 1024,4 hPa 0,0 l/m 3,7 km/h (1 Bft) NW 311 0 min 0,000 mm 0,6 UV-I 74 W/m -4,3 C 0,9 C 6,4 km/h (2 Bft) 100,00 %
28.11.2016 11:40 0,8 C 67 % 1024,4 hPa 0,0 l/m 2,1 km/h (1 Bft) N 5 0 min 0,000 mm 0,6 UV-I 89 W/m -4,6 C 0,8 C 6,4 km/h (2 Bft) 98,11 %
28.11.2016 11:42 0,8 C 69 % 1024,4 hPa 0,0 l/m 1,0 km/h (0 Bft) N-NW 345 0 min 0,000 mm 0,6 UV-I 178 W/m -4,2 C 0,8 C 3,2 km/h (1 Bft) 97,56 %
28.11.2016 11:44 0,9 C 70 % 1024,4 hPa 0,0 l/m 0,9 km/h (0 Bft) N-NW 338 2 min 0,000 mm 0,6 UV-I 227 W/m -3,9 C 0,9 C 3,2 km/h (1 Bft) 100,00 %
28.11.2016 11:46 0,9 C 70 % 1024,3 hPa 0,0 l/m 1,1 km/h (1 Bft) N-NO 24 0 min 0,000 mm 0,6 UV-I 89 W/m -3,9 C 0,9 C 3,2 km/h (1 Bft) 100,00 %
28.11.2016 11:48 0,9 C 70 % 1024,4 hPa 0,0 l/m 0,9 km/h (0 Bft) N 5 0 min 0,000 mm 0,6 UV-I 78 W/m -3,9 C 0,9 C 3,2 km/h (1 Bft) 97,56 %
28.11.2016 11:50 0,9 C 70 % 1024,4 hPa 0,0 l/m 3,0 km/h (1 Bft) N-NW 336 0 min 0,000 mm 0,6 UV-I 82 W/m -3,9 C 0,9 C 6,4 km/h (2 Bft) 97,87 %
28.11.2016 11:52 1,1 C 70 % 1024,4 hPa 0,0 l/m 5,8 km/h (2 Bft) NW 306 0 min 0,000 mm 0,7 UV-I 153 W/m -3,7 C 1,1 C 14,5 km/h (3 Bft) 97,73 %
28.11.2016 11:54 1,2 C 66 % 1024,4 hPa 0,0 l/m 5,6 km/h (1 Bft) N-NW 344 2 min 0,000 mm 0,7 UV-I 364 W/m -4,4 C 1,2 C 12,9 km/h (3 Bft) 100,00 %
28.11.2016 11:56 1,3 C 66 % 1024,4 hPa 0,0 l/m 5,0 km/h (1 Bft) N-NW 337 2 min 0,000 mm 0,7 UV-I 254 W/m -4,3 C 1,3 C 11,3 km/h (2 Bft) 100,00 %
28.11.2016 11:58 1,3 C 65 % 1024,3 hPa 0,0 l/m 5,2 km/h (1 Bft) W-NW 291 2 min 0,000 mm 0,7 UV-I 280 W/m -4,5 C 1,3 C 11,3 km/h (2 Bft) 100,00 %
28.11.2016 12:00 1,5 C 66 % 1024,4 hPa 0,0 l/m 4,6 km/h (1 Bft) NW 314 2 min 0,000 mm 0,7 UV-I 425 W/m -4,1 C 1,5 C 9,7 km/h (2 Bft) 100,00 %
28.11.2016 12:02 1,7 C 65 % 1024,4 hPa 0,0 l/m 5,9 km/h (2 Bft) NO 50 2 min 0,101 mm 0,7 UV-I 388 W/m -4,2 C 1,7 C 9,7 km/h (2 Bft) 97,87 %
28.11.2016 12:04 1,6 C 66 % 1024,4 hPa 0,0 l/m 2,8 km/h (1 Bft) NW 311 2 min 0,000 mm 0,7 UV-I 354 W/m -4,1 C 1,6 C 6,4 km/h (2 Bft) 100,00 %
28.11.2016 12:06 1,7 C 65 % 1024,3 hPa 0,0 l/m 3,4 km/h (1 Bft) W-NW 302 2 min 0,000 mm 0,7 UV-I 421 W/m -4,2 C 1,7 C 6,4 km/h (2 Bft) 97,56 %
28.11.2016 12:08 1,7 C 65 % 1024,3 hPa 0,0 l/m 4,9 km/h (1 Bft) N-NW 329 2 min 0,000 mm 0,6 UV-I 381 W/m -4,2 C 1,7 C 12,9 km/h (3 Bft) 98,11 %
28.11.2016 12:10 1,6 C 65 % 1024,4 hPa 0,0 l/m 6,1 km/h (2 Bft) NW 314 0 min 0,000 mm 0,6 UV-I 106 W/m -4,3 C 1,6 C 14,5 km/h (3 Bft) 100,00 %
28.11.2016 12:12 1,5 C 63 % 1024,4 hPa 0,0 l/m 7,1 km/h (2 Bft) W-NW 287 0 min 0,000 mm 0,6 UV-I 101 W/m -4,8 C 0,8 C 12,9 km/h (3 Bft) 97,87 %
28.11.2016 12:14 1,3 C 64 % 1024,4 hPa 0,0 l/m 4,0 km/h (1 Bft) NW 306 0 min 0,000 mm 0,6 UV-I 98 W/m -4,7 C 1,3 C 6,4 km/h (2 Bft) 100,00 %
28.11.2016 12:16 1,2 C 65 % 1024,4 hPa 0,0 l/m 4,9 km/h (1 Bft) N-NW 346 0 min 0,000 mm 0,7 UV-I 190 W/m -4,6 C 1,2 C 11,3 km/h (2 Bft) 100,00 %
28.11.2016 12:18 1,4 C 65 % 1024,5 hPa 0,0 l/m 4,4 km/h (1 Bft) N 9 2 min 0,000 mm 0,7 UV-I 388 W/m -4,4 C 1,4 C 8,0 km/h (2 Bft) 100,00 %
28.11.2016 12:20 1,4 C 62 % 1024,5 hPa 0,0 l/m 7,1 km/h (2 Bft) W-NW 302 2 min 0,000 mm 0,6 UV-I 224 W/m -5,1 C 0,7 C 12,9 km/h (3 Bft) 100,00 %
28.11.2016 12:22 1,3 C 60 % 1024,6 hPa 0,0 l/m 7,1 km/h (2 Bft) N-NW 339 0 min 0,000 mm 0,6 UV-I 73 W/m -5,6 C 0,6 C 14,5 km/h (3 Bft) 100,00 %
28.11.2016 12:24 1,2 C 62 % 1024,6 hPa 0,0 l/m 3,1 km/h (1 Bft) NW 321 0 min 0,000 mm 0,6 UV-I 176 W/m -5,3 C 1,2 C 4,8 km/h (1 Bft) 98,11 %
28.11.2016 12:26 1,2 C 61 % 1024,6 hPa 0,0 l/m 3,1 km/h (1 Bft) NW 310 2 min 0,000 mm 0,6 UV-I 206 W/m -5,5 C 1,2 C 11,3 km/h (2 Bft) 95,74 %
28.11.2016 12:28 1,3 C 61 % 1024,6 hPa 0,0 l/m 5,5 km/h (1 Bft) NW 308 2 min 0,000 mm 0,6 UV-I 298 W/m -5,4 C 1,3 C 8,0 km/h (2 Bft) 97,37 %
28.11.2016 12:30 1,5 C 64 % 1024,6 hPa 0,0 l/m 4,2 km/h (1 Bft) W-NW 303 2 min 0,000 mm 0,6 UV-I 369 W/m -4,6 C 1,5 C 12,9 km/h (3 Bft) 98,00 %
28.11.2016 12:32 1,7 C 61 % 1024,6 hPa 0,0 l/m 3,4 km/h (1 Bft) N-NO 18 2 min 0,000 mm 0,6 UV-I 366 W/m -5,0 C 1,7 C 8,0 km/h (2 Bft) 96,23 %
28.11.2016 12:34 1,7 C 62 % 1024,6 hPa 0,0 l/m 2,9 km/h (1 Bft) NW 323 2 min 0,000 mm 0,6 UV-I 367 W/m -4,8 C 1,7 C 6,4 km/h (2 Bft) 97,73 %
28.11.2016 12:36 1,8 C 61 % 1024,6 hPa 0,0 l/m 6,0 km/h (2 Bft) N-NW 339 2 min 0,000 mm 0,6 UV-I 372 W/m -4,9 C 1,8 C 14,5 km/h (3 Bft) 97,37 %
28.11.2016 12:38 1,7 C 60 % 1024,6 hPa 0,0 l/m 4,1 km/h (1 Bft) N 355 2 min 0,000 mm 0,6 UV-I 377 W/m -5,2 C 1,7 C 8,0 km/h (2 Bft) 96,61 %
28.11.2016 12:40 1,8 C 61 % 1024,7 hPa 0,0 l/m 3,3 km/h (1 Bft) W-NW 299 2 min 0,000 mm 0,6 UV-I 387 W/m -4,9 C 1,8 C 8,0 km/h (2 Bft) 97,73 %
28.11.2016 12:42 1,8 C 59 % 1024,7 hPa 0,0 l/m 5,4 km/h (1 Bft) N-NW 346 2 min 0,000 mm 0,6 UV-I 399 W/m -5,3 C 1,8 C 9,7 km/h (2 Bft) 97,87 %
28.11.2016 12:44 1,8 C 58 % 1024,7 hPa 0,0 l/m 3,8 km/h (1 Bft) N-NW 327 2 min 0,000 mm 0,6 UV-I 411 W/m -5,6 C 1,8 C 8,0 km/h (2 Bft) 96,00 %
28.11.2016 12:46 1,9 C 61 % 1024,6 hPa 0,0 l/m 4,3 km/h (1 Bft) W-NW 293 2 min 0,000 mm 0,6 UV-I 420 W/m -4,8 C 1,9 C 9,7 km/h (2 Bft) 97,56 %
28.11.2016 12:48 2,1 C 61 % 1024,7 hPa 0,0 l/m 5,6 km/h (1 Bft) NW 319 2 min 0,000 mm 0,6 UV-I 424 W/m -4,6 C 2,1 C 14,5 km/h (3 Bft) 97,62 %
28.11.2016 12:50 2,1 C 61 % 1024,7 hPa 0,0 l/m 8,2 km/h (2 Bft) N-NO 24 2 min 0,000 mm 0,6 UV-I 418 W/m -4,6 C 0,4 C 14,5 km/h (3 Bft) 98,11 %
28.11.2016 12:52 2,1 C 59 % 1024,6 hPa 0,0 l/m 7,0 km/h (2 Bft) NW 325 2 min 0,000 mm 0,6 UV-I 411 W/m -5,1 C 1,5 C 17,7 km/h (3 Bft) 100,00 %
28.11.2016 12:54 2,0 C 59 % 1024,6 hPa 0,0 l/m 6,2 km/h (2 Bft) W-NW 293 2 min 0,000 mm 0,6 UV-I 401 W/m -5,2 C 2,0 C 14,5 km/h (3 Bft) 100,00 %
28.11.2016 12:56 1,9 C 59 % 1024,7 hPa 0,0 l/m 6,4 km/h (2 Bft) N-NW 342 2 min 0,000 mm 0,6 UV-I 387 W/m -5,2 C 1,9 C 16,1 km/h (3 Bft) 97,87 %
28.11.2016 12:58 1,9 C 56 % 1024,7 hPa 0,0 l/m 6,6 km/h (2 Bft) NW 317 2 min 0,000 mm 0,6 UV-I 366 W/m -5,9 C 1,7 C 14,5 km/h (3 Bft) 97,56 %
28.11.2016 13:00 1,9 C 58 % 1024,7 hPa 0,0 l/m 4,4 km/h (1 Bft) N 11 2 min 0,000 mm 0,6 UV-I 357 W/m -5,5 C 1,9 C 9,7 km/h (2 Bft) 100,00 %
28.11.2016 13:02 1,8 C 59 % 1024,8 hPa 0,0 l/m 6,0 km/h (2 Bft) NW 323 2 min 0,127 mm 0,6 UV-I 345 W/m -5,3 C 1,8 C 12,9 km/h (3 Bft) 100,00 %
28.11.2016 13:04 1,9 C 57 % 1024,8 hPa 0,0 l/m 3,6 km/h (1 Bft) N-NW 337 2 min 0,000 mm 0,6 UV-I 333 W/m -5,7 C 1,9 C 6,4 km/h (2 Bft) 100,00 %
28.11.2016 13:06 1,8 C 56 % 1024,8 hPa 0,0 l/m 4,1 km/h (1 Bft) N-NW 343 2 min 0,000 mm 0,6 UV-I 336 W/m -6,0 C 1,8 C 11,3 km/h (2 Bft) 100,00 %
28.11.2016 13:08 1,8 C 57 % 1024,8 hPa 0,0 l/m 6,0 km/h (2 Bft) N-NW 344 2 min 0,000 mm 0,6 UV-I 335 W/m -5,8 C 1,8 C 12,9 km/h (3 Bft) 100,00 %
28.11.2016 13:10 1,8 C 57 % 1024,8 hPa 0,0 l/m 6,0 km/h (2 Bft) N-NW 340 2 min 0,000 mm 0,6 UV-I 334 W/m -5,8 C 1,8 C 14,5 km/h (3 Bft) 96,00 %
28.11.2016 13:12 1,8 C 57 % 1024,9 hPa 0,0 l/m 5,5 km/h (1 Bft) N 351 2 min 0,000 mm 0,6 UV-I 335 W/m -5,8 C 1,8 C 12,9 km/h (3 Bft) 100,00 %
28.11.2016 13:14 1,8 C 57 % 1024,9 hPa 0,0 l/m 4,6 km/h (1 Bft) N-NW 343 2 min 0,000 mm 0,6 UV-I 334 W/m -5,8 C 1,8 C 9,7 km/h (2 Bft) 100,00 %
28.11.2016 13:16 1,8 C 58 % 1024,9 hPa 0,0 l/m 2,3 km/h (1 Bft) N-NW 327 2 min 0,000 mm 0,5 UV-I 334 W/m -5,6 C 1,8 C 6,4 km/h (2 Bft) 100,00 %
28.11.2016 13:18 1,9 C 57 % 1024,9 hPa 0,0 l/m 7,5 km/h (2 Bft) NW 304 2 min 0,000 mm 0,5 UV-I 335 W/m -5,7 C 0,8 C 14,5 km/h (3 Bft) 100,00 %
28.11.2016 13:20 1,9 C 57 % 1024,9 hPa 0,0 l/m 3,5 km/h (1 Bft) N-NW 331 2 min 0,000 mm 0,5 UV-I 272 W/m -5,7 C 1,9 C 6,4 km/h (2 Bft) 100,00 %
28.11.2016 13:22 1,9 C 60 % 1024,9 hPa 0,0 l/m 3,1 km/h (1 Bft) N-NW 344 0 min 0,000 mm 0,5 UV-I 162 W/m -5,0 C 1,9 C 8,0 km/h (2 Bft) 100,00 %
28.11.2016 13:24 1,9 C 61 % 1025,0 hPa 0,0 l/m 3,9 km/h (1 Bft) N 350 2 min 0,000 mm 0,5 UV-I 336 W/m -4,8 C 1,9 C 11,3 km/h (2 Bft) 100,00 %
28.11.2016 13:26 1,9 C 57 % 1025,0 hPa 0,0 l/m 7,0 km/h (2 Bft) N 355 2 min 0,000 mm 0,5 UV-I 342 W/m -5,7 C 1,3 C 14,5 km/h (3 Bft) 100,00 %
28.11.2016 13:28 2,0 C 59 % 1025,0 hPa 0,0 l/m 5,8 km/h (2 Bft) N-NW 329 2 min 0,000 mm 0,5 UV-I 380 W/m -5,2 C 2,0 C 12,9 km/h (3 Bft) 100,00 %
28.11.2016 13:30 2,1 C 58 % 1025,0 hPa 0,0 l/m 4,5 km/h (1 Bft) NW 309 2 min 0,000 mm 0,5 UV-I 390 W/m -5,3 C 2,1 C 8,0 km/h (2 Bft) 100,00 %
28.11.2016 13:32 2,2 C 58 % 1025,0 hPa 0,0 l/m 3,8 km/h (1 Bft) N-NW 333 2 min 0,000 mm 0,5 UV-I 396 W/m -5,2 C 2,2 C 12,9 km/h (3 Bft) 100,00 %
28.11.2016 13:34 2,2 C 60 % 1024,9 hPa 0,0 l/m 6,4 km/h (2 Bft) W-SW 254 2 min 0,000 mm 0,5 UV-I 405 W/m -4,7 C 2,2 C 14,5 km/h (3 Bft) 100,00 %
28.11.2016 13:36 2,2 C 59 % 1025,0 hPa 0,0 l/m 3,9 km/h (1 Bft) N 5 2 min 0,000 mm 0,5 UV-I 402 W/m -5,0 C 2,2 C 6,4 km/h (2 Bft) 100,00 %
28.11.2016 13:38 2,3 C 61 % 1025,1 hPa 0,0 l/m 3,2 km/h (1 Bft) W 280 2 min 0,000 mm 0,4 UV-I 370 W/m -4,4 C 2,3 C 9,7 km/h (2 Bft) 100,00 %
28.11.2016 13:40 2,3 C 58 % 1025,1 hPa 0,0 l/m 5,1 km/h (1 Bft) NW 310 2 min 0,000 mm 0,0 UV-I 344 W/m -5,1 C 2,3 C 12,9 km/h (3 Bft) 98,11 %
28.11.2016 13:42 2,3 C 59 % 1025,1 hPa 0,0 l/m 4,8 km/h (1 Bft) W-NW 290 2 min 0,000 mm 0,0 UV-I 343 W/m -4,9 C 2,3 C 14,5 km/h (3 Bft) 100,00 %
28.11.2016 13:44 2,2 C 55 % 1025,1 hPa 0,0 l/m 5,6 km/h (1 Bft) N-NW 346 2 min 0,000 mm 0,0 UV-I 340 W/m -5,9 C 2,2 C 11,3 km/h (2 Bft) 100,00 %
28.11.2016 13:46 2,2 C 56 % 1025,1 hPa 0,0 l/m 3,4 km/h (1 Bft) NW 311 2 min 0,000 mm 0,0 UV-I 334 W/m -5,6 C 2,2 C 8,0 km/h (2 Bft) 100,00 %
28.11.2016 13:48 2,2 C 59 % 1025,1 hPa 0,0 l/m 2,5 km/h (1 Bft) N 10 2 min 0,000 mm 0,0 UV-I 329 W/m -5,0 C 2,2 C 9,7 km/h (2 Bft) 100,00 %
28.11.2016 13:50 2,3 C 59 % 1025,2 hPa 0,0 l/m 3,6 km/h (1 Bft) W-NW 301 2 min 0,000 mm 0,0 UV-I 343 W/m -4,9 C 2,3 C 6,4 km/h (2 Bft) 98,11 %
28.11.2016 13:52 2,2 C 56 % 1025,2 hPa 0,0 l/m 3,0 km/h (1 Bft) N 10 2 min 0,000 mm 0,0 UV-I 332 W/m -5,6 C 2,2 C 6,4 km/h (2 Bft) 97,73 %
28.11.2016 13:54 2,2 C 57 % 1025,2 hPa 0,0 l/m 2,4 km/h (1 Bft) N 11 2 min 0,000 mm 0,0 UV-I 319 W/m -5,4 C 2,2 C 3,2 km/h (1 Bft) 98,00 %
28.11.2016 13:56 2,2 C 59 % 1025,2 hPa 0,0 l/m 5,4 km/h (1 Bft) N-NO 26 2 min 0,000 mm 0,0 UV-I 323 W/m -5,0 C 2,2 C 9,7 km/h (2 Bft) 97,14 %
28.11.2016 13:58 2,3 C 58 % 1025,2 hPa 0,0 l/m 3,4 km/h (1 Bft) N-NW 342 2 min 0,000 mm 0,0 UV-I 348 W/m -5,1 C 2,3 C 8,0 km/h (2 Bft) 98,11 %
28.11.2016 14:00 2,3 C 60 % 1025,2 hPa 0,0 l/m 5,2 km/h (1 Bft) NW 325 2 min 0,000 mm 0,0 UV-I 346 W/m -4,6 C 2,3 C 12,9 km/h (3 Bft) 97,73 %
28.11.2016 14:02 2,3 C 57 % 1025,2 hPa 0,0 l/m 5,3 km/h (1 Bft) N-NO 12 2 min 0,127 mm 0,0 UV-I 336 W/m -5,3 C 2,3 C 17,7 km/h (3 Bft) 96,23 %
28.11.2016 14:04 2,3 C 58 % 1025,2 hPa 0,0 l/m 11,3 km/h (2 Bft) NO 52 2 min 0,000 mm 0,0 UV-I 325 W/m -5,1 C -1,9 C 16,1 km/h (3 Bft) 97,62 %
28.11.2016 14:06 2,3 C 57 % 1025,2 hPa 0,0 l/m 8,6 km/h (2 Bft) N-NO 15 2 min 0,000 mm 0,0 UV-I 275 W/m -5,3 C 0,2 C 14,5 km/h (3 Bft) 95,45 %
28.11.2016 14:08 2,2 C 57 % 1025,2 hPa 0,0 l/m 8,6 km/h (2 Bft) N-NO 29 2 min 0,000 mm 0,0 UV-I 224 W/m -5,4 C 0,1 C 16,1 km/h (3 Bft) 96,36 %
28.11.2016 14:10 2,1 C 58 % 1025,2 hPa 0,0 l/m 3,3 km/h (1 Bft) NW 319 2 min 0,000 mm 0,0 UV-I 195 W/m -5,3 C 2,1 C 8,0 km/h (2 Bft) 96,00 %
28.11.2016 14:12 2,0 C 60 % 1025,2 hPa 0,0 l/m 2,2 km/h (1 Bft) NW 316 2 min 0,000 mm 0,0 UV-I 143 W/m -4,9 C 2,0 C 4,8 km/h (1 Bft) 94,44 %
28.11.2016 14:14 1,9 C 58 % 1025,3 hPa 0,0 l/m 2,9 km/h (1 Bft) NW 323 0 min 0,000 mm 0,0 UV-I 123 W/m -5,5 C 1,9 C 8,0 km/h (2 Bft) 98,00 %
28.11.2016 14:16 1,8 C 58 % 1025,3 hPa 0,0 l/m 1,9 km/h (1 Bft) N 351 0 min 0,000 mm 0,0 UV-I 110 W/m -5,6 C 1,8 C 3,2 km/h (1 Bft) 98,11 %
28.11.2016 14:18 1,7 C 58 % 1025,3 hPa 0,0 l/m 3,2 km/h (1 Bft) NW 320 0 min 0,000 mm 0,0 UV-I 116 W/m -5,7 C 1,7 C 6,4 km/h (2 Bft) 97,56 %
28.11.2016 14:20 1,7 C 56 % 1025,5 hPa 0,0 l/m 2,3 km/h (1 Bft) NW 315 0 min 0,000 mm 0,0 UV-I 116 W/m -6,1 C 1,7 C 4,8 km/h (1 Bft) 98,00 %
28.11.2016 14:22 1,7 C 58 % 1025,5 hPa 0,0 l/m 1,2 km/h (1 Bft) NW 311 0 min 0,000 mm 0,0 UV-I 106 W/m -5,7 C 1,7 C 3,2 km/h (1 Bft) 100,00 %
28.11.2016 14:24 1,7 C 59 % 1025,5 hPa 0,0 l/m 1,2 km/h (1 Bft) NW 311 0 min 0,000 mm 0,0 UV-I 98 W/m -5,4 C 1,7 C 3,2 km/h (1 Bft) 100,00 %
28.11.2016 14:26 1,7 C 61 % 1025,5 hPa 0,0 l/m 3,9 km/h (1 Bft) W-NW 292 0 min 0,000 mm 0,0 UV-I 92 W/m -5,0 C 1,7 C 6,4 km/h (2 Bft) 98,11 %
28.11.2016 14:28 1,7 C 58 % 1025,5 hPa 0,0 l/m 3,3 km/h (1 Bft) W-NW 286 0 min 0,000 mm 0,0 UV-I 90 W/m -5,7 C 1,7 C 6,4 km/h (2 Bft) 100,00 %
28.11.2016 14:30 1,6 C 58 % 1025,5 hPa 0,0 l/m 3,1 km/h (1 Bft) W 279 0 min 0,000 mm 0,0 UV-I 88 W/m -5,8 C 1,6 C 4,8 km/h (1 Bft) 100,00 %
28.11.2016 14:32 1,5 C 59 % 1025,5 hPa 0,0 l/m 2,7 km/h (1 Bft) W 269 0 min 0,000 mm 0,0 UV-I 84 W/m -5,6 C 1,5 C 6,4 km/h (2 Bft) 100,00 %
28.11.2016 14:34 1,5 C 59 % 1025,5 hPa 0,0 l/m 2,3 km/h (1 Bft) W 267 0 min 0,000 mm 0,0 UV-I 80 W/m -5,6 C 1,5 C 6,4 km/h (2 Bft) 100,00 %
28.11.2016 14:36 1,5 C 58 % 1025,5 hPa 0,0 l/m 1,8 km/h (1 Bft) NW 322 0 min 0,000 mm 0,0 UV-I 75 W/m -5,8 C 1,5 C 6,4 km/h (2 Bft) 100,00 %
28.11.2016 14:38 1,5 C 62 % 1025,6 hPa 0,0 l/m 1,2 km/h (1 Bft) NW 314 0 min 0,000 mm 0,0 UV-I 71 W/m -5,0 C 1,5 C 3,2 km/h (1 Bft) 100,00 %
28.11.2016 14:40 1,4 C 63 % 1025,5 hPa 0,0 l/m 2,2 km/h (1 Bft) W-NW 301 0 min 0,000 mm 0,0 UV-I 68 W/m -4,9 C 1,4 C 4,8 km/h (1 Bft) 100,00 %
28.11.2016 14:42 1,4 C 62 % 1025,6 hPa 0,0 l/m 1,9 km/h (1 Bft) W 270 0 min 0,000 mm 0,0 UV-I 67 W/m -5,1 C 1,4 C 4,8 km/h (1 Bft) 100,00 %
28.11.2016 14:44 1,4 C 57 % 1025,6 hPa 0,0 l/m 2,3 km/h (1 Bft) NW 309 0 min 0,000 mm 0,0 UV-I 66 W/m -6,2 C 1,4 C 6,4 km/h (2 Bft) 100,00 %
28.11.2016 14:46 1,4 C 57 % 1025,6 hPa 0,0 l/m 3,2 km/h (1 Bft) NW 320 0 min 0,000 mm 0,0 UV-I 68 W/m -6,2 C 1,4 C 4,8 km/h (1 Bft) 100,00 %
28.11.2016 14:48 1,4 C 58 % 1025,6 hPa 0,0 l/m 1,3 km/h (1 Bft) NW 320 0 min 0,000 mm 0,0 UV-I 72 W/m -5,9 C 1,4 C 3,2 km/h (1 Bft) 100,00 %
28.11.2016 14:50 1,4 C 59 % 1025,7 hPa 0,0 l/m 2,1 km/h (1 Bft) NW 304 0 min 0,000 mm 0,0 UV-I 76 W/m -5,7 C 1,4 C 4,8 km/h (1 Bft) 100,00 %
28.11.2016 14:52 1,4 C 57 % 1025,6 hPa 0,0 l/m 1,4 km/h (1 Bft) NW 304 0 min 0,000 mm 0,0 UV-I 77 W/m -6,2 C 1,4 C 4,8 km/h (1 Bft) 100,00 %
28.11.2016 14:54 1,4 C 59 % 1025,7 hPa 0,0 l/m 0,7 km/h (0 Bft) NW 304 0 min 0,000 mm 0,0 UV-I 79 W/m -5,7 C 1,4 C 1,6 km/h (1 Bft) 100,00 %
28.11.2016 14:56 1,4 C 61 % 1025,7 hPa 0,0 l/m 1,1 km/h (1 Bft) NW 304 0 min 0,000 mm 0,0 UV-I 76 W/m -5,3 C 1,4 C 3,2 km/h (1 Bft) 100,00 %
28.11.2016 14:58 1,4 C 60 % 1025,7 hPa 0,0 l/m 1,4 km/h (1 Bft) NW 304 0 min 0,000 mm 0,0 UV-I 68 W/m -5,5 C 1,4 C 3,2 km/h (1 Bft) 100,00 %
28.11.2016 15:00 1,4 C 59 % 1025,7 hPa 0,0 l/m 0,7 km/h (0 Bft) NW 304 0 min 0,000 mm 0,0 UV-I 61 W/m -5,7 C 1,4 C 1,6 km/h (1 Bft) 100,00 %
28.11.2016 15:02 1,4 C 59 % 1025,8 hPa 0,0 l/m 1,8 km/h (1 Bft) NW 304 0 min 0,051 mm 0,0 UV-I 56 W/m -5,7 C 1,4 C 3,2 km/h (1 Bft) 100,00 %
28.11.2016 15:04 1,5 C 59 % 1025,8 hPa 0,0 l/m 2,4 km/h (1 Bft) NW 304 0 min 0,000 mm 0,0 UV-I 50 W/m -5,6 C 1,5 C 4,8 km/h (1 Bft) 97,37 %
28.11.2016 15:06 1,5 C 61 % 1025,9 hPa 0,0 l/m 0,0 km/h (0 Bft) NW 304 0 min 0,000 mm 0,0 UV-I 46 W/m -5,2 C 1,5 C 1,6 km/h (1 Bft) 98,00 %
28.11.2016 15:08 1,5 C 59 % 1025,9 hPa 0,0 l/m 1,2 km/h (1 Bft) NW 304 0 min 0,000 mm 0,0 UV-I 42 W/m -5,6 C 1,5 C 3,2 km/h (1 Bft) 100,00 %
28.11.2016 15:10 1,5 C 64 % 1026,0 hPa 0,0 l/m 1,2 km/h (1 Bft) NW 317 0 min 0,000 mm 0,0 UV-I 39 W/m -4,6 C 1,5 C 4,8 km/h (1 Bft) 100,00 %
28.11.2016 15:12 1,5 C 58 % 1026,0 hPa 0,0 l/m 1,1 km/h (1 Bft) N-NW 327 0 min 0,000 mm 0,0 UV-I 37 W/m -5,8 C 1,5 C 3,2 km/h (1 Bft) 95,74 %
28.11.2016 15:14 1,5 C 59 % 1026,0 hPa 0,0 l/m 3,0 km/h (1 Bft) NW 323 0 min 0,000 mm 0,0 UV-I 35 W/m -5,6 C 1,5 C 6,4 km/h (2 Bft) 100,00 %
28.11.2016 15:16 1,4 C 60 % 1026,1 hPa 0,0 l/m 2,0 km/h (1 Bft) NW 314 0 min 0,000 mm 0,0 UV-I 33 W/m -5,5 C 1,4 C 4,8 km/h (1 Bft) 97,87 %
28.11.2016 15:18 1,4 C 61 % 1026,1 hPa 0,0 l/m 1,6 km/h (1 Bft) N-NW 344 0 min 0,000 mm 0,0 UV-I 30 W/m -5,3 C 1,4 C 3,2 km/h (1 Bft) 100,00 %
28.11.2016 15:20 1,4 C 60 % 1026,1 hPa 0,0 l/m 2,2 km/h (1 Bft) N-NW 342 0 min 0,000 mm 0,0 UV-I 26 W/m -5,5 C 1,4 C 4,8 km/h (1 Bft) 100,00 %
28.11.2016 15:22 1,4 C 60 % 1026,2 hPa 0,0 l/m 1,4 km/h (1 Bft) N 5 0 min 0,000 mm 0,0 UV-I 25 W/m -5,5 C 1,4 C 3,2 km/h (1 Bft) 100,00 %
28.11.2016 15:24 1,4 C 61 % 1026,2 hPa 0,0 l/m 2,2 km/h (1 Bft) N-NW 338 0 min 0,000 mm 0,0 UV-I 25 W/m -5,3 C 1,4 C 6,4 km/h (2 Bft) 100,00 %
28.11.2016 15:26 1,3 C 63 % 1026,2 hPa 0,0 l/m 1,1 km/h (1 Bft) N-NW 348 0 min 0,000 mm 0,0 UV-I 25 W/m -5,0 C 1,3 C 3,2 km/h (1 Bft) 100,00 %
28.11.2016 15:28 1,3 C 62 % 1026,2 hPa 0,0 l/m 0,9 km/h (0 Bft) N-NW 345 0 min 0,000 mm 0,0 UV-I 25 W/m -5,2 C 1,3 C 3,2 km/h (1 Bft) 100,00 %
28.11.2016 15:30 1,3 C 61 % 1026,3 hPa 0,0 l/m 5,9 km/h (2 Bft) N-NW 338 0 min 0,000 mm 0,0 UV-I 25 W/m -5,4 C 1,3 C 16,1 km/h (3 Bft) 100,00 %
28.11.2016 15:32 1,3 C 64 % 1026,3 hPa 0,0 l/m 7,6 km/h (2 Bft) N-NO 15 0 min 0,000 mm 0,0 UV-I 26 W/m -4,7 C 0,1 C 14,5 km/h (3 Bft) 97,37 %
28.11.2016 15:34 1,2 C 64 % 1026,3 hPa 0,0 l/m 6,3 km/h (2 Bft) NO 49 0 min 0,000 mm 0,0 UV-I 27 W/m -4,8 C 1,2 C 14,5 km/h (3 Bft) 96,43 %
28.11.2016 15:36 1,2 C 62 % 1026,4 hPa 0,0 l/m 5,4 km/h (1 Bft) N-NO 19 0 min 0,000 mm 0,0 UV-I 30 W/m -5,3 C 1,2 C 14,5 km/h (3 Bft) 100,00 %
28.11.2016 15:38 1,1 C 63 % 1026,4 hPa 0,0 l/m 6,6 km/h (2 Bft) NW 304 0 min 0,000 mm 0,0 UV-I 30 W/m -5,1 C 0,9 C 14,5 km/h (3 Bft) 98,21 %
28.11.2016 15:40 1,1 C 62 % 1026,5 hPa 0,0 l/m 3,2 km/h (1 Bft) N-NW 337 0 min 0,000 mm 0,0 UV-I 30 W/m -5,3 C 1,1 C 8,0 km/h (2 Bft) 97,87 %
28.11.2016 15:42 1,1 C 60 % 1026,5 hPa 0,0 l/m 4,4 km/h (1 Bft) N-NW 348 0 min 0,000 mm 0,0 UV-I 30 W/m -5,8 C 1,1 C 8,0 km/h (2 Bft) 100,00 %
28.11.2016 15:44 1,1 C 62 % 1026,6 hPa 0,0 l/m 8,4 km/h (2 Bft) N 360 0 min 0,000 mm 0,0 UV-I 30 W/m -5,3 C -0,9 C 14,5 km/h (3 Bft) 98,21 %
28.11.2016 15:46 1,0 C 63 % 1026,6 hPa 0,0 l/m 5,0 km/h (1 Bft) N 5 0 min 0,000 mm 0,0 UV-I 27 W/m -5,2 C 1,0 C 12,9 km/h (3 Bft) 100,00 %
28.11.2016 15:48 0,9 C 64 % 1026,6 hPa 0,0 l/m 3,7 km/h (1 Bft) N 349 0 min 0,000 mm 0,0 UV-I 25 W/m -5,1 C 0,9 C 8,0 km/h (2 Bft) 100,00 %
28.11.2016 15:50 0,9 C 64 % 1026,7 hPa 0,0 l/m 6,3 km/h (2 Bft) N-NO 26 0 min 0,000 mm 0,0 UV-I 22 W/m -5,1 C 0,9 C 14,5 km/h (3 Bft) 100,00 %
28.11.2016 15:52 0,8 C 66 % 1026,7 hPa 0,0 l/m 4,3 km/h (1 Bft) N-NO 28 0 min 0,000 mm 0,0 UV-I 20 W/m -4,8 C 0,8 C 12,9 km/h (3 Bft) 100,00 %
28.11.2016 15:54 0,8 C 67 % 1026,7 hPa 0,0 l/m 4,3 km/h (1 Bft) NO 41 2 min 0,000 mm 0,0 UV-I 19 W/m -4,6 C 0,8 C 6,4 km/h (2 Bft) 97,56 %
28.11.2016 15:56 0,8 C 67 % 1026,7 hPa 0,0 l/m 6,2 km/h (2 Bft) O-NO 63 2 min 0,000 mm 0,0 UV-I 18 W/m -4,6 C 0,8 C 11,3 km/h (2 Bft) 98,00 %
28.11.2016 15:58 0,7 C 68 % 1026,8 hPa 0,0 l/m 8,1 km/h (2 Bft) O-NO 69 2 min 0,000 mm 0,0 UV-I 15 W/m -4,5 C -1,0 C 11,3 km/h (2 Bft) 98,00 %
28.11.2016 16:00 0,6 C 69 % 1026,8 hPa 0,0 l/m 9,5 km/h (2 Bft) O 90 2 min 0,000 mm 0,0 UV-I 13 W/m -4,4 C -2,4 C 16,1 km/h (3 Bft) 95,83 %
28.11.2016 16:02 0,6 C 69 % 1026,8 hPa 0,0 l/m 10,2 km/h (2 Bft) O-NO 64 0 min 0,026 mm 0,0 UV-I 11 W/m -4,4 C -2,9 C 17,7 km/h (3 Bft) 98,51 %
28.11.2016 16:04 0,6 C 69 % 1026,9 hPa 0,0 l/m 10,3 km/h (2 Bft) O-NO 71 0 min 0,000 mm 0,0 UV-I 11 W/m -4,4 C -3,0 C 14,5 km/h (3 Bft) 97,62 %
28.11.2016 16:06 0,6 C 69 % 1027,0 hPa 0,0 l/m 7,6 km/h (2 Bft) NO 53 0 min 0,000 mm 0,0 UV-I 10 W/m -4,4 C -0,6 C 9,7 km/h (2 Bft) 96,15 %
28.11.2016 16:08 0,6 C 71 % 1027,0 hPa 0,0 l/m 10,8 km/h (2 Bft) NO 55 0 min 0,000 mm 0,0 UV-I 9 W/m -4,0 C -3,4 C 17,7 km/h (3 Bft) 94,00 %
28.11.2016 16:10 0,4 C 72 % 1027,0 hPa 0,0 l/m 15,7 km/h (3 Bft) N-NO 26 0 min 0,000 mm 0,0 UV-I 9 W/m -4,0 C -6,9 C 19,3 km/h (3 Bft) 97,44 %
28.11.2016 16:12 0,4 C 72 % 1027,0 hPa 0,0 l/m 14,8 km/h (3 Bft) N-NO 27 0 min 0,000 mm 0,0 UV-I 7 W/m -4,0 C -6,4 C 19,3 km/h (3 Bft) 96,43 %
28.11.2016 16:14 0,3 C 71 % 1027,0 hPa 0,0 l/m 8,3 km/h (2 Bft) NO 34 0 min 0,000 mm 0,0 UV-I 7 W/m -4,3 C -1,6 C 17,7 km/h (3 Bft) 97,73 %
28.11.2016 16:16 0,2 C 71 % 1027,1 hPa 0,0 l/m 11,8 km/h (2 Bft) NO 36 0 min 0,000 mm 0,0 UV-I 7 W/m -4,4 C -4,6 C 19,3 km/h (3 Bft) 97,56 %
28.11.2016 16:18 0,2 C 72 % 1027,1 hPa 0,0 l/m 9,5 km/h (2 Bft) N-NO 31 0 min 0,000 mm 0,0 UV-I 7 W/m -4,2 C -2,8 C 16,1 km/h (3 Bft) 98,11 %
28.11.2016 16:20 0,1 C 71 % 1027,2 hPa 0,0 l/m 9,7 km/h (2 Bft) NO 45 0 min 0,000 mm 0,0 UV-I 7 W/m -4,5 C -3,1 C 16,1 km/h (3 Bft) 98,00 %
28.11.2016 16:22 0,1 C 72 % 1027,2 hPa 0,0 l/m 7,6 km/h (2 Bft) NO 42 0 min 0,000 mm 0,0 UV-I 5 W/m -4,3 C -1,1 C 11,3 km/h (2 Bft) 97,37 %
28.11.2016 16:24 0,1 C 73 % 1027,2 hPa 0,0 l/m 7,5 km/h (2 Bft) NO 49 0 min 0,000 mm 0,0 UV-I 5 W/m -4,2 C -1,0 C 14,5 km/h (3 Bft) 96,23 %
28.11.2016 16:26 0,1 C 73 % 1027,2 hPa 0,0 l/m 8,6 km/h (2 Bft) NO 44 0 min 0,000 mm 0,0 UV-I 5 W/m -4,2 C -2,1 C 12,9 km/h (3 Bft) 100,00 %
28.11.2016 16:28 0,1 C 73 % 1027,3 hPa 0,0 l/m 9,9 km/h (2 Bft) NO 44 0 min 0,000 mm 0,0 UV-I 4 W/m -4,2 C -3,3 C 14,5 km/h (3 Bft) 96,00 %
28.11.2016 16:30 0,1 C 72 % 1027,3 hPa 0,0 l/m 8,6 km/h (2 Bft) NO 37 0 min 0,000 mm 0,0 UV-I 0 W/m -4,3 C -2,1 C 14,5 km/h (3 Bft) 98,00 %
28.11.2016 16:32 0,1 C 73 % 1027,3 hPa 0,0 l/m 8,0 km/h (2 Bft) NO 40 0 min 0,000 mm 0,0 UV-I 0 W/m -4,2 C -1,5 C 12,9 km/h (3 Bft) 97,56 %
28.11.2016 16:34 0,1 C 72 % 1027,3 hPa 0,0 l/m 6,3 km/h (2 Bft) N-NO 24 0 min 0,000 mm 0,0 UV-I 0 W/m -4,3 C 0,1 C 8,0 km/h (2 Bft) 100,00 %
28.11.2016 16:36 0,0 C 74 % 1027,3 hPa 0,0 l/m 5,7 km/h (1 Bft) N-NO 17 0 min 0,000 mm 0,0 UV-I 0 W/m -4,1 C 0,0 C 11,3 km/h (2 Bft) 100,00 %
28.11.2016 16:38 0,0 C 74 % 1027,4 hPa 0,0 l/m 1,1 km/h (1 Bft) N-NO 17 0 min 0,000 mm 0,0 UV-I 0 W/m -4,1 C 0,0 C 4,8 km/h (1 Bft) 100,00 %
28.11.2016 16:40 0,0 C 74 % 1027,4 hPa 0,0 l/m 1,5 km/h (1 Bft) N-NO 17 0 min 0,000 mm 0,0 UV-I 0 W/m -4,1 C 0,0 C 3,2 km/h (1 Bft) 96,23 %
28.11.2016 16:42 0,0 C 74 % 1027,3 hPa 0,0 l/m 3,2 km/h (1 Bft) O-NO 66 0 min 0,000 mm 0,0 UV-I 0 W/m -4,1 C 0,0 C 6,4 km/h (2 Bft) 100,00 %
28.11.2016 16:44 0,1 C 71 % 1027,4 hPa 0,0 l/m 5,6 km/h (1 Bft) O-NO 62 0 min 0,000 mm 0,0 UV-I 0 W/m -4,5 C 0,1 C 8,0 km/h (2 Bft) 100,00 %
28.11.2016 16:46 0,1 C 71 % 1027,4 hPa 0,0 l/m 4,4 km/h (1 Bft) O-NO 57 0 min 0,000 mm 0,0 UV-I 0 W/m -4,5 C 0,1 C 6,4 km/h (2 Bft) 100,00 %
28.11.2016 16:48 0,1 C 73 % 1027,4 hPa 0,0 l/m 2,0 km/h (1 Bft) O-NO 67 0 min 0,000 mm 0,0 UV-I 0 W/m -4,2 C 0,1 C 3,2 km/h (1 Bft) 100,00 %
28.11.2016 16:50 0,1 C 73 % 1027,4 hPa 0,0 l/m 2,6 km/h (1 Bft) O-NO 67 0 min 0,000 mm 0,0 UV-I 0 W/m -4,2 C 0,1 C 4,8 km/h (1 Bft) 100,00 %
28.11.2016 16:52 0,0 C 73 % 1027,5 hPa 0,0 l/m 3,0 km/h (1 Bft) O-NO 67 0 min 0,000 mm 0,0 UV-I 0 W/m -4,2 C 0,0 C 3,2 km/h (1 Bft) 100,00 %
28.11.2016 16:54 -0,1 C 74 % 1027,5 hPa 0,0 l/m 3,7 km/h (1 Bft) O-NO 73 0 min 0,000 mm 0,0 UV-I 0 W/m -4,2 C -0,1 C 4,8 km/h (1 Bft) 100,00 %
28.11.2016 16:56 -0,1 C 74 % 1027,5 hPa 0,0 l/m 2,3 km/h (1 Bft) O-NO 73 0 min 0,000 mm 0,0 UV-I 0 W/m -4,2 C -0,1 C 3,2 km/h (1 Bft) 100,00 %
28.11.2016 16:58 -0,2 C 74 % 1027,5 hPa 0,0 l/m 2,0 km/h (1 Bft) O-NO 73 0 min 0,000 mm 0,0 UV-I 0 W/m -4,3 C -0,2 C 3,2 km/h (1 Bft) 97,87 %
28.11.2016 17:00 -0,2 C 75 % 1027,6 hPa 0,0 l/m 1,7 km/h (1 Bft) O-NO 73 0 min 0,000 mm 0,0 UV-I 0 W/m -4,1 C -0,2 C 3,2 km/h (1 Bft) 98,21 %
28.11.2016 17:02 -0,3 C 74 % 1027,7 hPa 0,0 l/m 1,7 km/h (1 Bft) O-NO 73 0 min 0,025 mm 0,0 UV-I 0 W/m -4,4 C -0,3 C 3,2 km/h (1 Bft) 97,37 %
28.11.2016 17:04 -0,3 C 75 % 1027,6 hPa 0,0 l/m 2,9 km/h (1 Bft) O-NO 73 0 min 0,000 mm 0,0 UV-I 0 W/m -4,2 C -0,3 C 4,8 km/h (1 Bft) 100,00 %
28.11.2016 17:06 -0,4 C 75 % 1027,7 hPa 0,0 l/m 2,9 km/h (1 Bft) O-NO 73 0 min 0,000 mm 0,0 UV-I 0 W/m -4,3 C -0,4 C 4,8 km/h (1 Bft) 100,00 %
28.11.2016 17:08 -0,5 C 76 % 1027,7 hPa 0,0 l/m 2,6 km/h (1 Bft) O-NO 73 0 min 0,000 mm 0,0 UV-I 0 W/m -4,2 C -0,5 C 4,8 km/h (1 Bft) 100,00 %
28.11.2016 17:10 -0,7 C 78 % 1027,7 hPa 0,0 l/m 2,6 km/h (1 Bft) O-NO 73 0 min 0,000 mm 0,0 UV-I 0 W/m -4,0 C -0,7 C 3,2 km/h (1 Bft) 97,14 %
28.11.2016 17:12 -0,8 C 78 % 1027,8 hPa 0,0 l/m 2,4 km/h (1 Bft) O-NO 73 0 min 0,000 mm 0,0 UV-I 0 W/m -4,1 C -0,8 C 3,2 km/h (1 Bft) 98,00 %
28.11.2016 17:14 -0,9 C 78 % 1027,8 hPa 0,0 l/m 2,2 km/h (1 Bft) O-NO 73 0 min 0,000 mm 0,0 UV-I 0 W/m -4,2 C -0,9 C 3,2 km/h (1 Bft) 100,00 %
28.11.2016 17:16 -0,9 C 79 % 1027,8 hPa 0,0 l/m 2,0 km/h (1 Bft) O-NO 73 0 min 0,000 mm 0,0 UV-I 0 W/m -4,1 C -0,9 C 3,2 km/h (1 Bft) 100,00 %
28.11.2016 17:18 -1,1 C 79 % 1027,8 hPa 0,0 l/m 1,9 km/h (1 Bft) O-NO 73 0 min 0,000 mm 0,0 UV-I 0 W/m -4,3 C -1,1 C 3,2 km/h (1 Bft) 100,00 %
28.11.2016 17:20 -1,1 C 79 % 1027,9 hPa 0,0 l/m 1,0 km/h (0 Bft) O-NO 73 0 min 0,000 mm 0,0 UV-I 0 W/m -4,3 C -1,1 C 3,2 km/h (1 Bft) 100,00 %
28.11.2016 17:22 -1,2 C 81 % 1027,9 hPa 0,0 l/m 0,2 km/h (0 Bft) O-NO 73 0 min 0,000 mm 0,0 UV-I 0 W/m -4,0 C -1,2 C 1,6 km/h (1 Bft) 95,74 %
28.11.2016 17:24 -1,2 C 82 % 1027,9 hPa 0,0 l/m 1,5 km/h (1 Bft) O-NO 73 0 min 0,000 mm 0,0 UV-I 0 W/m -3,9 C -1,2 C 3,2 km/h (1 Bft) 100,00 %
28.11.2016 17:26 -1,2 C 82 % 1028,0 hPa 0,0 l/m 1,6 km/h (1 Bft) O-NO 73 0 min 0,000 mm 0,0 UV-I 0 W/m -3,9 C -1,2 C 3,2 km/h (1 Bft) 100,00 %
28.11.2016 17:28 -1,2 C 81 % 1028,0 hPa 0,0 l/m 2,1 km/h (1 Bft) O-NO 73 0 min 0,000 mm 0,0 UV-I 0 W/m -4,0 C -1,2 C 3,2 km/h (1 Bft) 100,00 %
28.11.2016 17:30 -1,2 C 80 % 1028,0 hPa 0,0 l/m 0,7 km/h (0 Bft) O-NO 73 0 min 0,000 mm 0,0 UV-I 0 W/m -4,2 C -1,2 C 1,6 km/h (1 Bft) 100,00 %
28.11.2016 17:32 -1,2 C 79 % 1028,0 hPa 0,0 l/m 0,1 km/h (0 Bft) O-NO 73 0 min 0,000 mm 0,0 UV-I 0 W/m -4,4 C -1,2 C 1,6 km/h (1 Bft) 100,00 %
28.11.2016 17:34 -1,1 C 79 % 1028,1 hPa 0,0 l/m 0,1 km/h (0 Bft) O-NO 73 0 min 0,000 mm 0,0 UV-I 0 W/m -4,3 C -1,1 C 1,6 km/h (1 Bft) 100,00 %
28.11.2016 17:36 -1,1 C 79 % 1028,1 hPa 0,0 l/m 0,0 km/h (0 Bft) O-NO 73 0 min 0,000 mm 0,0 UV-I 0 W/m -4,3 C -1,1 C 0,0 km/h (0 Bft) 98,00 %
28.11.2016 17:38 -1,1 C 79 % 1028,1 hPa 0,0 l/m 0,3 km/h (0 Bft) O-NO 73 0 min 0,000 mm 0,0 UV-I 0 W/m -4,3 C -1,1 C 1,6 km/h (1 Bft) 97,87 %
28.11.2016 17:40 -1,1 C 80 % 1028,1 hPa 0,0 l/m 1,6 km/h (1 Bft) O-NO 73 0 min 0,000 mm 0,0 UV-I 0 W/m -4,1 C -1,1 C 3,2 km/h (1 Bft) 100,00 %
28.11.2016 17:42 -1,2 C 79 % 1028,1 hPa 0,0 l/m 2,0 km/h (1 Bft) O-NO 73 0 min 0,000 mm 0,0 UV-I 0 W/m -4,4 C -1,2 C 3,2 km/h (1 Bft) 98,00 %
28.11.2016 17:44 -1,2 C 79 % 1028,2 hPa 0,0 l/m 0,6 km/h (0 Bft) O-NO 73 0 min 0,000 mm 0,0 UV-I 0 W/m -4,4 C -1,2 C 1,6 km/h (1 Bft) 98,00 %
28.11.2016 17:46 -1,2 C 79 % 1028,2 hPa 0,0 l/m 0,3 km/h (0 Bft) O-NO 73 0 min 0,000 mm 0,0 UV-I 0 W/m -4,4 C -1,2 C 1,6 km/h (1 Bft) 100,00 %
28.11.2016 17:48 -1,2 C 80 % 1028,2 hPa 0,0 l/m 0,0 km/h (0 Bft) O-NO 73 0 min 0,000 mm 0,0 UV-I 0 W/m -4,2 C -1,2 C 0,0 km/h (0 Bft) 100,00 %
28.11.2016 17:50 -1,3 C 81 % 1028,3 hPa 0,0 l/m 0,0 km/h (0 Bft) O-NO 73 0 min 0,000 mm 0,0 UV-I 0 W/m -4,1 C -1,3 C 0,0 km/h (0 Bft) 97,56 %
28.11.2016 17:52 -1,3 C 81 % 1028,2 hPa 0,0 l/m 0,0 km/h (0 Bft) O-NO 73 0 min 0,000 mm 0,0 UV-I 0 W/m -4,1 C -1,3 C 0,0 km/h (0 Bft) 97,96 %
28.11.2016 17:54 -1,3 C 81 % 1028,4 hPa 0,0 l/m 0,0 km/h (0 Bft) O-NO 73 0 min 0,000 mm 0,0 UV-I 0 W/m -4,1 C -1,3 C 0,0 km/h (0 Bft) 100,00 %
28.11.2016 17:56 -1,4 C 81 % 1028,4 hPa 0,0 l/m 0,0 km/h (0 Bft) O-NO 73 0 min 0,000 mm 0,0 UV-I 0 W/m -4,2 C -1,4 C 0,0 km/h (0 Bft) 97,87 %
28.11.2016 17:58 -1,4 C 82 % 1028,4 hPa 0,0 l/m 0,0 km/h (0 Bft) O-NO 73 0 min 0,000 mm 0,0 UV-I 0 W/m -4,1 C -1,4 C 0,0 km/h (0 Bft) 100,00 %
28.11.2016 18:00 -1,4 C 82 % 1028,4 hPa 0,0 l/m 0,8 km/h (0 Bft) O-NO 73 0 min 0,000 mm 0,0 UV-I 0 W/m -4,1 C -1,4 C 1,6 km/h (1 Bft) 97,87 %
28.11.2016 18:02 -1,5 C 83 % 1028,5 hPa 0,0 l/m 0,1 km/h (0 Bft) O-NO 73 0 min 0,000 mm 0,0 UV-I 0 W/m -4,0 C -1,5 C 1,6 km/h (1 Bft) 97,22 %
28.11.2016 18:04 -1,6 C 81 % 1028,4 hPa 0,0 l/m 0,0 km/h (0 Bft) O-NO 73 0 min 0,000 mm 0,0 UV-I 0 W/m -4,4 C -1,6 C 0,0 km/h (0 Bft) 98,51 %
28.11.2016 18:06 -1,6 C 81 % 1028,5 hPa 0,0 l/m 0,0 km/h (0 Bft) O-NO 73 0 min 0,000 mm 0,0 UV-I 0 W/m -4,4 C -1,6 C 0,0 km/h (0 Bft) 95,74 %
28.11.2016 18:08 -1,6 C 82 % 1028,5 hPa 0,0 l/m 0,0 km/h (0 Bft) O-NO 73 0 min 0,000 mm 0,0 UV-I 0 W/m -4,3 C -1,6 C 0,0 km/h (0 Bft) 97,44 %
28.11.2016 18:10 -1,6 C 84 % 1028,5 hPa 0,0 l/m 0,0 km/h (0 Bft) O-NO 73 0 min 0,000 mm 0,0 UV-I 0 W/m -3,9 C -1,6 C 0,0 km/h (0 Bft) 97,87 %
28.11.2016 18:12 -1,6 C 84 % 1028,5 hPa 0,0 l/m 0,0 km/h (0 Bft) O-NO 73 0 min 0,000 mm 0,0 UV-I 0 W/m -3,9 C -1,6 C 0,0 km/h (0 Bft) 94,23 %
28.11.2016 18:14 -1,6 C 84 % 1028,6 hPa 0,0 l/m 0,0 km/h (0 Bft) O-NO 73 0 min 0,000 mm 0,0 UV-I 0 W/m -3,9 C -1,6 C 0,0 km/h (0 Bft) 98,00 %
28.11.2016 18:16 -1,6 C 84 % 1028,6 hPa 0,0 l/m 0,0 km/h (0 Bft) O-NO 73 0 min 0,000 mm 0,0 UV-I 0 W/m -3,9 C -1,6 C 0,0 km/h (0 Bft) 97,87 %
28.11.2016 18:18 -1,7 C 84 % 1028,6 hPa 0,0 l/m 0,2 km/h (0 Bft) O-NO 73 0 min 0,000 mm 0,0 UV-I 0 W/m -4,0 C -1,7 C 1,6 km/h (1 Bft) 95,74 %
28.11.2016 18:20 -1,7 C 85 % 1028,7 hPa 0,0 l/m 1,4 km/h (1 Bft) O-NO 73 0 min 0,000 mm 0,0 UV-I 0 W/m -3,9 C -1,7 C 3,2 km/h (1 Bft) 97,37 %
28.11.2016 18:22 -1,7 C 85 % 1028,8 hPa 0,0 l/m 0,4 km/h (0 Bft) O-NO 73 0 min 0,000 mm 0,0 UV-I 0 W/m -3,9 C -1,7 C 1,6 km/h (1 Bft) 96,00 %
28.11.2016 18:24 -1,7 C 87 % 1028,8 hPa 0,0 l/m 0,0 km/h (0 Bft) O-NO 73 0 min 0,000 mm 0,0 UV-I 0 W/m -3,6 C -1,7 C 0,0 km/h (0 Bft) 98,00 %
28.11.2016 18:26 -1,7 C 88 % 1028,9 hPa 0,0 l/m 0,0 km/h (0 Bft) O-NO 73 0 min 0,000 mm 0,0 UV-I 0 W/m -3,4 C -1,7 C 0,0 km/h (0 Bft) 97,56 %
28.11.2016 18:28 -1,7 C 88 % 1028,9 hPa 0,0 l/m 0,0 km/h (0 Bft) O-NO 73 0 min 0,000 mm 0,0 UV-I 0 W/m -3,4 C -1,7 C 0,0 km/h (0 Bft) 95,74 %
28.11.2016 18:30 -1,7 C 88 % 1028,9 hPa 0,0 l/m 0,0 km/h (0 Bft) O-NO 73 0 min 0,000 mm 0,0 UV-I 0 W/m -3,4 C -1,7 C 0,0 km/h (0 Bft) 98,00 %
28.11.2016 18:32 -1,8 C 88 % 1028,9 hPa 0,0 l/m 1,4 km/h (1 Bft) O-NO 73 0 min 0,000 mm 0,0 UV-I 0 W/m -3,5 C -1,8 C 3,2 km/h (1 Bft) 98,11 %
28.11.2016 18:34 -1,8 C 87 % 1028,9 hPa 0,0 l/m 1,8 km/h (1 Bft) O-NO 73 0 min 0,000 mm 0,0 UV-I 0 W/m -3,7 C -1,8 C 3,2 km/h (1 Bft) 100,00 %
28.11.2016 18:36 -1,8 C 88 % 1029,0 hPa 0,0 l/m 0,9 km/h (0 Bft) O-NO 73 0 min 0,000 mm 0,0 UV-I 0 W/m -3,5 C -1,8 C 3,2 km/h (1 Bft) 94,29 %
28.11.2016 18:38 -1,9 C 87 % 1029,0 hPa 0,0 l/m 0,4 km/h (0 Bft) O-NO 73 0 min 0,000 mm 0,0 UV-I 0 W/m -3,8 C -1,9 C 1,6 km/h (1 Bft) 100,00 %
28.11.2016 18:40 -1,8 C 87 % 1029,0 hPa 0,0 l/m 0,4 km/h (0 Bft) NO 55 0 min 0,000 mm 0,0 UV-I 0 W/m -3,7 C -1,8 C 1,6 km/h (1 Bft) 100,00 %
28.11.2016 18:42 -1,9 C 86 % 1029,0 hPa 0,0 l/m 0,4 km/h (0 Bft) NO 55 0 min 0,000 mm 0,0 UV-I 0 W/m -3,9 C -1,9 C 3,2 km/h (1 Bft) 100,00 %
28.11.2016 18:44 -1,9 C 87 % 1029,0 hPa 0,0 l/m 0,0 km/h (0 Bft) NO 55 0 min 0,000 mm 0,0 UV-I 0 W/m -3,8 C -1,9 C 0,0 km/h (0 Bft) 100,00 %
28.11.2016 18:46 -1,9 C 87 % 1029,0 hPa 0,0 l/m 0,0 km/h (0 Bft) NO 55 0 min 0,000 mm 0,0 UV-I 0 W/m -3,8 C -1,9 C 0,0 km/h (0 Bft) 100,00 %
28.11.2016 18:48 -2,0 C 88 % 1029,0 hPa 0,0 l/m 0,1 km/h (0 Bft) NO 55 0 min 0,000 mm 0,0 UV-I 0 W/m -3,7 C -2,0 C 1,6 km/h (1 Bft) 100,00 %
28.11.2016 18:50 -2,0 C 88 % 1029,0 hPa 0,0 l/m 0,5 km/h (0 Bft) NO 55 0 min 0,000 mm 0,0 UV-I 0 W/m -3,7 C -2,0 C 3,2 km/h (1 Bft) 97,87 %
28.11.2016 18:52 -2,0 C 88 % 1029,0 hPa 0,0 l/m 1,5 km/h (1 Bft) NO 55 0 min 0,000 mm 0,0 UV-I 0 W/m -3,7 C -2,0 C 3,2 km/h (1 Bft) 98,00 %
28.11.2016 18:54 -2,0 C 88 % 1029,1 hPa 0,0 l/m 1,9 km/h (1 Bft) NO 55 0 min 0,000 mm 0,0 UV-I 0 W/m -3,7 C -2,0 C 3,2 km/h (1 Bft) 97,37 %
28.11.2016 18:56 -1,9 C 87 % 1029,1 hPa 0,0 l/m 1,1 km/h (1 Bft) NO 55 0 min 0,000 mm 0,0 UV-I 0 W/m -3,8 C -1,9 C 3,2 km/h (1 Bft) 98,00 %
28.11.2016 18:58 -1,9 C 87 % 1029,1 hPa 0,0 l/m 0,8 km/h (0 Bft) NO 55 0 min 0,000 mm 0,0 UV-I 0 W/m -3,8 C -1,9 C 3,2 km/h (1 Bft) 100,00 %
28.11.2016 19:00 -1,9 C 86 % 1029,2 hPa 0,0 l/m 0,3 km/h (0 Bft) NO 55 0 min 0,000 mm 0,0 UV-I 0 W/m -3,9 C -1,9 C 1,6 km/h (1 Bft) 100,00 %
28.11.2016 19:02 -2,0 C 86 % 1029,2 hPa 0,0 l/m 1,4 km/h (1 Bft) NO 55 0 min 0,000 mm 0,0 UV-I 0 W/m -4,0 C -2,0 C 3,2 km/h (1 Bft) 100,00 %
28.11.2016 19:04 -2,0 C 86 % 1029,2 hPa 0,0 l/m 1,6 km/h (1 Bft) NO 55 0 min 0,000 mm 0,0 UV-I 0 W/m -4,0 C -2,0 C 3,2 km/h (1 Bft) 100,00 %
28.11.2016 19:06 -2,1 C 86 % 1029,2 hPa 0,0 l/m 1,9 km/h (1 Bft) NO 55 0 min 0,000 mm 0,0 UV-I 0 W/m -4,1 C -2,1 C 3,2 km/h (1 Bft) 98,11 %
28.11.2016 19:08 -2,1 C 86 % 1029,3 hPa 0,0 l/m 1,3 km/h (1 Bft) NO 55 0 min 0,000 mm 0,0 UV-I 0 W/m -4,1 C -2,1 C 3,2 km/h (1 Bft) 100,00 %
28.11.2016 19:10 -2,1 C 86 % 1029,3 hPa 0,0 l/m 1,0 km/h (0 Bft) NO 55 0 min 0,000 mm 0,0 UV-I 0 W/m -4,1 C -2,1 C 1,6 km/h (1 Bft) 100,00 %
28.11.2016 19:12 -2,2 C 86 % 1029,3 hPa 0,0 l/m 1,6 km/h (1 Bft) O-NO 78 0 min 0,000 mm 0,0 UV-I 0 W/m -4,2 C -2,2 C 3,2 km/h (1 Bft) 100,00 %
28.11.2016 19:14 -2,2 C 86 % 1029,3 hPa 0,0 l/m 1,4 km/h (1 Bft) O 81 0 min 0,000 mm 0,0 UV-I 0 W/m -4,2 C -2,2 C 3,2 km/h (1 Bft) 98,21 %
28.11.2016 19:16 -2,2 C 86 % 1029,3 hPa 0,0 l/m 1,3 km/h (1 Bft) O 81 0 min 0,000 mm 0,0 UV-I 0 W/m -4,2 C -2,2 C 1,6 km/h (1 Bft) 100,00 %
28.11.2016 19:18 -2,2 C 86 % 1029,3 hPa 0,0 l/m 1,2 km/h (1 Bft) O 81 0 min 0,000 mm 0,0 UV-I 0 W/m -4,2 C -2,2 C 3,2 km/h (1 Bft) 100,00 %
28.11.2016 19:20 -2,2 C 86 % 1029,3 hPa 0,0 l/m 1,5 km/h (1 Bft) O-SO 107 0 min 0,000 mm 0,0 UV-I 0 W/m -4,2 C -2,2 C 3,2 km/h (1 Bft) 95,74 %
28.11.2016 19:22 -2,2 C 85 % 1029,3 hPa 0,0 l/m 2,1 km/h (1 Bft) O-SO 122 0 min 0,000 mm 0,0 UV-I 0 W/m -4,4 C -2,2 C 3,2 km/h (1 Bft) 100,00 %
28.11.2016 19:24 -2,1 C 85 % 1029,3 hPa 0,0 l/m 1,2 km/h (1 Bft) O-SO 122 0 min 0,000 mm 0,0 UV-I 0 W/m -4,3 C -2,1 C 3,2 km/h (1 Bft) 100,00 %
28.11.2016 19:26 -2,1 C 84 % 1029,4 hPa 0,0 l/m 1,5 km/h (1 Bft) O-SO 122 0 min 0,000 mm 0,0 UV-I 0 W/m -4,4 C -2,1 C 3,2 km/h (1 Bft) 97,44 %
28.11.2016 19:28 -2,1 C 84 % 1029,4 hPa 0,0 l/m 0,4 km/h (0 Bft) O-SO 122 0 min 0,000 mm 0,0 UV-I 0 W/m -4,4 C -2,1 C 1,6 km/h (1 Bft) 97,87 %
28.11.2016 19:30 -2,1 C 84 % 1029,4 hPa 0,0 l/m 0,6 km/h (0 Bft) O-SO 122 0 min 0,000 mm 0,0 UV-I 0 W/m -4,4 C -2,1 C 1,6 km/h (1 Bft) 100,00 %
28.11.2016 19:32 -2,1 C 84 % 1029,4 hPa 0,0 l/m 0,7 km/h (0 Bft) O-SO 122 0 min 0,000 mm 0,0 UV-I 0 W/m -4,4 C -2,1 C 1,6 km/h (1 Bft) 100,00 %
28.11.2016 19:34 -2,1 C 85 % 1029,4 hPa 0,0 l/m 0,6 km/h (0 Bft) O-SO 122 0 min 0,000 mm 0,0 UV-I 0 W/m -4,3 C -2,1 C 1,6 km/h (1 Bft) 97,87 %
28.11.2016 19:36 -2,0 C 85 % 1029,4 hPa 0,0 l/m 0,7 km/h (0 Bft) O-SO 122 0 min 0,000 mm 0,0 UV-I 0 W/m -4,2 C -2,0 C 1,6 km/h (1 Bft) 100,00 %
28.11.2016 19:38 -2,1 C 85 % 1029,4 hPa 0,0 l/m 2,3 km/h (1 Bft) O-SO 122 0 min 0,000 mm 0,0 UV-I 0 W/m -4,3 C -2,1 C 4,8 km/h (1 Bft) 98,11 %
28.11.2016 19:40 -2,0 C 85 % 1029,4 hPa 0,0 l/m 1,1 km/h (1 Bft) O-SO 122 0 min 0,000 mm 0,0 UV-I 0 W/m -4,2 C -2,0 C 3,2 km/h (1 Bft) 100,00 %
28.11.2016 19:42 -1,9 C 84 % 1029,5 hPa 0,0 l/m 0,5 km/h (0 Bft) O-SO 122 0 min 0,000 mm 0,0 UV-I 0 W/m -4,2 C -1,9 C 3,2 km/h (1 Bft) 97,37 %
28.11.2016 19:44 -1,9 C 84 % 1029,5 hPa 0,0 l/m 0,7 km/h (0 Bft) O-SO 122 0 min 0,000 mm 0,0 UV-I 0 W/m -4,2 C -1,9 C 1,6 km/h (1 Bft) 98,00 %
28.11.2016 19:46 -1,9 C 85 % 1029,4 hPa 0,0 l/m 1,6 km/h (1 Bft) O-SO 122 0 min 0,000 mm 0,0 UV-I 0 W/m -4,1 C -1,9 C 3,2 km/h (1 Bft) 100,00 %
28.11.2016 19:48 -1,9 C 84 % 1029,4 hPa 0,0 l/m 0,7 km/h (0 Bft) O-SO 122 0 min 0,000 mm 0,0 UV-I 0 W/m -4,2 C -1,9 C 1,6 km/h (1 Bft) 97,73 %
28.11.2016 19:50 -1,9 C 84 % 1029,5 hPa 0,0 l/m 0,6 km/h (0 Bft) O-SO 122 0 min 0,000 mm 0,0 UV-I 0 W/m -4,2 C -1,9 C 3,2 km/h (1 Bft) 97,87 %
28.11.2016 19:52 -1,9 C 84 % 1029,5 hPa 0,0 l/m 0,3 km/h (0 Bft) O-SO 122 0 min 0,000 mm 0,0 UV-I 0 W/m -4,2 C -1,9 C 3,2 km/h (1 Bft) 100,00 %
28.11.2016 19:54 -1,9 C 84 % 1029,5 hPa 0,0 l/m 1,6 km/h (1 Bft) O-SO 122 0 min 0,000 mm 0,0 UV-I 0 W/m -4,2 C -1,9 C 4,8 km/h (1 Bft) 97,56 %
28.11.2016 19:56 -1,9 C 85 % 1029,6 hPa 0,0 l/m 2,0 km/h (1 Bft) O-SO 122 0 min 0,000 mm 0,0 UV-I 0 W/m -4,1 C -1,9 C 4,8 km/h (1 Bft) 95,74 %
28.11.2016 19:58 -1,8 C 84 % 1029,6 hPa 0,0 l/m 1,5 km/h (1 Bft) O-SO 122 0 min 0,000 mm 0,0 UV-I 0 W/m -4,1 C -1,8 C 3,2 km/h (1 Bft) 97,87 %
28.11.2016 20:00 -1,8 C 84 % 1029,6 hPa 0,0 l/m 2,3 km/h (1 Bft) O-SO 122 0 min 0,000 mm 0,0 UV-I 0 W/m -4,1 C -1,8 C 3,2 km/h (1 Bft) 97,87 %
28.11.2016 20:02 -1,8 C 84 % 1029,6 hPa 0,0 l/m 2,9 km/h (1 Bft) O-SO 123 0 min 0,000 mm 0,0 UV-I 0 W/m -4,1 C -1,8 C 4,8 km/h (1 Bft) 96,00 %
28.11.2016 20:04 -1,7 C 84 % 1029,7 hPa 0,0 l/m 3,1 km/h (1 Bft) O-SO 123 0 min 0,000 mm 0,0 UV-I 0 W/m -4,0 C -1,7 C 4,8 km/h (1 Bft) 94,00 %
28.11.2016 20:06 -1,7 C 83 % 1029,7 hPa 0,0 l/m 2,5 km/h (1 Bft) O-SO 123 0 min 0,000 mm 0,0 UV-I 0 W/m -4,2 C -1,7 C 4,8 km/h (1 Bft) 95,74 %
28.11.2016 20:08 -1,7 C 83 % 1029,7 hPa 0,0 l/m 2,1 km/h (1 Bft) SO 130 0 min 0,000 mm 0,0 UV-I 0 W/m -4,2 C -1,7 C 4,8 km/h (1 Bft) 97,87 %
28.11.2016 20:10 -1,7 C 84 % 1029,7 hPa 0,0 l/m 2,4 km/h (1 Bft) SO 133 0 min 0,000 mm 0,0 UV-I 0 W/m -4,0 C -1,7 C 3,2 km/h (1 Bft) 97,44 %
28.11.2016 20:12 -1,6 C 84 % 1029,7 hPa 0,0 l/m 1,8 km/h (1 Bft) SO 133 0 min 0,000 mm 0,0 UV-I 0 W/m -3,9 C -1,6 C 3,2 km/h (1 Bft) 96,43 %
28.11.2016 20:14 -1,6 C 84 % 1029,7 hPa 0,0 l/m 1,9 km/h (1 Bft) SO 133 0 min 0,000 mm 0,0 UV-I 0 W/m -3,9 C -1,6 C 3,2 km/h (1 Bft) 97,37 %
28.11.2016 20:16 -1,6 C 84 % 1029,7 hPa 0,0 l/m 0,7 km/h (0 Bft) SO 133 0 min 0,000 mm 0,0 UV-I 0 W/m -3,9 C -1,6 C 1,6 km/h (1 Bft) 98,11 %
28.11.2016 20:18 -1,6 C 84 % 1029,6 hPa 0,0 l/m 0,6 km/h (0 Bft) SO 133 0 min 0,000 mm 0,0 UV-I 0 W/m -3,9 C -1,6 C 1,6 km/h (1 Bft) 98,00 %
28.11.2016 20:20 -1,6 C 84 % 1029,7 hPa 0,0 l/m 0,1 km/h (0 Bft) SO 133 0 min 0,000 mm 0,0 UV-I 0 W/m -3,9 C -1,6 C 1,6 km/h (1 Bft) 97,37 %
28.11.2016 20:22 -1,6 C 83 % 1029,7 hPa 0,0 l/m 0,0 km/h (0 Bft) SO 133 0 min 0,000 mm 0,0 UV-I 0 W/m -4,1 C -1,6 C 0,0 km/h (0 Bft) 98,00 %
28.11.2016 20:24 -1,5 C 82 % 1029,7 hPa 0,0 l/m 0,0 km/h (0 Bft) SO 133 0 min 0,000 mm 0,0 UV-I 0 W/m -4,2 C -1,5 C 0,0 km/h (0 Bft) 97,87 %
28.11.2016 20:26 -1,4 C 81 % 1029,8 hPa 0,0 l/m 0,0 km/h (0 Bft) SO 133 0 min 0,000 mm 0,0 UV-I 0 W/m -4,2 C -1,4 C 0,0 km/h (0 Bft) 97,87 %
28.11.2016 20:28 -1,4 C 82 % 1029,8 hPa 0,0 l/m 0,6 km/h (0 Bft) SO 133 0 min 0,000 mm 0,0 UV-I 0 W/m -4,1 C -1,4 C 1,6 km/h (1 Bft) 100,00 %
28.11.2016 20:30 -1,3 C 81 % 1029,8 hPa 0,0 l/m 1,0 km/h (0 Bft) SO 133 0 min 0,000 mm 0,0 UV-I 0 W/m -4,1 C -1,3 C 3,2 km/h (1 Bft) 100,00 %
28.11.2016 20:32 -1,3 C 81 % 1029,9 hPa 0,0 l/m 0,8 km/h (0 Bft) SO 133 0 min 0,000 mm 0,0 UV-I 0 W/m -4,1 C -1,3 C 3,2 km/h (1 Bft) 94,00 %
28.11.2016 20:34 -1,3 C 80 % 1029,9 hPa 0,0 l/m 1,5 km/h (1 Bft) SO 142 0 min 0,000 mm 0,0 UV-I 0 W/m -4,3 C -1,3 C 3,2 km/h (1 Bft) 100,00 %
28.11.2016 20:36 -1,3 C 80 % 1029,9 hPa 0,0 l/m 3,4 km/h (1 Bft) W-SW 255 0 min 0,000 mm 0,0 UV-I 0 W/m -4,3 C -1,3 C 4,8 km/h (1 Bft) 100,00 %
28.11.2016 20:38 -1,2 C 79 % 1029,9 hPa 0,0 l/m 1,8 km/h (1 Bft) W-SW 255 0 min 0,000 mm 0,0 UV-I 0 W/m -4,4 C -1,2 C 4,8 km/h (1 Bft) 100,00 %
28.11.2016 20:40 -1,2 C 79 % 1029,9 hPa 0,0 l/m 1,5 km/h (1 Bft) W-SW 255 0 min 0,000 mm 0,0 UV-I 0 W/m -4,4 C -1,2 C 3,2 km/h (1 Bft) 97,56 %
28.11.2016 20:42 -1,2 C 79 % 1030,0 hPa 0,0 l/m 0,3 km/h (0 Bft) W-SW 255 0 min 0,000 mm 0,0 UV-I 0 W/m -4,4 C -1,2 C 1,6 km/h (1 Bft) 98,11 %
28.11.2016 20:44 -1,2 C 80 % 1030,0 hPa 0,0 l/m 0,3 km/h (0 Bft) W-SW 255 0 min 0,000 mm 0,0 UV-I 0 W/m -4,2 C -1,2 C 1,6 km/h (1 Bft) 98,00 %
28.11.2016 20:46 -1,2 C 81 % 1030,0 hPa 0,0 l/m 0,8 km/h (0 Bft) W-SW 255 0 min 0,000 mm 0,0 UV-I 0 W/m -4,0 C -1,2 C 1,6 km/h (1 Bft) 97,73 %
28.11.2016 20:48 -1,2 C 81 % 1030,0 hPa 0,0 l/m 0,0 km/h (0 Bft) W-SW 255 0 min 0,000 mm 0,0 UV-I 0 W/m -4,0 C -1,2 C 0,0 km/h (0 Bft) 100,00 %
28.11.2016 20:50 -1,2 C 80 % 1030,1 hPa 0,0 l/m 0,0 km/h (0 Bft) W-SW 255 0 min 0,000 mm 0,0 UV-I 0 W/m -4,2 C -1,2 C 0,0 km/h (0 Bft) 100,00 %
28.11.2016 20:52 -1,2 C 80 % 1030,1 hPa 0,0 l/m 0,3 km/h (0 Bft) W-SW 255 0 min 0,000 mm 0,0 UV-I 0 W/m -4,2 C -1,2 C 3,2 km/h (1 Bft) 100,00 %
28.11.2016 20:54 -1,1 C 79 % 1030,2 hPa 0,0 l/m 0,6 km/h (0 Bft) W-SW 255 0 min 0,000 mm 0,0 UV-I 0 W/m -4,3 C -1,1 C 1,6 km/h (1 Bft) 100,00 %
28.11.2016 20:56 -1,1 C 79 % 1030,2 hPa 0,0 l/m 0,4 km/h (0 Bft) W-SW 255 0 min 0,000 mm 0,0 UV-I 0 W/m -4,3 C -1,1 C 1,6 km/h (1 Bft) 100,00 %
28.11.2016 20:58 -1,1 C 79 % 1030,2 hPa 0,0 l/m 0,0 km/h (0 Bft) W-SW 255 0 min 0,000 mm 0,0 UV-I 0 W/m -4,3 C -1,1 C 1,6 km/h (1 Bft) 100,00 %
28.11.2016 21:00 -1,1 C 80 % 1030,2 hPa 0,0 l/m 0,0 km/h (0 Bft) W-SW 255 0 min 0,000 mm 0,0 UV-I 0 W/m -4,1 C -1,1 C 0,0 km/h (0 Bft) 100,00 %
28.11.2016 21:02 -1,1 C 80 % 1030,2 hPa 0,0 l/m 0,2 km/h (0 Bft) W-SW 255 0 min 0,000 mm 0,0 UV-I 0 W/m -4,1 C -1,1 C 1,6 km/h (1 Bft) 100,00 %
28.11.2016 21:04 -1,2 C 81 % 1030,2 hPa 0,0 l/m 0,2 km/h (0 Bft) W-SW 255 0 min 0,000 mm 0,0 UV-I 0 W/m -4,0 C -1,2 C 1,6 km/h (1 Bft) 100,00 %
28.11.2016 21:06 -1,1 C 80 % 1030,3 hPa 0,0 l/m 0,0 km/h (0 Bft) W-SW 255 0 min 0,000 mm 0,0 UV-I 0 W/m -4,1 C -1,1 C 0,0 km/h (0 Bft) 100,00 %
28.11.2016 21:08 -1,1 C 80 % 1030,3 hPa 0,0 l/m 0,0 km/h (0 Bft) W-SW 255 0 min 0,000 mm 0,0 UV-I 0 W/m -4,1 C -1,1 C 0,0 km/h (0 Bft) 97,87 %
28.11.2016 21:10 -1,1 C 81 % 1030,3 hPa 0,0 l/m 0,0 km/h (0 Bft) W-SW 255 0 min 0,000 mm 0,0 UV-I 0 W/m -3,9 C -1,1 C 0,0 km/h (0 Bft) 100,00 %
28.11.2016 21:12 -1,1 C 81 % 1030,3 hPa 0,0 l/m 0,2 km/h (0 Bft) W-SW 255 0 min 0,000 mm 0,0 UV-I 0 W/m -3,9 C -1,1 C 1,6 km/h (1 Bft) 100,00 %
28.11.2016 21:14 -1,1 C 82 % 1030,3 hPa 0,0 l/m 0,2 km/h (0 Bft) W-SW 255 0 min 0,000 mm 0,0 UV-I 0 W/m -3,8 C -1,1 C 1,6 km/h (1 Bft) 100,00 %
28.11.2016 21:16 -1,1 C 82 % 1030,3 hPa 0,0 l/m 0,0 km/h (0 Bft) W-SW 255 0 min 0,000 mm 0,0 UV-I 0 W/m -3,8 C -1,1 C 1,6 km/h (1 Bft) 98,11 %
28.11.2016 21:18 -1,1 C 82 % 1030,3 hPa 0,0 l/m 1,3 km/h (1 Bft) W-SW 255 0 min 0,000 mm 0,0 UV-I 0 W/m -3,8 C -1,1 C 3,2 km/h (1 Bft) 100,00 %
28.11.2016 21:20 -1,1 C 82 % 1030,4 hPa 0,0 l/m 0,5 km/h (0 Bft) W-SW 255 0 min 0,000 mm 0,0 UV-I 0 W/m -3,8 C -1,1 C 1,6 km/h (1 Bft) 100,00 %
28.11.2016 21:22 -1,1 C 82 % 1030,4 hPa 0,0 l/m 0,0 km/h (0 Bft) W-SW 255 0 min 0,000 mm 0,0 UV-I 0 W/m -3,8 C -1,1 C 0,0 km/h (0 Bft) 100,00 %
28.11.2016 21:24 -1,1 C 81 % 1030,4 hPa 0,0 l/m 0,0 km/h (0 Bft) W-SW 255 0 min 0,000 mm 0,0 UV-I 0 W/m -3,9 C -1,1 C 0,0 km/h (0 Bft) 100,00 %
28.11.2016 21:26 -1,1 C 82 % 1030,4 hPa 0,0 l/m 0,0 km/h (0 Bft) W-SW 255 0 min 0,000 mm 0,0 UV-I 0 W/m -3,8 C -1,1 C 0,0 km/h (0 Bft) 100,00 %
28.11.2016 21:28 -1,1 C 82 % 1030,4 hPa 0,0 l/m 0,0 km/h (0 Bft) W-SW 255 0 min 0,000 mm 0,0 UV-I 0 W/m -3,8 C -1,1 C 0,0 km/h (0 Bft) 97,87 %
28.11.2016 21:30 -1,1 C 81 % 1030,4 hPa 0,0 l/m 0,0 km/h (0 Bft) W-SW 255 0 min 0,000 mm 0,0 UV-I 0 W/m -3,9 C -1,1 C 0,0 km/h (0 Bft) 100,00 %
28.11.2016 21:32 -1,1 C 81 % 1030,4 hPa 0,0 l/m 0,0 km/h (0 Bft) W-SW 255 0 min 0,000 mm 0,0 UV-I 0 W/m -3,9 C -1,1 C 0,0 km/h (0 Bft) 100,00 %
28.11.2016 21:34 -1,1 C 80 % 1030,4 hPa 0,0 l/m 1,2 km/h (1 Bft) W-SW 255 0 min 0,000 mm 0,0 UV-I 0 W/m -4,1 C -1,1 C 1,6 km/h (1 Bft) 100,00 %
28.11.2016 21:36 -1,0 C 81 % 1030,4 hPa 0,0 l/m 0,4 km/h (0 Bft) W-SW 255 0 min 0,000 mm 0,0 UV-I 0 W/m -3,8 C -1,0 C 1,6 km/h (1 Bft) 100,00 %
28.11.2016 21:38 -1,0 C 80 % 1030,5 hPa 0,0 l/m 1,5 km/h (1 Bft) W 271 0 min 0,000 mm 0,0 UV-I 0 W/m -4,0 C -1,0 C 3,2 km/h (1 Bft) 100,00 %
28.11.2016 21:40 -1,0 C 78 % 1030,5 hPa 0,0 l/m 3,7 km/h (1 Bft) NO 55 0 min 0,000 mm 0,0 UV-I 0 W/m -4,3 C -1,0 C 6,4 km/h (2 Bft) 98,00 %
28.11.2016 21:42 -0,9 C 78 % 1030,4 hPa 0,0 l/m 2,6 km/h (1 Bft) N 360 0 min 0,000 mm 0,0 UV-I 0 W/m -4,2 C -0,9 C 8,0 km/h (2 Bft) 97,14 %
28.11.2016 21:44 -0,8 C 76 % 1030,4 hPa 0,0 l/m 5,6 km/h (1 Bft) NO 38 0 min 0,000 mm 0,0 UV-I 0 W/m -4,5 C -0,8 C 8,0 km/h (2 Bft) 98,21 %
28.11.2016 21:46 -0,8 C 75 % 1030,4 hPa 0,0 l/m 8,8 km/h (2 Bft) N-NO 14 0 min 0,000 mm 0,0 UV-I 0 W/m -4,7 C -3,3 C 14,5 km/h (3 Bft) 97,56 %
28.11.2016 21:48 -0,7 C 74 % 1030,4 hPa 0,0 l/m 10,5 km/h (2 Bft) N-NO 31 0 min 0,000 mm 0,0 UV-I 0 W/m -4,7 C -4,6 C 17,7 km/h (3 Bft) 100,00 %
28.11.2016 21:50 -0,7 C 73 % 1030,4 hPa 0,0 l/m 9,1 km/h (2 Bft) N-NO 22 0 min 0,000 mm 0,0 UV-I 0 W/m -4,9 C -3,4 C 16,1 km/h (3 Bft) 100,00 %
28.11.2016 21:52 -0,7 C 76 % 1030,4 hPa 0,0 l/m 0,8 km/h (0 Bft) N-NO 13 0 min 0,000 mm 0,0 UV-I 0 W/m -4,4 C -0,7 C 3,2 km/h (1 Bft) 100,00 %
28.11.2016 21:54 -0,8 C 77 % 1030,5 hPa 0,0 l/m 1,9 km/h (1 Bft) N-NO 12 0 min 0,000 mm 0,0 UV-I 0 W/m -4,3 C -0,8 C 4,8 km/h (1 Bft) 100,00 %
28.11.2016 21:56 -0,9 C 78 % 1030,5 hPa 0,0 l/m 1,4 km/h (1 Bft) N-NO 15 0 min 0,000 mm 0,0 UV-I 0 W/m -4,2 C -0,9 C 4,8 km/h (1 Bft) 100,00 %
28.11.2016 21:58 -1,0 C 78 % 1030,5 hPa 0,0 l/m 1,5 km/h (1 Bft) N-NO 15 0 min 0,000 mm 0,0 UV-I 0 W/m -4,3 C -1,0 C 3,2 km/h (1 Bft) 98,00 %
28.11.2016 22:00 -1,0 C 78 % 1030,5 hPa 0,0 l/m 0,1 km/h (0 Bft) N-NO 15 0 min 0,000 mm 0,0 UV-I 0 W/m -4,3 C -1,0 C 1,6 km/h (1 Bft) 98,00 %
28.11.2016 22:02 -1,0 C 78 % 1030,5 hPa 0,0 l/m 0,4 km/h (0 Bft) N-NO 15 0 min 0,000 mm 0,0 UV-I 0 W/m -4,3 C -1,0 C 1,6 km/h (1 Bft) 94,74 %
28.11.2016 22:04 -1,1 C 77 % 1030,5 hPa 0,0 l/m 1,2 km/h (1 Bft) N-NO 15 0 min 0,000 mm 0,0 UV-I 0 W/m -4,6 C -1,1 C 3,2 km/h (1 Bft) 97,92 %
28.11.2016 22:06 -1,1 C 78 % 1030,6 hPa 0,0 l/m 0,5 km/h (0 Bft) N-NO 15 0 min 0,000 mm 0,0 UV-I 0 W/m -4,4 C -1,1 C 3,2 km/h (1 Bft) 97,96 %
28.11.2016 22:08 -1,2 C 78 % 1030,7 hPa 0,0 l/m 0,3 km/h (0 Bft) N-NO 15 0 min 0,000 mm 0,0 UV-I 0 W/m -4,5 C -1,2 C 1,6 km/h (1 Bft) 98,00 %
28.11.2016 22:10 -1,3 C 80 % 1030,7 hPa 0,0 l/m 2,3 km/h (1 Bft) N-NO 15 0 min 0,000 mm 0,0 UV-I 0 W/m -4,3 C -1,3 C 3,2 km/h (1 Bft) 95,83 %
28.11.2016 22:12 -1,4 C 80 % 1030,7 hPa 0,0 l/m 1,0 km/h (0 Bft) N-NO 15 0 min 0,000 mm 0,0 UV-I 0 W/m -4,4 C -1,4 C 3,2 km/h (1 Bft) 97,37 %
28.11.2016 22:14 -1,4 C 80 % 1030,7 hPa 0,0 l/m 0,0 km/h (0 Bft) N-NO 15 0 min 0,000 mm 0,0 UV-I 0 W/m -4,4 C -1,4 C 0,0 km/h (0 Bft) 96,23 %
28.11.2016 22:16 -1,4 C 82 % 1030,7 hPa 0,0 l/m 0,0 km/h (0 Bft) N-NO 15 0 min 0,000 mm 0,0 UV-I 0 W/m -4,1 C -1,4 C 0,0 km/h (0 Bft) 97,87 %
28.11.2016 22:18 -1,4 C 82 % 1030,7 hPa 0,0 l/m 0,0 km/h (0 Bft) N-NO 15 0 min 0,000 mm 0,0 UV-I 0 W/m -4,1 C -1,4 C 0,0 km/h (0 Bft) 97,87 %
28.11.2016 22:20 -1,4 C 81 % 1030,7 hPa 0,0 l/m 1,6 km/h (1 Bft) O 85 0 min 0,000 mm 0,0 UV-I 0 W/m -4,2 C -1,4 C 3,2 km/h (1 Bft) 97,37 %
28.11.2016 22:22 -1,4 C 83 % 1030,8 hPa 0,0 l/m 1,9 km/h (1 Bft) O 85 0 min 0,000 mm 0,0 UV-I 0 W/m -3,9 C -1,4 C 3,2 km/h (1 Bft) 94,00 %
28.11.2016 22:24 -1,4 C 81 % 1030,8 hPa 0,0 l/m 0,9 km/h (0 Bft) O 85 0 min 0,000 mm 0,0 UV-I 0 W/m -4,2 C -1,4 C 1,6 km/h (1 Bft) 98,11 %
28.11.2016 22:26 -1,3 C 82 % 1030,9 hPa 0,0 l/m 0,2 km/h (0 Bft) O 85 0 min 0,000 mm 0,0 UV-I 0 W/m -4,0 C -1,3 C 1,6 km/h (1 Bft) 97,73 %
28.11.2016 22:28 -1,3 C 81 % 1030,9 hPa 0,0 l/m 4,2 km/h (1 Bft) SW 234 0 min 0,000 mm 0,0 UV-I 0 W/m -4,1 C -1,3 C 6,4 km/h (2 Bft) 96,23 %
28.11.2016 22:30 -1,3 C 80 % 1030,9 hPa 0,0 l/m 3,0 km/h (1 Bft) W-SW 240 0 min 0,000 mm 0,0 UV-I 0 W/m -4,3 C -1,3 C 4,8 km/h (1 Bft) 97,37 %
28.11.2016 22:32 -1,2 C 79 % 1030,9 hPa 0,0 l/m 3,4 km/h (1 Bft) W-SW 240 0 min 0,000 mm 0,0 UV-I 0 W/m -4,4 C -1,2 C 4,8 km/h (1 Bft) 98,00 %
28.11.2016 22:34 -1,1 C 78 % 1031,0 hPa 0,0 l/m 1,2 km/h (1 Bft) W-SW 240 0 min 0,000 mm 0,0 UV-I 0 W/m -4,4 C -1,1 C 3,2 km/h (1 Bft) 100,00 %
28.11.2016 22:36 -1,1 C 79 % 1030,9 hPa 0,0 l/m 0,2 km/h (0 Bft) W-SW 240 0 min 0,000 mm 0,0 UV-I 0 W/m -4,3 C -1,1 C 1,6 km/h (1 Bft) 100,00 %
28.11.2016 22:38 -1,1 C 80 % 1031,0 hPa 0,0 l/m 0,0 km/h (0 Bft) W-SW 240 0 min 0,000 mm 0,0 UV-I 0 W/m -4,1 C -1,1 C 1,6 km/h (1 Bft) 97,37 %
28.11.2016 22:40 -1,1 C 80 % 1031,0 hPa 0,0 l/m 0,0 km/h (0 Bft) W-SW 240 0 min 0,000 mm 0,0 UV-I 0 W/m -4,1 C -1,1 C 0,0 km/h (0 Bft) 100,00 %
28.11.2016 22:42 -1,2 C 81 % 1031,0 hPa 0,0 l/m 0,0 km/h (0 Bft) W-SW 240 0 min 0,000 mm 0,0 UV-I 0 W/m -4,0 C -1,2 C 0,0 km/h (0 Bft) 96,00 %
28.11.2016 22:44 -1,2 C 80 % 1031,0 hPa 0,0 l/m 0,4 km/h (0 Bft) W-SW 240 0 min 0,000 mm 0,0 UV-I 0 W/m -4,2 C -1,2 C 1,6 km/h (1 Bft) 100,00 %
28.11.2016 22:46 -1,1 C 79 % 1031,0 hPa 0,0 l/m 2,6 km/h (1 Bft) W-SW 240 0 min 0,000 mm 0,0 UV-I 0 W/m -4,3 C -1,1 C 3,2 km/h (1 Bft) 100,00 %
28.11.2016 22:48 -1,1 C 80 % 1031,0 hPa 0,0 l/m 2,1 km/h (1 Bft) W-SW 240 0 min 0,000 mm 0,0 UV-I 0 W/m -4,1 C -1,1 C 3,2 km/h (1 Bft) 96,23 %
28.11.2016 22:50 -1,1 C 80 % 1031,1 hPa 0,0 l/m 0,8 km/h (0 Bft) W-SW 240 0 min 0,000 mm 0,0 UV-I 0 W/m -4,1 C -1,1 C 1,6 km/h (1 Bft) 100,00 %
28.11.2016 22:52 -1,1 C 81 % 1031,0 hPa 0,0 l/m 0,0 km/h (0 Bft) W-SW 240 0 min 0,000 mm 0,0 UV-I 0 W/m -3,9 C -1,1 C 0,0 km/h (0 Bft) 100,00 %
28.11.2016 22:54 -1,1 C 80 % 1031,1 hPa 0,0 l/m 0,5 km/h (0 Bft) W-SW 240 0 min 0,000 mm 0,0 UV-I 0 W/m -4,1 C -1,1 C 1,6 km/h (1 Bft) 98,11 %
28.11.2016 22:56 -1,1 C 79 % 1031,1 hPa 0,0 l/m 0,2 km/h (0 Bft) W-SW 240 0 min 0,000 mm 0,0 UV-I 0 W/m -4,3 C -1,1 C 1,6 km/h (1 Bft) 100,00 %
28.11.2016 22:58 -1,1 C 80 % 1031,2 hPa 0,0 l/m 1,5 km/h (1 Bft) W-SW 240 0 min 0,000 mm 0,0 UV-I 0 W/m -4,1 C -1,1 C 3,2 km/h (1 Bft) 97,37 %
28.11.2016 23:00 -1,1 C 80 % 1031,2 hPa 0,0 l/m 1,3 km/h (1 Bft) W-SW 240 0 min 0,000 mm 0,0 UV-I 0 W/m -4,1 C -1,1 C 3,2 km/h (1 Bft) 100,00 %
28.11.2016 23:02 -1,1 C 81 % 1031,2 hPa 0,0 l/m 0,9 km/h (0 Bft) W-SW 240 0 min 0,000 mm 0,0 UV-I 0 W/m -3,9 C -1,1 C 1,6 km/h (1 Bft) 97,87 %
28.11.2016 23:04 -1,0 C 79 % 1031,2 hPa 0,0 l/m 0,8 km/h (0 Bft) W-SW 240 0 min 0,000 mm 0,0 UV-I 0 W/m -4,2 C -1,0 C 3,2 km/h (1 Bft) 98,00 %
28.11.2016 23:06 -0,9 C 79 % 1031,3 hPa 0,0 l/m 0,7 km/h (0 Bft) W-SW 240 0 min 0,000 mm 0,0 UV-I 0 W/m -4,1 C -0,9 C 1,6 km/h (1 Bft) 100,00 %
28.11.2016 23:08 -0,9 C 80 % 1031,2 hPa 0,0 l/m 0,3 km/h (0 Bft) W-SW 240 0 min 0,000 mm 0,0 UV-I 0 W/m -3,9 C -0,9 C 1,6 km/h (1 Bft) 100,00 %
28.11.2016 23:10 -0,9 C 79 % 1031,2 hPa 0,0 l/m 0,2 km/h (0 Bft) W-SW 240 0 min 0,000 mm 0,0 UV-I 0 W/m -4,1 C -0,9 C 1,6 km/h (1 Bft) 100,00 %
28.11.2016 23:12 -1,0 C 79 % 1031,2 hPa 0,0 l/m 0,0 km/h (0 Bft) W-SW 240 0 min 0,000 mm 0,0 UV-I 0 W/m -4,2 C -1,0 C 1,6 km/h (1 Bft) 97,56 %
28.11.2016 23:14 -1,0 C 80 % 1031,2 hPa 0,0 l/m 0,0 km/h (0 Bft) W-SW 240 0 min 0,000 mm 0,0 UV-I 0 W/m -4,0 C -1,0 C 0,0 km/h (0 Bft) 100,00 %
28.11.2016 23:16 -1,0 C 81 % 1031,2 hPa 0,0 l/m 0,0 km/h (0 Bft) W-SW 240 0 min 0,000 mm 0,0 UV-I 0 W/m -3,8 C -1,0 C 0,0 km/h (0 Bft) 97,87 %
28.11.2016 23:18 -0,9 C 81 % 1031,2 hPa 0,0 l/m 1,0 km/h (0 Bft) W-SW 240 0 min 0,000 mm 0,0 UV-I 0 W/m -3,7 C -0,9 C 3,2 km/h (1 Bft) 100,00 %
28.11.2016 23:20 -0,9 C 80 % 1031,3 hPa 0,0 l/m 1,4 km/h (1 Bft) W-SW 240 0 min 0,000 mm 0,0 UV-I 0 W/m -3,9 C -0,9 C 3,2 km/h (1 Bft) 100,00 %
28.11.2016 23:22 -0,9 C 79 % 1031,2 hPa 0,0 l/m 1,6 km/h (1 Bft) W-SW 240 0 min 0,000 mm 0,0 UV-I 0 W/m -4,1 C -0,9 C 3,2 km/h (1 Bft) 100,00 %
28.11.2016 23:24 -0,9 C 79 % 1031,3 hPa 0,0 l/m 1,4 km/h (1 Bft) W-SW 240 0 min 0,000 mm 0,0 UV-I 0 W/m -4,1 C -0,9 C 3,2 km/h (1 Bft) 98,11 %
28.11.2016 23:26 -0,9 C 78 % 1031,3 hPa 0,0 l/m 0,5 km/h (0 Bft) W-SW 240 0 min 0,000 mm 0,0 UV-I 0 W/m -4,2 C -0,9 C 1,6 km/h (1 Bft) 97,62 %
28.11.2016 23:28 -0,9 C 78 % 1031,3 hPa 0,0 l/m 0,4 km/h (0 Bft) W-SW 240 0 min 0,000 mm 0,0 UV-I 0 W/m -4,2 C -0,9 C 1,6 km/h (1 Bft) 98,00 %
28.11.2016 23:30 -0,9 C 78 % 1031,3 hPa 0,0 l/m 0,8 km/h (0 Bft) W-SW 240 0 min 0,000 mm 0,0 UV-I 0 W/m -4,2 C -0,9 C 3,2 km/h (1 Bft) 100,00 %
28.11.2016 23:32 -0,9 C 78 % 1031,3 hPa 0,0 l/m 0,3 km/h (0 Bft) W-SW 240 0 min 0,000 mm 0,0 UV-I 0 W/m -4,2 C -0,9 C 1,6 km/h (1 Bft) 94,00 %
28.11.2016 23:34 -0,9 C 78 % 1031,3 hPa 0,0 l/m 1,0 km/h (0 Bft) W-SW 240 0 min 0,000 mm 0,0 UV-I 0 W/m -4,2 C -0,9 C 3,2 km/h (1 Bft) 100,00 %
28.11.2016 23:36 -0,8 C 77 % 1031,3 hPa 0,0 l/m 2,4 km/h (1 Bft) W-SW 241 0 min 0,000 mm 0,0 UV-I 0 W/m -4,3 C -0,8 C 4,8 km/h (1 Bft) 100,00 %
28.11.2016 23:38 -0,8 C 79 % 1031,4 hPa 0,0 l/m 0,5 km/h (0 Bft) W-SW 241 0 min 0,000 mm 0,0 UV-I 0 W/m -4,0 C -0,8 C 1,6 km/h (1 Bft) 100,00 %
28.11.2016 23:40 -0,9 C 78 % 1031,3 hPa 0,0 l/m 0,0 km/h (0 Bft) W-SW 241 0 min 0,000 mm 0,0 UV-I 0 W/m -4,2 C -0,9 C 0,0 km/h (0 Bft) 97,56 %
28.11.2016 23:42 -0,9 C 79 % 1031,3 hPa 0,0 l/m 0,2 km/h (0 Bft) W-SW 241 0 min 0,000 mm 0,0 UV-I 0 W/m -4,1 C -0,9 C 1,6 km/h (1 Bft) 100,00 %
28.11.2016 23:44 -0,9 C 80 % 1031,3 hPa 0,0 l/m 0,3 km/h (0 Bft) W-SW 241 0 min 0,000 mm 0,0 UV-I 0 W/m -3,9 C -0,9 C 1,6 km/h (1 Bft) 100,00 %
28.11.2016 23:46 -0,9 C 80 % 1031,4 hPa 0,0 l/m 0,0 km/h (0 Bft) W-SW 241 0 min 0,000 mm 0,0 UV-I 0 W/m -3,9 C -0,9 C 0,0 km/h (0 Bft) 100,00 %
28.11.2016 23:48 -0,9 C 80 % 1031,4 hPa 0,0 l/m 0,7 km/h (0 Bft) W-SW 241 0 min 0,000 mm 0,0 UV-I 0 W/m -3,9 C -0,9 C 1,6 km/h (1 Bft) 100,00 %
28.11.2016 23:50 -0,9 C 81 % 1031,4 hPa 0,0 l/m 0,1 km/h (0 Bft) W-SW 241 0 min 0,000 mm 0,0 UV-I 0 W/m -3,7 C -0,9 C 1,6 km/h (1 Bft) 100,00 %
28.11.2016 23:52 -1,0 C 81 % 1031,4 hPa 0,0 l/m 0,9 km/h (0 Bft) W-SW 241 0 min 0,000 mm 0,0 UV-I 0 W/m -3,8 C -1,0 C 1,6 km/h (1 Bft) 94,29 %
28.11.2016 23:54 -1,0 C 80 % 1031,3 hPa 0,0 l/m 1,1 km/h (1 Bft) W-SW 241 0 min 0,000 mm 0,0 UV-I 0 W/m -4,0 C -1,0 C 1,6 km/h (1 Bft) 100,00 %
28.11.2016 23:56 -0,9 C 79 % 1031,4 hPa 0,0 l/m 1,8 km/h (1 Bft) W-SW 241 0 min 0,000 mm 0,0 UV-I 0 W/m -4,1 C -0,9 C 3,2 km/h (1 Bft) 100,00 %
28.11.2016 23:58 -0,9 C 80 % 1031,4 hPa 0,0 l/m 0,9 km/h (0 Bft) W-SW 241 0 min 0,000 mm 0,0 UV-I 0 W/m -3,9 C -0,9 C 1,6 km/h (1 Bft) 97,87 %
_ Min-Zeit 19:12 13:44 00:00 - 00:26 - - - - - - 14:44 16:10 00:26 04:02
Minimum _ -2,2 C 55 % 1018,3 hPa - 0,0 km/h (0 Bft) - - - - - - -6,2 C -6,9 C 0,0 km/h (0 Bft) 84,62 %
_ Max-Zeit 00:00 07:50 23:38 00:00 16:10 - - 09:16 13:02 11:26 12:00 00:00 00:00 16:10 00:00
Maximum _ 2,7 C 97 % 1031,4 hPa 0,0 l/m 15,7 km/h
N-NO (3 Bft)
- - 4 min 0,127 mm 0,7 UV-I 425 W/m 1,8 C 2,7 C 19,3 km/h
NO (3 Bft)
100,00 %
Durchschnitt _ -0,2 C 83 % 1024,6 hPa #0,0 l/m 2,3 km/h (1 Bft) W - #4:34 h #0,635 mm 0,6 UV-I 170 W/m -2,9 C -0,3 C 4,7 km/h (1 Bft) 98,53 %